[[{"header":{"parameterUnit":"m.s-1","parameterCategory":1,"la1":31.0,"la2":29.5877,"lo1":-88.7671,"lo2":-86.6584,"dy":0.0162,"dx":0.0185,"nx":115,"ny":88,"refTime":"2024-03-11T06:00:00:Z","depth":0,"parameterNumber":2,"parameterNumberName":"U-component_of_WINDS"},"data":[0.0,0.0,0.0,0.0,0.0,0.0,0.0,0.0,0.0,0.0,0.0,0.0,0.0,0.0,0.0,0.0,0.0,0.0,0.0,0.0,0.0,0.0,0.0,0.0,0.0,0.0,0.0,0.0,0.0,0.0,0.0,0.0,0.0,0.0,0.0,0.0,0.0,0.0,0.0,0.0,0.0,0.0,0.0,0.0,0.0,0.0,0.0,0.0,0.0,0.0,0.0,0.0,0.0,0.0,0.0,0.0,0.0,0.0,0.0,0.0,0.0,0.0,0.0,0.0,0.0,0.0,0.0,0.0,0.0,0.0,0.0,0.0,0.0,0.0,0.0,0.0,0.0,0.0,0.0,0.0,0.0,0.0,0.0,0.0,0.0,0.0,0.0,0.0,0.0,0.0,0.0,0.0,0.0,0.0,0.0,0.0,0.0,0.0,0.0,0.0,0.0,0.0,0.0,0.0,0.0,0.0,0.0,0.0,0.0,0.0,0.0,0.0,0.0,0.0,0.0,0.0,0.0,0.0,0.0,0.0,0.0,0.0,0.0,0.0,0.0,0.0,0.0,0.0,0.0,0.0,0.0,0.0,0.0,0.0,0.0,0.0,0.0,0.0,0.0,0.0,0.0,0.0,0.0,0.0,0.0,0.0,0.0,0.0,0.0,0.0,0.0,0.0,0.0,0.0,0.0,0.0,0.0,0.0,0.0,0.0,0.0,0.0,0.0,0.0,0.0,0.0,0.0,0.0,0.0,0.0,0.0,0.0,0.0,0.0,0.0,0.0,0.0,0.0,0.0,0.0,0.0,0.0,0.0,0.0,0.0,0.0,0.0,0.0,0.0,0.0,0.0,0.0,0.0,0.0,0.0,0.0,0.0,0.0,0.0,0.0,0.0,0.0,0.0,0.0,0.0,0.0,0.0,0.0,0.0,0.0,0.0,0.0,0.0,0.0,0.0,0.0,0.0,0.0,0.0,0.0,0.0,0.0,0.0,0.0,0.0,0.0,0.0,0.0,0.0,0.0,0.0,0.0,0.0,0.0,0.0,0.0,0.0,0.0,0.0,0.0,0.0,0.0,0.0,0.0,0.0,0.0,0.0,0.0,0.0,0.0,0.0,0.0,0.0,0.0,0.0,0.0,0.0,0.0,0.0,0.0,0.0,0.0,0.0,0.0,0.0,0.0,0.0,0.0,0.0,0.0,0.0,0.0,0.0,0.0,0.0,0.0,0.0,0.0,0.0,0.0,0.0,0.0,0.0,0.0,0.0,0.0,0.0,0.0,0.0,0.0,0.0,0.0,0.0,0.0,0.0,0.0,0.0,0.0,0.0,0.0,0.0,0.0,0.0,0.0,0.0,0.0,0.0,0.0,0.0,0.0,0.0,0.0,0.0,0.0,0.0,0.0,0.0,0.0,0.0,0.0,0.0,0.0,0.0,0.0,0.0,0.0,0.0,0.0,0.0,0.0,0.0,0.0,0.0,0.0,0.0,0.0,0.0,0.0,0.0,0.0,0.0,0.0,0.0,0.0,0.0,0.0,0.0,0.0,0.0,0.0,0.0,0.0,0.0,0.0,0.0,0.0,0.0,0.0,0.0,0.0,0.0,0.0,0.0,0.0,0.0,0.0,0.0,0.0,0.0,0.0,0.0,0.0,0.0,0.0,0.0,0.0,0.0,0.0,0.0,0.0,0.0,0.0,0.0,0.0,0.0,0.0,0.0,0.0,0.0,0.0,0.0,0.0,0.0,0.0,0.0,0.0,0.0,0.0,0.0,0.0,0.0,0.0,0.0,0.0,0.0,0.0,0.0,0.0,0.0,0.0,0.0,0.0,0.0,0.0,0.0,0.0,0.0,0.0,0.0,0.0,0.0,0.0,0.0,0.0,0.0,0.0,0.0,0.0,0.0,0.0,0.0,0.0,0.0,0.0,0.0,0.0,0.0,0.0,0.0,0.0,0.0,0.0,0.0,0.0,0.0,0.0,0.0,0.0,0.0,0.0,0.0,0.0,0.0,0.0,0.0,0.0,0.0,0.0,0.0,0.0,0.0,0.0,0.0,0.0,0.0,0.0,0.0,0.0,0.0,0.0,0.0,0.0,0.0,0.0,0.0,0.0,0.0,0.0,0.0,0.0,0.0,0.0,0.0,0.0,0.0,0.0,0.0,0.0,0.0,0.0,0.0,0.0,0.0,0.0,0.0,0.0,0.0,0.0,0.0,0.0,0.0,0.0,0.0,0.0,0.0,0.0,0.0,0.0,0.0,0.0,0.0,0.0,0.0,0.0,0.0,0.0,0.0,0.0,0.0,0.0,0.0,0.0,0.0,0.0,0.0,0.0,0.0,0.0,0.0,0.0,0.0,0.0,0.0,0.0,0.0,0.0,0.0,0.0,0.0,0.0,0.0,0.0,0.0,0.0,0.0,0.0,0.0,0.0,0.0,0.0,0.0,0.0,0.0,0.0,0.0,0.0,0.0,0.0,0.0,0.0,0.0,0.0,0.0,0.0,0.0,0.0,0.0,0.0,0.0,0.0,0.0,0.0,0.0,0.0,0.0,0.0,0.0,0.0,0.0,0.0,0.0,0.0,0.0,0.0,0.0,0.0,0.0,0.0,0.0,0.0,0.0,0.0,0.0,0.0,0.0,0.0,0.0,0.0,0.0,0.0,0.0,0.0,0.0,0.0,0.0,0.0,0.0,0.0,0.0,0.0,0.0,0.0,0.0,0.0,0.0,0.0,0.0,0.0,0.0,0.0,0.0,0.0,0.0,0.0,0.0,0.0,0.0,0.0,0.0,0.0,0.0,0.0,0.0,0.0,0.0,0.0,0.0,0.0,0.0,0.0,0.0,0.0,0.0,0.0,0.0,0.0,0.0,0.0,0.0,0.0,0.0,0.0,0.0,0.0,0.0,0.0,0.0,0.0,0.0,0.0,0.0,0.0,0.0,0.0,0.0,0.0,0.0,0.0,0.0,0.0,0.0,0.0,0.0,0.0,0.0,0.0,0.0,0.0,0.0,0.0,0.0,0.0,0.0,0.0,0.0,0.0,0.0,0.0,0.0,0.0,0.0,0.0,0.0,0.0,0.0,0.0,0.0,0.0,0.0,0.0,0.0,0.0,0.0,0.0,0.0,0.0,0.0,0.0,0.0,0.0,0.0,0.0,0.0,0.0,0.0,0.0,0.0,0.0,0.0,0.0,0.0,0.0,0.0,0.0,0.0,0.0,0.0,0.0,0.0,0.0,0.0,0.0,0.0,0.0,0.0,0.0,0.0,0.0,0.0,0.0,0.0,0.0,0.0,0.0,0.0,0.0,0.0,0.0,0.0,0.0,0.0,0.0,0.0,0.0,0.0,0.0,0.0,0.0,0.0,0.0,0.0,0.0,0.0,0.0,0.0,0.0,0.0,0.0,0.0,0.0,0.0,0.0,0.0,0.0,0.0,0.0,0.0,0.0,0.0,0.0,0.0,0.0,0.0,0.0,0.0,0.0,0.0,0.0,0.0,0.0,0.0,0.0,0.0,0.0,0.0,0.0,0.0,0.0,0.0,0.0,0.0,0.0,0.0,0.0,0.0,0.0,0.0,0.0,0.0,0.0,0.0,0.0,0.0,0.0,0.0,0.0,0.0,0.0,0.0,0.0,0.0,0.0,0.0,0.0,0.0,0.0,0.0,0.0,0.0,0.0,0.0,0.0,0.0,0.0,0.0,0.0,0.0,0.0,0.0,0.0,0.0,0.0,0.0,0.0,0.0,0.0,0.0,0.0,0.0,0.0,0.0,0.0,0.0,0.0,0.0,0.0,0.0,0.0,0.0,0.0,0.0,0.0,0.0,0.0,0.0,0.0,0.0,0.0,0.0,0.0,0.0,0.0,0.0,0.0,0.0,0.0,0.0,0.0,0.0,0.0,0.0,0.0,0.0,0.0,0.0,0.0,0.0,0.0,0.0,0.0,0.0,0.0,0.0,0.0,0.0,0.0,0.0,0.0,0.0,0.0,0.0,0.0,0.0,0.0,0.0,0.0,0.0,0.0,0.0,0.0,0.0,0.0,0.0,0.0,0.0,0.0,0.0,0.0,0.0,0.0,0.0,0.0,0.0,0.0,0.0,0.0,0.0,0.0,0.0,0.0,0.0,0.0,0.0,0.0,0.0,0.0,0.0,0.0,0.0,0.0,0.0,0.0,0.0,0.0,0.0,0.0,0.0,0.0,0.0,0.0,0.0,0.0,0.0,0.0,0.0,0.0,0.0,0.0,0.0,0.0,0.0,0.0,0.0,0.0,0.0,0.0,-0.8933,0.0,0.0,0.0,0.0,0.0,0.0,0.0,0.0,0.0,0.0,0.0,0.0,0.0,0.0,0.0,0.0,0.0,0.0,0.0,0.0,0.0,0.0,0.0,0.0,0.0,0.0,0.0,0.0,0.0,0.0,0.0,0.0,0.0,0.0,0.0,0.0,0.0,0.0,0.0,0.0,0.0,0.0,0.0,0.0,0.0,0.0,0.0,0.0,0.0,0.0,0.0,0.0,0.0,0.0,0.0,0.0,0.0,0.0,0.0,0.0,0.0,0.0,0.0,0.0,0.0,0.0,0.0,0.0,0.0,0.0,0.0,0.0,0.0,0.0,0.0,0.0,0.0,0.0,0.0,0.0,0.0,0.0,0.0,0.0,0.0,0.0,0.0,0.0,0.0,0.0,0.0,0.0,0.0,0.0,0.0,0.0,0.0,0.0,0.0,0.0,0.0,0.0,0.0,0.0,0.0,0.0,0.0,0.0,0.0,0.0,-0.9995,-0.978,-0.9734,-0.959,-0.9348,0.0,0.0,0.0,0.0,0.0,0.0,0.0,0.0,0.0,0.0,0.0,0.0,0.0,0.0,0.0,0.0,0.0,0.0,0.0,0.0,0.0,0.0,0.0,0.0,0.0,0.0,0.0,0.0,0.0,0.0,0.0,0.0,0.0,0.0,0.0,0.0,0.0,0.0,0.0,0.0,0.0,0.0,0.0,0.0,0.0,0.0,0.0,0.0,0.0,0.0,0.0,0.0,0.0,0.0,0.0,0.0,0.0,0.0,0.0,0.0,0.0,0.0,0.0,0.0,0.0,0.0,0.0,0.0,0.0,0.0,0.0,0.0,0.0,0.0,0.0,0.0,0.0,0.0,0.0,0.0,0.0,0.0,0.0,0.0,0.0,0.0,0.0,0.0,0.0,0.0,0.0,0.0,0.0,0.0,0.0,0.0,0.0,0.0,0.0,0.0,0.0,0.0,0.0,0.0,0.0,0.0,0.0,0.0,0.0,0.0,0.0,0.0,-1.0322,-1.0127,-0.9758,0.0,0.0,0.0,0.0,0.0,0.0,0.0,0.0,0.0,0.0,0.0,0.0,0.0,0.0,0.0,0.0,0.0,0.0,0.0,0.0,0.0,0.0,0.0,0.0,0.0,0.0,0.0,0.0,0.0,0.0,0.0,0.0,0.0,0.0,0.0,0.0,0.0,0.0,0.0,0.0,0.0,0.0,0.0,0.0,0.0,0.0,0.0,0.0,0.0,0.0,0.0,0.0,0.0,0.0,0.0,0.0,0.0,0.0,0.0,0.0,0.0,0.0,0.0,0.0,0.0,0.0,0.0,0.0,0.0,0.0,0.0,0.0,0.0,0.0,0.0,0.0,0.0,0.0,0.0,0.0,0.0,0.0,0.0,0.0,0.0,0.0,0.0,0.0,0.0,0.0,0.0,0.0,0.0,0.0,0.0,0.0,0.0,0.0,0.0,0.0,0.0,0.0,0.0,0.0,0.0,0.0,0.0,0.0,0.0,0.0,-1.0322,-1.0322,-1.0322,0.0,-1.0224,0.0,0.0,0.0,0.0,0.0,0.0,0.0,0.0,0.0,0.0,0.0,0.0,0.0,0.0,0.0,0.0,0.0,0.0,0.0,0.0,0.0,0.0,0.0,0.0,0.0,0.0,0.0,0.0,0.0,0.0,0.0,0.0,0.0,0.0,0.0,0.0,0.0,0.0,0.0,0.0,0.0,0.0,0.0,0.0,0.0,0.0,0.0,0.0,0.0,0.0,0.0,0.0,0.0,0.0,0.0,0.0,0.0,0.0,0.0,0.0,0.0,0.0,0.0,0.0,0.0,0.0,0.0,0.0,0.0,0.0,0.0,0.0,0.0,0.0,0.0,0.0,0.0,0.0,0.0,0.0,0.0,0.0,0.0,0.0,0.0,0.0,0.0,0.0,0.0,0.0,0.0,0.0,0.0,0.0,0.0,0.0,0.0,0.0,0.0,0.0,0.0,0.0,0.0,0.0,0.0,0.0,0.0,0.0,0.0,0.0,-1.0322,-1.0322,-1.0322,-1.0322,0.0,0.0,0.0,0.0,0.0,0.0,0.0,0.0,0.0,0.0,0.0,0.0,0.0,0.0,0.0,0.0,0.0,0.0,0.0,0.0,0.0,0.0,0.0,0.0,0.0,0.0,0.0,0.0,0.0,0.0,0.0,0.0,0.0,0.0,0.0,0.0,0.0,0.0,0.0,0.0,0.0,0.0,0.0,0.0,0.0,0.0,0.0,0.0,0.0,0.0,0.0,0.0,0.0,0.0,0.0,0.0,0.0,0.0,0.0,0.0,0.0,0.0,0.0,0.0,0.0,0.0,0.0,0.0,0.0,0.0,0.0,0.0,0.0,0.0,0.0,0.0,0.0,0.0,0.0,0.0,0.0,0.0,0.0,0.0,0.0,0.0,0.0,0.0,0.0,0.0,0.0,0.0,0.0,0.0,0.0,0.0,0.0,0.0,0.0,0.0,0.0,0.0,0.0,0.0,0.0,0.0,0.0,0.0,0.0,0.0,-1.041,-1.0469,-1.0469,-1.0449,-1.042,-1.0283,0.0,0.0,0.0,0.0,0.0,0.0,0.0,0.0,0.0,0.0,0.0,0.0,0.0,0.0,0.0,0.0,0.0,0.0,0.0,0.0,0.0,0.0,0.0,0.0,0.0,0.0,0.0,0.0,0.0,0.0,0.0,0.0,0.0,0.0,0.0,0.0,0.0,0.0,0.0,0.0,0.0,0.0,0.0,0.0,0.0,0.0,0.0,0.0,0.0,0.0,0.0,0.0,0.0,0.0,0.0,0.0,0.0,0.0,0.0,0.0,0.0,0.0,0.0,0.0,0.0,0.0,0.0,0.0,0.0,0.0,0.0,0.0,0.0,0.0,0.0,0.0,0.0,0.0,0.0,0.0,0.0,0.0,0.0,0.0,0.0,0.0,0.0,0.0,0.0,0.0,0.0,0.0,0.0,0.0,0.0,0.0,0.0,0.0,0.0,0.0,0.0,0.0,0.0,0.0,0.0,0.0,0.0,0.0,-1.0342,-1.0674,-1.0858,-1.0889,-1.0879,-1.0693,0.0,0.0,0.0,0.0,0.0,0.0,0.0,0.0,0.0,0.0,0.0,0.0,0.0,0.0,0.0,0.0,0.0,0.0,0.0,0.0,0.0,0.0,0.0,0.0,0.0,0.0,0.0,0.0,0.0,0.0,0.0,0.0,0.0,0.0,0.0,0.0,0.0,0.0,0.0,0.0,0.0,0.0,0.0,0.0,0.0,0.0,0.0,0.0,0.0,0.0,0.0,0.0,0.0,0.0,0.0,0.0,0.0,0.0,0.0,0.0,0.0,0.0,0.0,0.0,0.0,0.0,0.0,0.0,0.0,0.0,0.0,0.0,0.0,0.0,0.0,0.0,0.0,0.0,0.0,0.0,0.0,0.0,0.0,0.0,0.0,0.0,0.0,0.0,0.0,0.0,0.0,0.0,0.0,0.0,0.0,0.0,0.0,0.0,0.0,0.0,0.0,0.0,0.0,0.0,0.0,0.0,0.0,0.0,0.0,-1.0684,-1.1103,-1.1349,-1.134,-1.1055,-1.083,0.0,0.0,0.0,0.0,0.0,0.0,0.0,0.0,0.0,0.0,0.0,0.0,0.0,0.0,0.0,0.0,0.0,0.0,0.0,0.0,0.0,0.0,0.0,0.0,0.0,0.0,0.0,0.0,0.0,0.0,0.0,0.0,0.0,0.0,0.0,0.0,0.0,0.0,0.0,0.0,0.0,0.0,0.0,0.0,0.0,0.0,0.0,0.0,0.0,0.0,0.0,0.0,0.0,0.0,0.0,0.0,0.0,0.0,0.0,0.0,0.0,0.0,0.0,0.0,0.0,0.0,0.0,0.0,0.0,0.0,0.0,0.0,0.0,0.0,0.0,0.0,0.0,0.0,0.0,0.0,0.0,0.0,0.0,0.0,0.0,0.0,0.0,0.0,0.0,0.0,0.0,0.0,0.0,0.0,0.0,0.0,0.0,0.0,0.0,0.0,0.0,0.0,0.0,0.0,0.0,0.0,0.0,0.0,0.0,-1.1103,0.0,-1.18,-1.178,-1.1357,-1.1055,0.0,0.0,0.0,0.0,0.0,0.0,0.0,0.0,0.0,0.0,0.0,0.0,0.0,0.0,0.0,0.0,0.0,0.0,0.0,0.0,0.0,0.0,0.0,0.0,0.0,0.0,0.0,0.0,0.0,0.0,0.0,0.0,0.0,0.0,0.0,0.0,0.0,0.0,0.0,0.0,0.0,0.0,0.0,0.0,0.0,0.0,0.0,0.0,0.0,0.0,0.0,0.0,0.0,0.0,0.0,0.0,0.0,0.0,0.0,0.0,0.0,0.0,0.0,0.0,0.0,0.0,0.0,0.0,0.0,0.0,0.0,0.0,0.0,0.0,0.0,0.0,0.0,0.0,0.0,0.0,0.0,0.0,0.0,0.0,0.0,0.0,0.0,0.0,0.0,0.0,0.0,0.0,0.0,0.0,0.0,0.0,0.0,0.0,0.0,0.0,0.0,0.0,0.0,0.0,0.0,0.0,0.0,0.0,-1.0753,-1.1565,-1.2002,-1.2203,-1.2194,-1.1797,-1.1367,0.0,0.0,0.0,0.0,0.0,0.0,0.0,0.0,0.0,0.0,0.0,0.0,0.0,0.0,0.0,0.0,0.0,0.0,0.0,0.0,0.0,0.0,0.0,0.0,0.0,0.0,0.0,0.0,0.0,0.0,0.0,0.0,0.0,0.0,0.0,0.0,0.0,0.0,0.0,0.0,0.0,0.0,0.0,0.0,0.0,0.0,0.0,0.0,0.0,0.0,0.0,0.0,0.0,0.0,0.0,0.0,0.0,0.0,0.0,0.0,0.0,0.0,0.0,0.0,0.0,0.0,0.0,0.0,0.0,0.0,0.0,0.0,0.0,0.0,0.0,0.0,0.0,0.0,0.0,0.0,0.0,0.0,0.0,0.0,0.0,0.0,0.0,0.0,0.0,0.0,0.0,0.0,0.0,0.0,0.0,0.0,0.0,0.0,0.0,0.0,0.0,0.0,0.0,0.0,0.0,0.0,0.0,0.0,0.0,-1.2021,-1.2367,-1.2556,-1.2546,-1.2014,-1.1538,0.0,0.0,0.0,0.0,0.0,0.0,0.0,0.0,0.0,0.0,0.0,0.0,0.0,0.0,0.0,0.0,0.0,0.0,0.0,0.0,0.0,0.0,0.0,0.0,0.0,0.0,0.0,0.0,0.0,0.0,0.0,0.0,0.0,0.0,0.0,0.0,0.0,0.0,0.0,0.0,0.0,0.0,0.0,0.0,0.0,0.0,0.0,0.0,0.0,0.0,0.0,0.0,0.0,0.0,0.0,0.0,0.0,0.0,0.0,0.0,0.0,0.0,0.0,0.0,0.0,0.0,0.0,0.0,0.0,0.0,0.0,0.0,0.0,0.0,0.0,0.0,0.0,0.0,0.0,0.0,0.0,0.0,0.0,0.0,0.0,0.0,0.0,0.0,0.0,0.0,0.0,0.0,0.0,0.0,0.0,0.0,0.0,0.0,0.0,0.0,0.0,0.0,0.0,0.0,0.0,0.0,0.0,0.0,0.0,-1.2609,-1.2821,-1.2907,-1.2857,-1.2315,-1.1752,-1.1211,0.0,0.0,0.0,0.0,0.0,0.0,0.0,0.0,0.0,0.0,0.0,0.0,0.0,0.0,0.0,0.0,0.0,0.0,0.0,0.0,0.0,0.0,0.0,0.0,0.0,0.0,0.0,0.0,0.0,0.0,0.0,0.0,0.0,0.0,0.0,0.0,0.0,0.0,0.0,0.0,0.0,0.0,0.0,0.0,0.0,0.0,0.0,0.0,0.0,0.0,0.0,0.0,0.0,0.0,0.0,0.0,0.0,0.0,0.0,0.0,0.0,0.0,0.0,0.0,0.0,0.0,0.0,0.0,0.0,0.0,0.0,0.0,0.0,0.0,0.0,0.0,0.0,0.0,0.0,0.0,0.0,0.0,0.0,0.0,0.0,0.0,0.0,0.0,0.0,0.0,0.0,0.0,0.0,0.0,0.0,0.0,0.0,0.0,0.0,0.0,0.0,0.0,0.0,0.0,0.0,0.0,0.0,0.0,-1.3372,-1.3381,-1.3301,-1.3114,-1.2657,-1.203,0.0,0.0,0.0,0.0,0.0,0.0,0.0,0.0,0.0,0.0,0.0,0.0,0.0,0.0,0.0,0.0,0.0,0.0,0.0,0.0,0.0,0.0,0.0,0.0,0.0,0.0,0.0,0.0,0.0,0.0,0.0,0.0,0.0,0.0,0.0,0.0,0.0,0.0,0.0,0.0,0.0,0.0,0.0,0.0,0.0,0.0,0.0,0.0,0.0,0.0,0.0,0.0,0.0,0.0,0.0,0.0,0.0,0.0,0.0,0.0,0.0,0.0,0.0,0.0,0.0,0.0,0.0,0.0,0.0,0.0,0.0,0.0,0.0,0.0,0.0,0.0,0.0,0.0,0.0,0.0,0.0,0.0,0.0,0.0,0.0,0.0,0.0,0.0,0.0,0.0,0.0,0.0,0.0,0.0,0.0,0.0,0.0,0.0,0.0,0.0,0.0,0.0,0.0,0.0,0.0,0.0,0.0,0.0,0.0,-1.4298,-1.4317,-1.4035,-1.34,-1.2883,-1.2394,0.0,0.0,0.0,0.0,0.0,0.0,0.0,0.0,0.0,0.0,0.0,0.0,0.0,0.0,0.0,0.0,0.0,0.0,0.0,0.0,0.0,0.0,0.0,0.0,0.0,0.0,0.0,0.0,0.0,0.0,0.0,0.0,0.0,0.0,0.0,0.0,0.0,0.0,0.0,0.0,0.0,0.0,0.0,0.0,0.0,0.0,0.0,0.0,0.0,0.0,0.0,0.0,0.0,0.0,0.0,0.0,0.0,0.0,0.0,0.0,0.0,0.0,0.0,0.0,0.0,0.0,0.0,0.0,0.0,0.0,0.0,0.0,0.0,0.0,0.0,0.0,0.0,0.0,0.0,0.0,0.0,0.0,0.0,0.0,0.0,0.0,0.0,0.0,0.0,0.0,0.0,0.0,0.0,0.0,0.0,0.0,0.0,0.0,0.0,0.0,0.0,0.0,0.0,0.0,0.0,0.0,0.0,0.0,-1.3904,-1.4697,-1.4909,-1.4772,-1.4323,-1.3688,-1.2904,0.0,0.0,0.0,0.0,0.0,0.0,0.0,0.0,0.0,0.0,0.0,0.0,0.0,0.0,0.0,0.0,0.0,0.0,0.0,0.0,0.0,0.0,0.0,0.0,0.0,0.0,0.0,0.0,0.0,0.0,0.0,0.0,0.0,0.0,0.0,0.0,0.0,0.0,0.0,0.0,0.0,0.0,0.0,0.0,0.0,0.0,0.0,0.0,0.0,0.0,0.0,0.0,0.0,0.0,0.0,0.0,0.0,0.0,0.0,0.0,0.0,0.0,0.0,0.0,0.0,0.0,0.0,0.0,0.0,0.0,0.0,0.0,0.0,0.0,0.0,0.0,0.0,0.0,0.0,0.0,0.0,0.0,0.0,0.0,0.0,0.0,0.0,0.0,0.0,0.0,0.0,0.0,0.0,0.0,0.0,0.0,0.0,0.0,0.0,0.0,0.0,0.0,0.0,0.0,0.0,0.0,0.0,0.0,-1.4314,-1.4816,-1.5242,-1.5447,-1.542,-1.4669,-1.3487,0.0,0.0,0.0,0.0,0.0,0.0,0.0,0.0,0.0,0.0,0.0,0.0,0.0,0.0,0.0,0.0,0.0,0.0,0.0,0.0,0.0,0.0,0.0,0.0,0.0,0.0,0.0,0.0,0.0,0.0,0.0,0.0,0.0,0.0,0.0,0.0,0.0,0.0,0.0,0.0,0.0,0.0,0.0,0.0,0.0,0.0,0.0,0.0,0.0,0.0,0.0,0.0,0.0,0.0,0.0,0.0,0.0,0.0,0.0,0.0,0.0,0.0,0.0,0.0,0.0,0.0,0.0,0.0,0.0,0.0,0.0,0.0,0.0,0.0,0.0,0.0,0.0,0.0,0.0,0.0,0.0,0.0,0.0,0.0,0.0,0.0,0.0,0.0,0.0,0.0,0.0,0.0,0.0,0.0,0.0,0.0,0.0,0.0,0.0,0.0,0.0,0.0,0.0,0.0,0.0,0.0,0.0,0.0,-1.4446,-1.5468,-1.5745,-1.58,-1.5699,-1.4649,-1.3747,0.0,0.0,0.0,0.0,0.0,0.0,0.0,0.0,0.0,0.0,0.0,0.0,0.0,0.0,0.0,0.0,0.0,0.0,0.0,0.0,0.0,0.0,0.0,0.0,0.0,0.0,0.0,0.0,0.0,0.0,0.0,0.0,0.0,0.0,0.0,0.0,0.0,0.0,0.0,0.0,0.0,0.0,0.0,0.0,0.0,0.0,0.0,0.0,-0.623,0.0,0.0,0.0,0.0,0.0,0.0,0.0,0.0,0.0,0.0,0.0,0.0,0.0,0.0,0.0,0.0,0.0,0.0,0.0,0.0,0.0,0.0,0.0,0.0,0.0,0.0,0.0,0.0,0.0,0.0,0.0,0.0,0.0,0.0,0.0,0.0,0.0,0.0,0.0,0.0,0.0,0.0,0.0,0.0,0.0,0.0,0.0,0.0,0.0,0.0,0.0,0.0,0.0,0.0,0.0,0.0,0.0,0.0,0.0,-1.4864,-1.567,-1.6066,-1.6203,-1.6039,-1.4977,-1.4053,0.0,0.0,0.0,0.0,0.0,0.0,0.0,0.0,0.0,0.0,0.0,0.0,0.0,0.0,0.0,0.0,0.0,0.0,0.0,0.0,0.0,0.0,0.0,0.0,0.0,0.0,0.0,0.0,0.0,0.0,0.0,0.0,0.0,0.0,0.0,0.0,0.0,0.0,0.0,0.0,0.0,0.0,0.0,0.0,0.0,0.0,0.0,0.0,0.0,0.0,0.0,0.0,0.0,0.0,0.0,0.0,0.0,0.0,0.0,0.0,0.0,0.0,0.0,0.0,0.0,0.0,0.0,0.0,0.0,0.0,0.0,0.0,0.0,0.0,0.0,0.0,0.0,0.0,0.0,0.0,0.0,0.0,0.0,0.0,0.0,0.0,0.0,0.0,0.0,0.0,0.0,0.0,0.0,0.0,0.0,0.0,0.0,0.0,0.0,0.0,0.0,0.0,0.0,0.0,0.0,0.0,0.0,-1.4547,-1.5294,-1.5698,-1.6299,-1.6517,-1.6298,-1.5379,-1.4334,-1.3091,0.0,0.0,0.0,0.0,0.0,0.0,0.0,0.0,0.0,0.0,0.0,0.0,0.0,0.0,0.0,0.0,0.0,0.0,0.0,0.0,0.0,0.0,0.0,0.0,0.0,0.0,0.0,0.0,0.0,0.0,0.0,0.0,0.0,0.0,0.0,0.0,0.0,0.0,-0.5814,-0.6593,0.0,0.0,0.0,0.0,0.0,0.0,0.0,0.0,-0.7558,0.0,0.0,0.0,0.0,0.0,0.0,0.0,0.0,0.0,0.0,0.0,0.0,0.0,0.0,0.0,0.0,0.0,0.0,0.0,0.0,0.0,0.0,0.0,0.0,0.0,0.0,0.0,0.0,0.0,0.0,0.0,0.0,0.0,0.0,0.0,0.0,0.0,0.0,0.0,0.0,0.0,0.0,0.0,0.0,0.0,0.0,0.0,0.0,0.0,0.0,0.0,0.0,0.0,0.0,0.0,0.0,-1.3314,-1.4508,-1.5294,-1.5689,-1.6299,-1.6517,-1.6289,-1.5379,-1.4383,-1.3266,0.0,0.0,0.0,0.0,0.0,0.0,0.0,0.0,0.0,0.0,0.0,0.0,0.0,0.0,0.0,0.0,0.0,0.0,0.0,0.0,0.0,0.0,0.0,0.0,0.0,0.0,0.0,0.0,0.0,0.0,0.0,0.0,0.0,0.0,0.0,0.0,0.0,0.0,0.0,-0.7148,-0.7544,0.0,0.0,0.0,0.0,0.0,0.0,0.0,0.0,-0.7786,0.0,0.0,0.0,0.0,0.0,0.0,0.0,0.0,0.0,0.0,0.0,0.0,0.0,0.0,0.0,0.0,0.0,0.0,0.0,0.0,0.0,0.0,0.0,0.0,0.0,0.0,0.0,0.0,0.0,0.0,0.0,0.0,0.0,0.0,0.0,0.0,0.0,0.0,0.0,0.0,0.0,0.0,0.0,0.0,0.0,0.0,0.0,0.0,0.0,0.0,0.0,0.0,0.0,0.0,0.0,-1.3414,-1.471,-1.5496,-1.5707,-1.6376,-1.6621,-1.6298,-1.5479,-1.4481,0.0,0.0,0.0,0.0,0.0,0.0,0.0,0.0,0.0,0.0,0.0,0.0,0.0,0.0,0.0,0.0,0.0,0.0,0.0,0.0,0.0,0.0,0.0,0.0,0.0,0.0,0.0,0.0,0.0,0.0,0.0,0.0,0.0,0.0,0.0,0.0,0.0,0.0,0.0,0.0,-0.7776,-0.827,-0.8538,0.0,0.0,0.0,0.0,0.0,0.0,-0.8452,-0.8312,0.0,0.0,0.0,0.0,0.0,0.0,0.0,0.0,0.0,0.0,0.0,0.0,0.0,0.0,0.0,0.0,0.0,0.0,0.0,0.0,0.0,0.0,0.0,0.0,0.0,0.0,0.0,0.0,0.0,0.0,0.0,0.0,0.0,0.0,0.0,0.0,0.0,0.0,0.0,0.0,0.0,0.0,0.0,0.0,0.0,0.0,0.0,0.0,0.0,0.0,0.0,0.0,0.0,0.0,0.0,-1.3559,-1.5016,-1.5785,-1.579,-1.6554,-1.676,-1.6359,-1.563,-1.4554,0.0,0.0,0.0,0.0,0.0,0.0,0.0,0.0,0.0,0.0,0.0,0.0,0.0,0.0,0.0,0.0,0.0,0.0,0.0,0.0,0.0,0.0,0.0,0.0,0.0,0.0,0.0,0.0,0.0,0.0,0.0,0.0,0.0,0.0,0.0,0.0,0.0,0.0,0.0,0.0,0.0,-0.8911,-0.9251,-0.9532,0.0,0.0,0.0,0.0,-0.9331,-0.9132,0.0,0.0,0.0,0.0,0.0,0.0,0.0,0.0,0.0,0.0,0.0,0.0,0.0,0.0,0.0,0.0,0.0,0.0,0.0,0.0,0.0,0.0,0.0,0.0,0.0,0.0,0.0,0.0,0.0,0.0,0.0,0.0,0.0,0.0,0.0,0.0,0.0,0.0,0.0,0.0,0.0,0.0,0.0,0.0,0.0,0.0,0.0,0.0,0.0,0.0,0.0,0.0,0.0,0.0,0.0,0.0,-1.3693,-1.5309,-1.6064,-1.5919,-1.6713,-1.6994,-1.6559,-1.5688,-1.4626,0.0,0.0,0.0,0.0,0.0,0.0,0.0,0.0,0.0,0.0,0.0,0.0,0.0,0.0,0.0,0.0,0.0,0.0,0.0,0.0,0.0,0.0,0.0,0.0,0.0,0.0,0.0,0.0,0.0,0.0,0.0,0.0,0.0,0.0,0.0,0.0,0.0,0.0,0.0,0.0,0.0,-0.9005,-0.9559,-0.9659,-0.9715,0.0,0.0,-0.9702,-0.9639,-0.9635,0.0,0.0,0.0,0.0,0.0,0.0,0.0,0.0,0.0,0.0,0.0,0.0,0.0,0.0,0.0,0.0,0.0,0.0,0.0,0.0,0.0,0.0,0.0,0.0,0.0,0.0,0.0,0.0,0.0,0.0,0.0,0.0,0.0,0.0,0.0,0.0,0.0,0.0,0.0,0.0,0.0,0.0,0.0,0.0,0.0,0.0,0.0,0.0,0.0,0.0,0.0,0.0,0.0,0.0,0.0,-1.3119,-1.4217,-1.5524,-1.6292,-1.6482,-1.6945,-1.7063,-1.6786,-1.5755,-1.4658,0.0,0.0,0.0,0.0,0.0,0.0,0.0,0.0,0.0,0.0,0.0,0.0,0.0,0.0,0.0,0.0,0.0,0.0,0.0,0.0,0.0,0.0,0.0,0.0,0.0,0.0,0.0,0.0,0.0,0.0,0.0,0.0,0.0,0.0,0.0,0.0,0.0,0.0,0.0,0.0,0.0,0.0,-1.0131,-1.0352,0.0,0.0,0.0,-1.0675,-1.0668,0.0,0.0,0.0,0.0,0.0,0.0,0.0,0.0,0.0,0.0,0.0,0.0,0.0,0.0,0.0,0.0,0.0,0.0,0.0,0.0,0.0,0.0,0.0,0.0,0.0,0.0,0.0,0.0,0.0,0.0,0.0,0.0,0.0,0.0,0.0,0.0,0.0,0.0,0.0,0.0,0.0,0.0,0.0,0.0,0.0,0.0,0.0,0.0,0.0,0.0,0.0,0.0,0.0,0.0,0.0,0.0,0.0,-1.4636,-1.5741,-1.6539,-1.6945,-1.7209,-1.7235,-1.6959,-1.5864,0.0,0.0,0.0,0.0,0.0,0.0,0.0,0.0,0.0,0.0,0.0,0.0,0.0,0.0,0.0,0.0,0.0,0.0,0.0,0.0,0.0,0.0,0.0,0.0,0.0,0.0,0.0,-0.4615,0.0,0.0,0.0,0.0,0.0,0.0,0.0,0.0,0.0,0.0,0.0,0.0,0.0,0.0,-1.0117,-1.0633,-1.0915,-1.1182,0.0,0.0,-1.143,-1.143,-1.1062,-1.078,0.0,0.0,0.0,0.0,0.0,0.0,0.0,0.0,0.0,0.0,0.0,0.0,0.0,0.0,0.0,0.0,0.0,0.0,0.0,0.0,0.0,0.0,0.0,0.0,0.0,0.0,0.0,0.0,0.0,0.0,0.0,0.0,0.0,0.0,0.0,0.0,0.0,0.0,0.0,0.0,0.0,0.0,0.0,0.0,0.0,0.0,0.0,0.0,0.0,0.0,0.0,0.0,0.0,0.0,0.0,-1.4795,-1.6034,-1.6805,-1.7081,-1.7461,-1.7501,-1.7182,-1.6077,-1.4966,0.0,0.0,0.0,0.0,0.0,0.0,0.0,0.0,0.0,0.0,0.0,0.0,0.0,0.0,0.0,0.0,0.0,0.0,0.0,0.0,0.0,0.0,0.0,0.0,0.0,0.0,0.0,0.0,0.0,0.0,0.0,0.0,0.0,0.0,0.0,0.0,0.0,0.0,0.0,0.0,0.0,-1.0646,-1.0922,-1.1216,-1.1375,0.0,0.0,-1.143,-1.143,-1.1362,-1.1242,-1.1009,0.0,0.0,0.0,0.0,0.0,0.0,0.0,0.0,0.0,0.0,0.0,0.0,0.0,0.0,0.0,0.0,0.0,0.0,0.0,0.0,0.0,0.0,0.0,0.0,0.0,0.0,0.0,0.0,0.0,0.0,0.0,0.0,0.0,0.0,0.0,0.0,0.0,0.0,0.0,0.0,0.0,0.0,0.0,0.0,0.0,0.0,0.0,0.0,0.0,0.0,0.0,0.0,0.0,-1.4053,-1.5166,-1.6171,-1.7006,-1.7634,-1.7663,-1.7613,-1.7392,-1.6483,-1.5486,0.0,0.0,0.0,0.0,0.0,0.0,0.0,0.0,0.0,0.0,0.0,0.0,0.0,0.0,0.0,0.0,0.0,0.0,0.0,0.0,0.0,0.0,0.0,0.0,0.0,0.0,0.0,0.0,-0.5729,-0.59,-0.5997,0.0,0.0,0.0,0.0,0.0,0.0,0.0,0.0,0.0,0.0,-1.0888,-1.1718,-1.1891,0.0,0.0,-1.2488,-1.2458,-1.2301,-1.2084,-1.187,-1.1611,-1.1323,0.0,0.0,0.0,0.0,0.0,0.0,0.0,0.0,0.0,0.0,0.0,0.0,0.0,0.0,0.0,0.0,0.0,0.0,0.0,0.0,0.0,0.0,0.0,0.0,0.0,0.0,0.0,0.0,0.0,0.0,0.0,0.0,0.0,0.0,0.0,0.0,0.0,0.0,0.0,0.0,0.0,0.0,0.0,0.0,0.0,0.0,0.0,0.0,0.0,0.0,0.0,0.0,-1.4289,-1.5596,-1.6326,-1.7184,-1.8139,-1.8046,-1.7873,-1.7675,-1.6996,-1.6004,0.0,0.0,0.0,0.0,0.0,0.0,0.0,0.0,0.0,0.0,0.0,0.0,0.0,0.0,0.0,0.0,0.0,0.0,0.0,0.0,0.0,0.0,0.0,0.0,0.0,0.0,0.0,0.0,-0.6142,-0.6324,-0.6305,0.0,0.0,0.0,0.0,0.0,0.0,0.0,0.0,0.0,0.0,-1.141,-1.2184,-1.2452,-1.2726,-1.3153,-1.3206,-1.3133,-1.2958,-1.267,-1.2331,-1.2044,0.0,0.0,0.0,0.0,0.0,0.0,0.0,0.0,0.0,0.0,0.0,0.0,0.0,0.0,0.0,0.0,0.0,0.0,0.0,0.0,0.0,0.0,0.0,0.0,0.0,0.0,0.0,0.0,0.0,0.0,-0.8958,0.0,0.0,0.0,0.0,0.0,0.0,0.0,0.0,0.0,0.0,0.0,0.0,0.0,0.0,0.0,0.0,0.0,0.0,0.0,0.0,0.0,0.0,-1.4766,-1.6056,-1.6523,-1.733,-1.8529,-1.8588,-1.8421,-1.8093,-1.7565,-1.6474,-1.4756,0.0,0.0,0.0,0.0,0.0,0.0,0.0,0.0,0.0,0.0,0.0,0.0,0.0,0.0,0.0,0.0,0.0,0.0,0.0,0.0,0.0,0.0,0.0,0.0,0.0,0.0,-0.6169,-0.6432,-0.6613,0.0,0.0,0.0,0.0,0.0,0.0,0.0,0.0,0.0,0.0,-1.1578,-1.2271,-1.2318,-1.2812,-1.3233,-1.3227,-1.322,-1.3213,-1.3206,-1.2985,-1.2677,0.0,0.0,0.0,0.0,0.0,0.0,0.0,0.0,0.0,0.0,0.0,0.0,0.0,0.0,0.0,0.0,0.0,0.0,0.0,0.0,0.0,0.0,0.0,0.0,0.0,0.0,0.0,-1.117,-1.0909,0.0,0.0,0.0,0.0,0.0,0.0,0.0,0.0,0.0,0.0,0.0,-1.4775,-1.4912,0.0,0.0,0.0,0.0,0.0,0.0,0.0,0.0,0.0,0.0,0.0,0.0,-1.5332,-1.6105,-1.707,-1.7896,-1.8578,-1.8916,-1.8882,-1.851,-1.805,-1.6742,-1.4434,0.0,0.0,0.0,0.0,0.0,0.0,0.0,0.0,0.0,0.0,0.0,0.0,0.0,0.0,0.0,0.0,0.0,0.0,0.0,0.0,0.0,0.0,0.0,0.0,0.0,-0.6413,0.0,0.0,0.0,0.0,0.0,0.0,0.0,0.0,0.0,0.0,0.0,-1.0521,-1.0841,-1.183,-1.2713,-1.3063,-1.359,-1.4,0.0,0.0,0.0,0.0,0.0,0.0,0.0,0.0,0.0,0.0,0.0,0.0,0.0,0.0,-1.2128,-1.1305,-1.1129,-1.1129,-1.1153,0.0,0.0,0.0,0.0,0.0,0.0,0.0,0.0,0.0,0.0,0.0,0.0,0.0,0.0,-1.2949,0.0,-1.2093,0.0,0.0,0.0,0.0,0.0,0.0,0.0,0.0,-1.5332,-1.5762,-1.6278,-1.6318,-1.6318,0.0,-1.6172,-1.5449,0.0,0.0,0.0,0.0,0.0,0.0,0.0,0.0,-1.585,-1.676,-1.7578,-1.8359,-1.9017,-1.9355,-1.9354,-1.9049,-1.8192,-1.6824,-1.4931,-1.3257,-1.1805,0.0,0.0,0.0,0.0,0.0,0.0,0.0,0.0,0.0,0.0,0.0,0.0,0.0,0.0,0.0,0.0,0.0,0.0,0.0,0.0,0.0,0.0,0.0,-0.7134,0.0,0.0,0.0,0.0,0.0,0.0,0.0,0.0,0.0,-0.9412,-1.0258,-1.1026,-1.1526,-1.2451,-1.3258,-1.371,0.0,0.0,0.0,0.0,0.0,0.0,0.0,-1.4298,-1.4207,-1.4182,-1.4226,-1.4532,-1.4572,-1.4523,-1.4309,0.0,0.0,-1.2635,-1.2378,-1.2412,-1.248,-1.2909,-1.3266,-1.3417,-1.3667,-1.3933,0.0,0.0,0.0,0.0,0.0,0.0,0.0,0.0,-1.5068,-1.4911,0.0,-1.3975,0.0,0.0,0.0,0.0,0.0,-1.4687,0.0,0.0,-1.6775,-1.7223,-1.8027,-1.8076,-1.8086,-1.8047,-1.7656,-1.7217,-1.6687,-1.5518,0.0,0.0,0.0,0.0,0.0,0.0,-1.6287,-1.792,-1.8066,-1.8682,-1.9844,-1.9922,-1.9866,-1.9648,-1.7999,-1.6788,-1.607,-1.4245,-1.2745,-1.1672,-1.0231,0.0,0.0,0.0,0.0,0.0,0.0,0.0,0.0,0.0,0.0,0.0,0.0,0.0,0.0,0.0,0.0,0.0,0.0,0.0,0.0,-0.7572,0.0,0.0,0.0,0.0,0.0,0.0,0.0,0.0,0.0,0.0,-1.0703,-1.1064,-1.1689,-1.2556,0.0,0.0,0.0,0.0,-1.4755,-1.4755,-1.4762,-1.4776,-1.4818,-1.4565,-1.4522,-1.481,0.0,0.0,-1.5718,-1.6061,-1.617,-1.6219,-1.6147,-1.5723,-1.4223,-1.3909,-1.3952,-1.4185,-1.4476,-1.4659,-1.469,-1.4927,-1.5187,-1.9171,0.0,0.0,0.0,0.0,-1.7266,-1.7266,-1.7256,-1.7148,-1.6924,-1.6602,-1.6064,0.0,0.0,0.0,0.0,0.0,0.0,-1.7168,-1.8061,-1.8408,-1.8848,-1.9375,-1.9725,-1.9678,-1.9365,-1.9248,-1.8809,-1.8061,-1.7681,-1.6689,-1.5088,0.0,0.0,0.0,0.0,-1.7519,-1.8027,-1.8906,-1.9541,-1.9902,-2.0215,-2.0091,-1.9431,-1.8387,-1.7333,-1.6342,-1.5004,-1.3754,-1.2565,-1.1221,0.0,0.0,0.0,0.0,0.0,0.0,0.0,0.0,0.0,0.0,0.0,0.0,0.0,0.0,0.0,0.0,0.0,0.0,0.0,-0.7909,-0.815,-0.838,0.0,0.0,0.0,0.0,0.0,0.0,0.0,0.0,0.0,-1.2179,-1.2339,-1.2527,0.0,0.0,-1.4389,-1.4515,-1.5082,-1.5554,-1.5554,-1.5914,0.0,0.0,-1.6232,-1.6331,-1.6428,-1.6404,-1.646,-1.668,-1.6782,-1.6868,-1.6868,-1.6868,-1.673,-1.6476,-1.5934,-1.5602,-1.5642,-1.584,-1.6021,-1.6052,-1.6304,-1.6569,-2.2058,-2.0145,-1.9446,-1.9121,-1.9157,-1.9059,-1.9023,-1.9023,-1.9023,-1.8779,-1.8359,-1.7939,-1.75,-1.7061,-1.6631,0.0,0.0,0.0,-1.8594,-1.9414,-1.9853,-2.0283,-2.0693,-2.0967,-2.0947,-2.0684,-2.0479,-2.0128,-1.9621,-1.927,-1.8461,-1.7227,0.0,0.0,-1.7132,-1.7861,-1.8428,-1.8779,-1.9485,-2.0,-2.0166,-2.0468,-2.0294,-1.9697,-1.8967,-1.8101,-1.709,-1.5903,-1.4744,-1.3637,-1.2306,-1.1087,0.0,0.0,0.0,0.0,0.0,0.0,0.0,0.0,0.0,0.0,0.0,-0.5939,0.0,0.0,0.0,0.0,-0.756,-0.8068,-0.8761,-0.9002,0.0,0.0,0.0,0.0,0.0,0.0,0.0,-1.1727,-1.2054,-1.2501,-1.3256,-1.3638,-1.3789,-1.3606,-1.4213,-1.4866,-1.5194,0.0,-1.6122,-1.6334,-1.6695,-1.6911,-1.6911,-1.7028,-1.7154,-1.7299,-1.7526,-1.7655,-1.7655,-1.77,-1.779,-1.7782,-1.7872,-1.7969,-1.8155,-1.7799,-1.7368,-1.6954,-1.697,-1.7095,-1.7103,-1.7238,-1.7422,-2.4821,-2.3731,-2.204,-2.1212,-2.1014,-2.082,-2.0742,-2.0752,-2.0742,-2.0517,-2.0087,-1.9693,-1.9235,-1.8769,-1.8389,0.0,-1.8822,-1.9268,-1.992,-2.0723,-2.1133,-2.1553,-2.1924,-2.1963,-2.1973,-2.1924,-2.1523,-2.1278,-2.119,-2.0459,-2.0068,-2.0039,-1.8896,-1.8412,-1.8646,-1.8685,-1.9085,-1.9902,-1.9951,-2.0166,-2.0595,-2.0615,-2.0498,-2.0294,-1.9669,-1.8967,-1.8119,-1.6884,-1.5748,-1.4784,-1.3448,-1.2184,-1.1079,0.0,0.0,0.0,0.0,0.0,0.0,0.0,0.0,0.0,0.0,0.0,0.0,0.0,0.0,0.0,-0.8573,0.0,-0.9632,-1.0057,0.0,0.0,0.0,-1.1071,-1.1666,-1.1784,-1.21,-1.284,0.0,0.0,-1.4056,-1.4803,-1.5182,-1.4767,-1.4877,-1.5356,-1.6202,-1.638,-1.6558,-1.7079,-1.7184,-1.7251,-1.7268,-1.7341,-1.753,-1.7809,-1.8217,-1.8573,-1.8581,-1.8711,-1.8866,-1.8826,-1.9042,-1.9217,-1.9225,-1.9306,-1.9282,-1.8145,-1.7954,-1.7954,-1.7978,-1.7994,-1.801,-2.6372,-2.5885,-2.5286,-2.3915,-2.2231,-2.215,-2.211,-2.215,-2.21,-2.204,-2.191,-2.146,-2.0932,-2.0325,-2.0113,-2.0205,-2.0586,-2.0723,-2.1064,-2.1592,-2.2012,-2.2266,-2.2373,-2.2643,-2.2676,-2.2373,-2.2266,-2.2051,-2.1738,-2.1523,-2.1416,-2.1406,-2.1113,-2.0352,-1.9189,-1.9453,-1.9707,-1.9912,-2.0244,-2.0498,-2.0605,-2.0615,-2.0498,-2.0303,-1.9822,-1.9174,-1.8341,-1.7587,-1.6597,-1.5364,-1.4101,-1.306,-1.2232,-1.0756,0.0,0.0,0.0,0.0,0.0,0.0,0.0,0.0,0.0,-0.7209,-0.7779,0.0,-0.8479,0.0,-0.9869,-1.0536,-1.1031,-1.122,0.0,0.0,-1.2058,-1.235,-1.2849,-1.3267,-1.368,-1.4095,-1.4434,-1.4765,-1.5144,-1.5405,-1.5594,-1.5729,-1.6027,-1.6289,-1.6505,-1.6997,-1.7325,-1.7498,-1.7901,-1.8178,-1.8155,-1.849,-1.8763,-1.9066,-1.9255,-1.9358,-1.9358,-1.9358,-1.9396,-1.9396,-1.9442,-1.9533,-1.9487,-1.9541,-1.9538,-1.922,-1.9187,-1.9187,-1.9179,-1.9126,-1.9179,-2.7749,-2.743,-2.7059,-2.6034,-2.4512,-2.4096,-2.3925,-2.3904,-2.3584,-2.336,-2.3148,-2.2483,-2.202,-2.163,-2.1561,-2.158,-2.1645,-2.1842,-2.2114,-2.2451,-2.2881,-2.3174,-2.3315,-2.3408,-2.331,-2.3076,-2.2881,-2.2623,-2.2441,-2.2256,-2.2168,-2.2168,-2.1973,-2.1406,-2.0488,-2.0674,-2.0791,-2.0791,-2.084,-2.0762,-2.0625,-2.0615,-2.0527,-2.0411,-2.012,-1.964,-1.8995,-1.8193,-1.736,-1.6419,-1.5135,-1.4103,-1.3465,-1.2025,-1.0988,0.0,0.0,0.0,0.0,0.0,0.0,0.0,0.0,0.0,0.0,0.0,-0.966,-1.0466,-1.0937,-1.1493,-1.2222,-1.2313,-1.2623,-1.326,-1.3418,-1.3652,-1.4056,-1.4364,-1.4682,-1.5019,-1.5226,-1.5463,-1.5913,-1.6048,-1.6246,-1.6721,-1.7143,-1.7372,-1.7196,-1.7565,-1.8036,-1.8427,-1.877,-1.899,-1.899,-1.9212,-1.9433,-1.9587,-1.9587,-1.9587,-1.9587,-1.9587,-1.9587,-1.9587,-1.9671,-1.9716,-1.9762,-1.9853,-1.9899,-1.9936,-2.0027,-1.9945,-1.9671,-1.9587,-1.9587,-2.9,-2.8577,-2.8134,-2.7759,-2.7233,-2.6424,-2.5943,-2.5673,-2.508,-2.4571,-2.4155,-2.3343,-2.3009,-2.2968,-2.2926,-2.2802,-2.2603,-2.3033,-2.3219,-2.332,-2.3746,-2.4118,-2.4394,-2.4043,-2.3867,-2.3848,-2.3432,-2.3218,-2.3169,-2.2808,-2.2646,-2.2578,-2.2227,-2.2051,-2.2051,-2.2051,-2.1992,-2.1885,-2.1455,-2.1045,-2.0703,-2.0635,-2.0615,-2.0605,-2.042,-2.0149,-1.9696,-1.8779,-1.8092,-1.7578,-1.6218,-1.5256,-1.4696,-1.3474,-1.2414,0.0,-1.1173,0.0,0.0,0.0,0.0,0.0,0.0,0.0,0.0,-1.0407,-1.1022,-1.1888,-1.2092,-1.2473,-1.3297,-1.3456,-1.3816,-1.4553,-1.4712,-1.4873,-1.5204,-1.5289,-1.5459,-1.5814,-1.5845,-1.6002,-1.6462,-1.6689,-1.6981,-1.7527,-1.8046,-1.8284,-1.8128,-1.8293,-1.8728,-1.9509,-1.9587,-1.9496,-1.9587,-1.9625,-1.9671,-1.9679,-1.9725,-1.9671,-1.9725,-1.9716,-1.9716,-1.9762,-1.9936,-2.0019,-2.0019,-2.0246,-2.0382,-2.0382,-2.0564,-2.0482,-1.9945,-1.9853,-1.9762,-3.0034,-2.9602,-2.9522,-2.9317,-2.8977,-2.8622,-2.7683,-2.6491,-2.6317,-2.6088,-2.5816,-2.5451,-2.5211,-2.5009,-2.482,-2.4686,-2.4641,-2.4721,-2.4666,-2.4463,-2.4542,-2.4529,-2.4414,-2.4336,-2.4307,-2.4287,-2.4173,-2.4004,-2.3672,-2.3594,-2.3379,-2.2984,-2.2896,-2.29,-2.2857,0.0,0.0,0.0,-2.1455,-2.1151,-2.1064,-2.0752,-2.0615,-2.0615,-2.0566,0.0,-1.9716,-1.9496,-1.8976,-1.8018,-1.7008,0.0,0.0,0.0,0.0,0.0,0.0,0.0,0.0,0.0,0.0,0.0,-1.2685,-1.2325,-1.1944,-1.2525,-1.3248,-1.3958,-1.4041,-1.4244,-1.4668,-1.4752,-1.4843,-1.4996,-1.5272,-1.5644,-1.6031,-1.6355,-1.669,-1.7001,-1.7041,-1.7106,-1.718,-1.7229,-1.7458,-1.7945,-1.8258,-1.8667,-1.9054,-1.9224,-1.9405,-1.9579,-1.9671,-1.9671,-1.9799,-1.9891,-1.9982,-2.0073,-2.0155,-2.0164,-2.0164,-2.0164,-2.0246,-2.0428,-2.0518,-2.0609,-2.0736,-2.0862,-2.0817,-2.0862,-2.0907,-2.0862,-2.0572,-2.0609,-2.0736,-3.0646,0.0,-3.0284,-3.0182,0.0,-2.9634,-2.9045,-2.8228,-2.748,-2.6939,-2.6491,-2.6357,-2.6177,-2.5916,-2.5815,-2.5589,-2.5427,-2.5427,-2.5355,-2.5305,-2.5305,-2.5275,-2.5238,-2.5031,-2.4886,-2.4727,-2.4521,-2.4307,-2.4102,-2.4102,-2.3877,-2.3422,-2.3467,-2.3305,-2.3101,-2.3101,-2.2832,-2.2197,-2.1931,-2.1768,-2.1543,-2.1123,-2.0889,-2.0889,0.0,0.0,0.0,0.0,0.0,0.0,0.0,0.0,0.0,0.0,0.0,-1.5044,-1.4605,-1.437,-1.428,-1.4172,-1.4296,-1.47,-1.4806,-1.4466,-1.3569,-1.3859,-1.43,-1.4797,-1.4919,-1.518,-1.5639,-1.5787,-1.5929,-1.6182,-1.6396,-1.6644,-1.6846,-1.6999,-1.7194,-1.7342,-1.7392,-1.7531,-1.7919,-1.7977,-1.8354,-1.9076,-1.9367,-1.966,-2.0057,-1.9946,-1.9853,-2.0073,-2.0246,-2.0329,-2.0428,-2.0464,-2.0464,-2.0645,-2.0645,-2.0645,-2.0645,-2.0645,-2.0682,-2.0826,-2.0826,-2.0862,-2.0952,-2.0997,-2.0997,-2.0997,-2.1087,-2.115,-2.1069,-2.1006,-2.0997,-3.1234,-3.1107,-3.0847,-3.0713,-3.0634,-3.0239,-3.0068,-2.9943,0.0,0.0,0.0,-2.7072,-2.6926,-2.6599,-2.6599,-2.6372,-2.5982,-2.5982,-2.5982,-2.599,-2.6,-2.6049,-2.6167,-2.5839,-2.5565,-2.5308,-2.4908,-2.4656,-2.4587,-2.4531,-2.4316,-2.3935,-2.3828,-2.3574,-2.313,-2.3101,-2.2925,-2.2594,-2.2549,-2.2344,-2.2002,-2.1572,-2.1307,-2.1317,-2.0918,-2.0713,-2.0723,-2.0168,-1.984,-1.9783,-1.8883,-1.8341,-1.8267,-1.7486,-1.7016,-1.6934,-1.6508,-1.627,-1.627,-1.6039,-1.6058,-1.6397,-1.6594,-1.6239,-1.5078,-1.5009,-1.5149,-1.549,-1.567,-1.5944,-1.6445,-1.662,-1.6933,-1.7359,-1.7432,-1.7505,-1.7514,-1.7662,-1.7785,-1.7744,-1.7852,-1.8102,-1.8723,-1.8849,-1.9193,-2.0209,-2.0403,-2.0624,-2.0855,-2.0501,-2.0292,-2.0645,-2.0772,-2.0952,-2.0997,-2.0952,-2.0997,-2.0952,-2.0952,-2.0997,-2.0997,-2.0997,-2.1042,-2.1051,-2.1096,-2.1096,-2.1132,-2.1177,-2.1132,-2.1132,-2.1329,-2.1526,-2.1526,-2.1374,-2.1275,-3.2159,-3.1572,-3.1306,-3.1095,-3.0927,-3.0883,-3.0703,-3.0431,-2.9601,-2.8973,-2.8514,-2.8514,-2.8225,-2.776,-2.7749,-2.7619,-2.7301,-2.7301,-2.7107,-2.6751,-2.6751,-2.6638,-2.6448,-2.6388,-2.6358,-2.63,-2.599,-2.5666,-2.535,-2.5122,-2.4756,-2.4336,-2.3975,-2.3574,-2.313,-2.3101,-2.3062,-2.3003,-2.2662,-2.248,-2.2422,-2.2012,-2.1797,-2.1777,-2.1377,-2.1103,-2.1093,-2.0713,-2.0401,-2.0207,-1.9736,-1.9317,-1.8966,-1.8518,-1.8184,-1.7981,-1.7759,-1.7612,-1.7612,-1.7445,-1.7389,-1.7544,-1.7994,-1.7814,-1.6686,-1.6573,-1.6729,-1.7033,-1.7041,-1.713,-1.7236,-1.7277,-1.7383,-1.7449,-1.7733,-1.7919,-1.7961,-1.8544,-1.8982,-1.8982,-1.9347,-1.9532,-1.9645,-1.9713,-1.9881,-2.0376,-2.0685,-2.0686,-2.098,-2.0907,-2.0862,-2.0952,-2.0997,-2.0997,-2.1042,-2.0997,-2.1042,-2.0997,-2.1042,-2.1042,-2.1042,-2.1042,-2.1132,-2.1293,-2.1347,-2.1383,-2.1553,-2.1597,-2.1597,-2.1597,-2.183,-2.1963,-2.1972,-2.2043,-2.2033,-3.2804,-3.2483,-3.2059,-3.1761,-3.1496,-3.1273,-3.105,-3.0781,-3.0454,-2.9954,-2.9416,-2.9266,-2.8932,-2.8466,-2.842,-2.8196,-2.782,-2.7809,-2.7631,-2.7272,-2.7272,-2.7081,-2.6747,-2.6709,-2.6651,-2.6496,-2.64,-2.6194,-2.6014,-2.5909,-2.5632,-2.5149,-2.4621,-2.4142,-2.3703,-2.354,-2.3389,-2.3101,-2.2906,-2.2808,-2.2799,-2.2441,-2.2227,-2.2217,-2.1816,-2.1592,-2.1582,-2.1387,-2.1132,-2.0779,-2.0507,-2.0177,-1.9783,-1.9449,-1.923,-1.9144,-1.9039,-1.9,-1.9,-1.8903,-1.8877,-1.8938,-1.9158,-1.9094,-1.8581,-1.7999,-1.7588,-1.7441,-1.7595,-1.7792,-1.8018,-1.8299,-1.8508,-1.8747,-1.8939,-1.9014,-1.9073,-1.932,-1.9611,-1.9629,-1.9762,-2.0,-2.0352,-2.0379,-2.0609,-2.1031,-2.1245,-2.1415,-2.1561,-2.1678,-2.1579,-2.1329,-2.1329,-2.1365,-2.1374,-2.1365,-2.1365,-2.1365,-2.1365,-2.1365,-2.1365,-2.1365,-2.1463,-2.1517,-2.1571,-2.1651,-2.1874,-2.1919,-2.1963,-2.2087,-2.2176,-2.2264,-2.2264,-2.2353,-2.2309,-3.3572,-3.3424,-3.285,-3.2411,-3.2038,-3.1629,-3.1362,-3.1208,-3.1107,-3.0748,-3.0205,-2.9863,-2.9451,-2.9035,-2.8989,-2.8653,-2.8222,-2.8175,-2.7998,-2.7726,-2.7678,-2.7441,-2.7081,-2.7034,-2.6938,-2.6699,-2.6602,-2.6592,-2.6602,-2.6544,-2.6265,-2.5795,-2.5295,-2.4824,-2.4396,-2.4117,-2.3757,-2.3355,-2.3227,-2.3144,-2.3081,-2.2769,-2.2613,-2.2627,-2.2256,-2.2031,-2.2021,-2.1943,-2.1728,-2.1406,-2.1205,-2.097,-2.071,-2.0474,-2.0345,-2.0345,-2.0305,-2.0265,-2.0195,-2.0205,-2.0191,-2.0156,-2.0222,-2.0189,-1.992,-1.9321,-1.8616,-1.811,-1.8282,-1.8599,-1.8873,-1.9175,-1.9558,-1.9842,-1.9963,-1.9927,-1.9963,-2.0077,-2.0182,-2.0267,-2.0348,-2.0632,-2.0998,-2.1176,-2.1374,-2.1763,-2.2043,-2.2141,-2.2176,-2.2309,-2.2132,-2.183,-2.1741,-2.1874,-2.1874,-2.1874,-2.1865,-2.1865,-2.1865,-2.1865,-2.1865,-2.1865,-2.1865,-2.1865,-2.1865,-2.1963,-2.2141,-2.2185,-2.222,-2.2299,-2.2441,-2.252,-2.2574,-2.2574,-2.252,-3.4723,-3.4206,-3.3481,-3.283,-3.2381,-3.2038,-3.1906,-3.1862,-3.1439,-3.1273,-3.1083,-3.0442,-3.0,-2.9794,-2.9542,-2.9163,-2.8746,-2.871,-2.8466,-2.7998,-2.7951,-2.7809,-2.7547,-2.7547,-2.7441,-2.7214,-2.6986,-2.6842,-2.6842,-2.6651,-2.6275,-2.5826,-2.5735,-2.5504,-2.5128,-2.4681,-2.4326,-2.4098,-2.3658,-2.3319,-2.3091,-2.3062,-2.3042,-2.3033,-2.2633,-2.2451,-2.2451,-2.208,-2.1875,-2.1826,-2.1836,-2.1807,-2.1707,-2.1707,-2.1717,-2.1656,-2.1523,-2.1358,-2.111,-2.1097,-2.0987,-2.0876,-2.1135,-2.101,-2.0334,-2.0447,-2.0327,-1.9818,-1.9687,-1.966,-1.9782,-1.9825,-1.9954,-2.0095,-2.0189,-2.0192,-2.0325,-2.0671,-2.1053,-2.1312,-2.1556,-2.1985,-2.2054,-2.2108,-2.2189,-2.2236,-2.2299,-2.2397,-2.2397,-2.2432,-2.2432,-2.2353,-2.2353,-2.2309,-2.2309,-2.2353,-2.2264,-2.2299,-2.2299,-2.2264,-2.2264,-2.2264,-2.2353,-2.222,-2.2264,-2.2309,-2.2353,-2.2397,-2.2397,-2.2476,-2.2618,-2.2794,-2.2969,-2.3013,-2.2872,-3.5232,-3.4994,-3.4354,-3.366,-3.3032,-3.2479,-3.2213,-3.2213,-3.1862,-3.1717,-3.1629,-3.1071,-3.0589,-3.0102,-2.9943,-2.9669,-2.9209,-2.9035,-2.8792,-2.8466,-2.8337,-2.8102,-2.7857,-2.7809,-2.7726,-2.7489,-2.7357,-2.7262,-2.7129,-2.7023,-2.6873,-2.6662,-2.6557,-2.6239,-2.5803,-2.5426,-2.5123,-2.4826,-2.4591,-2.4292,-2.3757,-2.3315,-2.3101,-2.3081,-2.2935,-2.2838,-2.2828,-2.2705,-2.251,-2.2285,-2.2256,-2.2148,-2.1936,-2.1936,-2.1936,-2.1885,-2.1834,-2.1774,-2.1805,-2.1782,-2.1802,-2.1782,-2.1951,-2.1883,-2.1578,-2.1655,-2.162,-2.1348,-2.0592,-2.0137,-2.0404,-2.0526,-2.0746,-2.1129,-2.1289,-2.1323,-2.1506,-2.1724,-2.1905,-2.202,-2.2152,-2.2309,-2.2397,-2.2397,-2.2397,-2.2432,-2.252,-2.2627,-2.2618,-2.275,-2.2828,-2.2838,-2.2838,-2.2696,-2.2485,-2.2397,-2.2388,-2.2388,-2.2397,-2.2397,-2.2441,-2.2397,-2.2397,-2.2397,-2.2441,-2.2485,-2.2627,-2.2618,-2.2662,-2.274,-2.2828,-2.3003,-2.3091,-2.3101,-2.3003,-3.5768,-3.568,-3.5119,-3.4402,-3.355,-3.2945,-3.2611,-3.2431,-3.2213,-3.2125,-3.2081,-3.1673,-3.116,-3.0623,-3.0397,-3.008,-2.9715,-2.9462,-2.922,-2.8978,-2.871,-2.8477,-2.8233,-2.8139,-2.7961,-2.7715,-2.7726,-2.7631,-2.7489,-2.7404,-2.7404,-2.7357,-2.7129,-2.6859,-2.6494,-2.6184,-2.5858,-2.5518,-2.5396,-2.5018,-2.4481,-2.393,-2.3477,-2.313,-2.3101,-2.3101,-2.3101,-2.3101,-2.2964,-2.2705,-2.2685,-2.2549,-2.2256,-2.2227,-2.2236,-2.2236,-2.2227,-2.2279,-2.2461,-2.2437,-2.2476,-2.2482,-2.252,-2.2485,-2.2441,-2.2397,-2.2397,-2.2287,-2.1407,-2.0973,-2.1174,-2.1369,-2.1683,-2.2104,-2.2185,-2.222,-2.2334,-2.2397,-2.2422,-2.2476,-2.2467,-2.252,-2.2574,-2.2618,-2.2618,-2.2662,-2.275,-2.2882,-2.2882,-2.3013,-2.3101,-2.3101,-2.3091,-2.2969,-2.2662,-2.2608,-2.2564,-2.2564,-2.2618,-2.2662,-2.2618,-2.2618,-2.2618,-2.2706,-2.2618,-2.2618,-2.2794,-2.2882,-2.2882,-2.3013,-2.3091,-2.3091,-2.3091,-2.3101,-2.3101,-3.638,-3.6279,-3.5717,-3.4806,-3.3853,-3.3557,-3.3139,-3.268,-3.2475,-3.2356,-3.2393,-3.2118,-3.1862,-3.16,-3.0998,-3.0454,-3.017,-2.992,-2.9703,-2.9451,-2.9174,-2.8943,-2.8757,-2.8477,-2.8254,-2.7998,-2.7998,-2.7951,-2.7893,-2.7726,-2.7584,-2.7594,-2.7394,-2.7299,-2.7185,-2.6796,-2.6429,-2.6182,-2.5875,-2.5473,-2.5204,-2.5072,-2.4471,-2.3345,-2.311,-2.3164,-2.3101,-2.3101,-2.3071,-2.3062,-2.3042,-2.3033,-2.3013,-2.3003,-2.2984,-2.2994,-2.3003,-2.3013,-2.3033,-2.2989,-2.2974,-2.2794,-2.2759,-2.2662,-2.2476,-2.2476,-2.2485,-2.2441,-2.2303,-2.223,-2.2268,-2.2196,-2.2277,-2.2378,-2.2397,-2.2397,-2.2432,-2.2485,-2.252,-2.2706,-2.2759,-2.2838,-2.3013,-2.3047,-2.3013,-2.3013,-2.3047,-2.3047,-2.3057,-2.3101,-2.3101,-2.3101,-2.3101,-2.3101,-2.3047,-2.296,-2.296,-2.296,-2.2925,-2.3013,-2.3057,-2.3101,-2.3057,-2.3013,-2.2969,-2.296,-2.3047,-2.3047,-2.3047,-2.3101,-2.3101,-2.3091,-2.3101,-2.3101,-2.3101,-3.6417,-3.6329,-3.5391,-3.4776,-3.4374,-3.3596,-3.3114,-3.2939,-3.2667,-3.2803,-3.3032,-3.286,-3.2832,-3.2923,-3.2488,-3.1651,-3.0488,-3.0227,-2.9954,-2.9737,-2.9497,-2.922,-2.8989,-2.8896,-2.8617,-2.829,-2.8243,-2.8139,-2.7998,-2.7904,-2.7857,-2.7857,-2.7809,-2.7773,-2.7683,-2.7416,-2.7202,-2.7076,-2.6837,-2.6398,-2.5889,-2.5859,-2.5381,-2.4501,-2.4014,-2.357,-2.3101,-2.3101,-2.3101,-2.3101,-2.3101,-2.3101,-2.3101,-2.3101,-2.3101,-2.3101,-2.3101,-2.3101,-2.3101,-2.3101,-2.3047,-2.3013,-2.2969,-2.296,-2.2872,-2.2828,-2.2872,-2.2828,-2.2828,-2.2828,-2.2784,-2.2564,-2.2485,-2.2618,-2.2671,-2.2715,-2.2838,-2.2828,-2.2872,-2.2969,-2.3023,-2.3057,-2.3057,-2.3101,-2.3101,-2.3101,-2.3101,-2.3101,-2.3101,-2.3101,-2.3101,-2.3101,-2.3101,-2.3101,-2.3101,-2.3091,-2.3101,-2.3091,-2.3101,-2.3057,-2.3101,-2.3101,-2.3057,-2.3057,-2.3101,-2.3091,-2.3091,-2.3091,-2.3101,-2.3101,-2.3101,-2.3101,-2.3101,-2.3101,-2.3101,-3.6292,-3.5994,-3.5303,-3.4731,-3.4387,-3.3658,-3.3244,-3.3119,-3.3083,-3.3283,-3.3563,-3.3608,-3.3678,-3.3674,-3.3492,-3.2703,-3.1386,-3.0985,-3.0767,-3.0571,-3.0088,-2.9767,-2.957,-2.9241,-2.8954,-2.8675,-2.8581,-2.843,-2.8279,-2.8186,-2.8139,-2.8149,-2.8045,-2.7987,-2.794,-2.7809,-2.7726,-2.7678,-2.7489,-2.7133,-2.6713,-2.6598,-2.6233,-2.5558,-2.5088,-2.4376,-2.3511,-2.331,-2.3178,-2.3101,-2.3101,-2.3101,-2.3101,-2.3101,-2.3101,-2.3101,-2.3101,-2.3101,-2.3101,-2.3101,-2.3101,-2.3101,-2.3101,-2.3101,-2.3101,-2.3101,-2.3101,-2.3101,-2.3101,-2.3101,-2.3047,-2.2828,-2.2706,-2.2882,-2.2882,-2.2969,-2.3091,-2.3091,-2.3101,-2.3101,-2.3101,-2.3101,-2.3101,-2.3101,-2.3101,-2.3101,-2.3101,-2.3101,-2.3101,-2.3101,-2.3101,-2.3101,-2.3101,-2.3101,-2.3101,-2.3101,-2.3101,-2.3101,-2.3101,-2.3101,-2.3101,-2.3101,-2.3081,-2.3081,-2.3081,-2.3091,-2.3091,-2.3091,-2.3091,-2.3091,-2.3101,-2.3101,-2.3101,-2.3101,-2.3101,-3.6056,-3.5558,-3.5483,-3.4806,-3.401,-3.3809,-3.3533,-3.3194,-3.3633,-3.3828,-3.3971,-3.4242,-3.4301,-3.4109,-3.3918,-3.3389,-3.2887,-3.2406,-3.2041,-3.1843,-3.1028,-3.0589,-3.0427,-2.9626,-2.9218,-2.9082,-2.8885,-2.8803,-2.8803,-2.8571,-2.8488,-2.8395,-2.8233,-2.8128,-2.8034,-2.8045,-2.7998,-2.7951,-2.7715,-2.7573,-2.7573,-2.7342,-2.6898,-2.633,-2.6115,-2.5477,-2.4307,-2.3825,-2.3456,-2.3188,-2.3144,-2.3101,-2.3101,-2.3101,-2.3101,-2.3101,-2.3101,-2.3101,-2.3101,-2.3101,-2.3101,-2.3101,-2.3101,-2.3101,-2.3101,-2.3101,-2.3101,-2.3101,-2.3101,-2.3101,-2.3101,-2.3057,-2.3057,-2.3101,-2.3057,-2.3091,-2.3091,-2.3101,-2.3101,-2.3101,-2.3101,-2.3101,-2.3101,-2.3101,-2.3101,-2.3101,-2.3101,-2.3101,-2.3101,-2.3101,-2.3101,-2.3101,-2.3101,-2.3101,-2.3101,-2.3101,-2.3101,-2.3101,-2.3101,-2.3101,-2.3101,-2.3091,-2.2994,-2.2964,-2.273,-2.274,-2.2886,-2.2906,-2.3013,-2.3033,-2.3062,-2.3101,-2.3101,-2.3101,-2.3101,-3.6044,-3.547,-3.5082,-3.4575,-3.3884,-3.3495,-3.3219,-3.3187,-3.3658,-3.411,-3.448,-3.4961,-3.5226,-3.5303,-3.5116,-3.476,-3.4426,-3.3922,-3.3134,-3.2192,-3.1807,-3.1271,-3.0681,-3.0255,-2.9857,-2.9449,-2.9301,-2.9301,-2.9255,-2.9174,-2.9163,-2.9117,-2.8885,-2.8746,-2.8699,-2.843,-2.829,-2.8243,-2.7998,-2.7904,-2.7857,-2.7631,-2.7369,-2.7165,-2.6734,-2.6172,-2.5574,-2.4696,-2.4041,-2.361,-2.346,-2.3276,-2.3135,-2.3101,-2.3101,-2.3101,-2.3101,-2.3101,-2.3101,-2.3091,-2.3091,-2.3101,-2.3101,-2.3101,-2.3101,-2.3144,-2.3144,-2.3101,-2.3101,-2.3101,-2.3101,-2.3101,-2.3135,-2.3101,-2.3101,-2.3101,-2.3101,-2.3101,-2.3101,-2.3101,-2.3101,-2.3101,-2.3101,-2.3101,-2.3101,-2.3101,-2.3101,-2.3101,-2.3101,-2.3101,-2.3101,-2.3101,-2.3101,-2.3101,-2.3101,-2.3101,-2.3101,-2.3101,-2.3101,-2.3101,-2.3101,-2.3081,-2.2974,-2.275,-2.2559,-2.251,-2.2666,-2.2783,-2.2838,-2.3003,-2.3081,-2.3101,-2.3101,-2.3101,-2.3101,-3.573,-3.5144,-3.465,-3.4098,-3.3583,-3.3206,-3.3124,-3.3169,-3.3658,-3.4211,-3.4705,-3.5257,-3.5669,-3.5928,-3.5812,-3.5524,-3.5175,-3.4823,-3.4088,-3.304,-3.2639,-3.2109,-3.1373,-3.083,-3.0189,-2.961,-2.9531,-2.9531,-2.9531,-2.9531,-2.9531,-2.9485,-2.9359,-2.9255,-2.922,-2.8861,-2.8675,-2.8628,-2.8337,-2.8139,-2.8092,-2.7914,-2.7726,-2.7683,-2.7348,-2.6967,-2.6573,-2.5817,-2.4984,-2.4183,-2.3767,-2.3547,-2.3396,-2.3363,-2.3363,-2.3363,-2.3266,-2.3285,-2.3232,-2.3276,-2.3222,-2.3276,-2.3319,-2.3363,-2.3353,-2.3353,-2.3363,-2.3353,-2.3363,-2.3363,-2.3363,-2.3363,-2.3363,-2.3363,-2.3188,-2.3144,-2.3101,-2.3101,-2.3101,-2.3101,-2.3101,-2.3101,-2.3101,-2.3101,-2.3101,-2.3101,-2.3101,-2.3101,-2.3101,-2.3101,-2.3101,-2.3101,-2.3101,-2.3101,-2.3101,-2.3101,-2.3101,-2.3101,-2.3101,-2.3101,-2.3101,-2.3081,-2.3013,-2.2604,-2.2363,-2.2353,-2.248,-2.2568,-2.2666,-2.2828,-2.3091,-2.3101,-2.3101,-2.3101,-2.3101,-3.5182,-3.4675,-3.4135,-3.3621,-3.3199,-3.3136,-3.3124,-3.3212,-3.3658,-3.4211,-3.4763,-3.5257,-3.5715,-3.5963,-3.5968,-3.5716,-3.5271,-3.5175,-3.4848,-3.4244,-3.3717,-3.3169,-3.2611,-3.1351,-3.0431,-2.9884,-2.9657,-2.9577,-2.9623,-2.9623,-2.9531,-2.9577,-2.9588,-2.9531,-2.9497,-2.9255,-2.9082,-2.9035,-2.8664,-2.843,-2.843,-2.8149,-2.8045,-2.7998,-2.7908,-2.7717,-2.7306,-2.6957,-2.6117,-2.4719,-2.4072,-2.3797,-2.3797,-2.3797,-2.3754,-2.3711,-2.358,-2.3547,-2.3493,-2.3493,-2.3493,-2.3493,-2.3624,-2.3797,-2.3754,-2.3711,-2.3711,-2.3711,-2.3711,-2.3754,-2.3754,-2.3754,-2.3754,-2.3754,-2.345,-2.3222,-2.3178,-2.3178,-2.3232,-2.3178,-2.3135,-2.3135,-2.3222,-2.3232,-2.3188,-2.3188,-2.3232,-2.3232,-2.3232,-2.3276,-2.3188,-2.3188,-2.3276,-2.3319,-2.3363,-2.3363,-2.3363,-2.3363,-2.3319,-2.3222,-2.3086,-2.3003,-2.2925,-2.2568,-2.2227,-2.2236,-2.2334,-2.2461,-2.2685,-2.2945,-2.3081,-2.3091,-2.3101,-2.3101,-2.3101,-3.5182,-3.4688,-3.4123,-3.3583,-3.3162,-3.3124,-3.3124,-3.3187,-3.3646,-3.4173,-3.4693,-3.5257,-3.5771,-3.6238,-3.6098,-3.592,-3.5716,-3.5368,-3.5175,-3.4957,-3.4618,-3.3933,-3.3087,-3.1867,-3.1078,-3.079,-3.0285,-3.0034,-2.9988,-3.0034,-3.0045,-2.9977,-2.992,-2.9829,-2.9737,-2.9542,-2.9393,-2.9359,-2.9071,-2.8896,-2.885,-2.8535,-2.8301,-2.8301,-2.8139,-2.797,-2.7764,-2.742,-2.6463,-2.4951,-2.4354,-2.4024,-2.3884,-2.3841,-2.3841,-2.3841,-2.3754,-2.3711,-2.3711,-2.3711,-2.3711,-2.3711,-2.3797,-2.3797,-2.3797,-2.3797,-2.3797,-2.3797,-2.3797,-2.3797,-2.3797,-2.3841,-2.3841,-2.3797,-2.3711,-2.357,-2.358,-2.3624,-2.3614,-2.3624,-2.357,-2.357,-2.358,-2.358,-2.358,-2.358,-2.358,-2.358,-2.3537,-2.3537,-2.3493,-2.358,-2.3667,-2.3624,-2.3667,-2.3667,-2.3667,-2.3667,-2.358,-2.344,-2.3191,-2.2914,-2.2744,-2.249,-2.219,-2.2134,-2.2305,-2.251,-2.276,-2.3013,-2.3081,-2.3101,-2.3101,-2.3101,-2.3101,-3.4969,-3.465,-3.3884,-3.337,-3.3136,-3.3124,-3.3124,-3.3174,-3.3407,-3.3859,-3.4412,-3.4919,-3.5445,-3.6006,-3.6128,-3.6086,-3.5968,-3.5656,-3.5476,-3.532,-3.5054,-3.4414,-3.3457,-3.2535,-3.1985,-3.1483,-3.1054,-3.0753,-3.059,-3.0556,-3.0556,-3.0556,-3.0432,-3.0296,-3.0193,-2.9943,-2.976,-2.9634,-2.9393,-2.9266,-2.9266,-2.9035,-2.8896,-2.885,-2.8699,-2.856,-2.8308,-2.7771,-2.678,-2.561,-2.5008,-2.465,-2.4282,-2.4143,-2.41,-2.411,-2.4013,-2.398,-2.397,-2.397,-2.398,-2.398,-2.4024,-2.411,-2.411,-2.411,-2.41,-2.41,-2.41,-2.41,-2.41,-2.41,-2.41,-2.41,-2.41,-2.4024,-2.3851,-2.3797,-2.3797,-2.3797,-2.3797,-2.3797,-2.3797,-2.3797,-2.3797,-2.3797,-2.3754,-2.3754,-2.3754,-2.3797,-2.3841,-2.3884,-2.3841,-2.3797,-2.3797,-2.3797,-2.3797,-2.3841,-2.3841,-2.3701,-2.3461,-2.3047,-2.2847,-2.265,-2.2286,-2.2126,-2.2428,-2.265,-2.2754,-2.2906,-2.3013,-2.3101,-2.3101,-2.3101,-2.3101,-3.468,-3.4625,-3.3545,-3.3124,-3.3124,-3.3124,-3.3124,-3.3124,-3.3162,-3.3432,-3.3985,-3.45,-3.5056,-3.5533,-3.6144,-3.6275,-3.6063,-3.5955,-3.5764,-3.556,-3.5247,-3.4679,-3.4019,-3.3434,-3.2736,-3.196,-3.1783,-3.1362,-3.1045,-3.0939,-3.0984,-3.0939,-3.0939,-3.0838,-3.0601,-3.0397,-3.0193,-2.9954,-2.9715,-2.9577,-2.9542,-2.9439,-2.9347,-2.9347,-2.9347,-2.9163,-2.8797,-2.8239,-2.7426,-2.629,-2.5932,-2.5502,-2.5102,-2.4814,-2.4666,-2.4569,-2.4473,-2.4282,-2.4206,-2.4196,-2.4249,-2.4292,-2.4454,-2.4634,-2.4676,-2.4728,-2.4769,-2.4894,-2.4738,-2.4852,-2.4852,-2.479,-2.4842,-2.4937,-2.4821,-2.4533,-2.4178,-2.3988,-2.3884,-2.3841,-2.3884,-2.3884,-2.3884,-2.3894,-2.3884,-2.4057,-2.4013,-2.4013,-2.4057,-2.4057,-2.4057,-2.4024,-2.397,-2.3927,-2.3927,-2.3927,-2.397,-2.397,-2.4013,-2.396,-2.3877,-2.3576,-2.3248,-2.3006,-2.2842,-2.2757,-2.2801,-2.2935,-2.2928,-2.2983,-2.3159,-2.3144,-2.3101,-2.3101,-2.3101,-3.468,-3.458,-3.3533,-3.3124,-3.3124,-3.3124,-3.3124,-3.3124,-3.3124,-3.337,-3.3922,-3.4474,-3.4956,-3.5495,-3.6044,-3.6358,-3.6263,-3.6098,-3.5872,-3.5572,-3.5332,-3.5138,-3.4691,-3.4066,-3.3315,-3.264,-3.1993,-3.1478,-3.117,-3.1109,-3.1029,-3.1017,-3.1074,-3.0972,-3.0927,-3.0826,-3.0691,-3.0454,-3.017,-3.0,-2.9829,-2.968,-2.9623,-2.9577,-2.9577,-2.9485,-2.9382,-2.9201,-2.8811,-2.8087,-2.7136,-2.6544,-2.6211,-2.5803,-2.5514,-2.531,-2.5005,-2.4699,-2.4528,-2.4537,-2.456,-2.4794,-2.4922,-2.5028,-2.5559,-2.5591,-2.5781,-2.6078,-2.6216,-2.6066,-2.6089,-2.6174,-2.611,-2.6068,-2.61,-2.6131,-2.5902,-2.5062,-2.4535,-2.443,-2.444,-2.4389,-2.4399,-2.4471,-2.445,-2.4389,-2.4389,-2.4335,-2.4358,-2.4358,-2.4358,-2.4358,-2.4358,-2.4348,-2.4348,-2.4358,-2.4358,-2.4358,-2.4358,-2.4358,-2.4274,-2.4125,-2.3813,-2.3642,-2.3584,-2.3487,-2.3259,-2.3295,-2.3298,-2.3333,-2.3285,-2.3232,-2.3178,-2.3144,-2.3101,-3.468,-3.46,-3.3533,-3.3124,-3.3124,-3.3124,-3.3124,-3.3124,-3.3124,-3.3244,-3.3583,-3.4098,-3.4638,-3.5144,-3.5717,-3.6094,-3.6332,-3.6275,-3.6051,-3.5812,-3.562,-3.5512,-3.5343,-3.4823,-3.4221,-3.3456,-3.2767,-3.221,-3.1793,-3.1461,-3.1374,-3.1318,-3.1318,-3.1273,-3.1139,-3.1139,-3.1005,-3.0826,-3.0646,-3.0522,-3.0386,-3.0284,-3.0182,-3.0182,-3.008,-2.9988,-2.9852,-2.9726,-2.9499,-2.9025,-2.8407,-2.7684,-2.7047,-2.6579,-2.6275,-2.6112,-2.593,-2.5717,-2.5597,-2.5543,-2.5607,-2.5675,-2.5729,-2.5921,-2.6189,-2.6264,-2.636,-2.6606,-2.667,-2.6736,-2.686,-2.6838,-2.6893,-2.7016,-2.7027,-2.7027,-2.6852,-2.6135,-2.5543,-2.5532,-2.5606,-2.5585,-2.5543,-2.533,-2.5279,-2.5267,-2.5227,-2.5141,-2.4828,-2.4828,-2.4818,-2.4818,-2.4818,-2.4818,-2.4818,-2.4818,-2.4818,-2.4818,-2.4818,-2.4828,-2.4807,-2.4594,-2.436,-2.4198,-2.3973,-2.381,-2.3674,-2.3721,-2.3634,-2.359,-2.3493,-2.3363,-2.3266,-2.3232,-2.3188,-3.468,-3.4625,-3.3545,-3.3124,-3.3124,-3.3124,-3.3124,-3.3124,-3.3124,-3.3149,-3.3237,-3.3658,-3.4286,-3.4731,-3.5295,-3.5855,-3.6232,-3.6358,-3.6228,-3.6051,-3.5968,-3.5812,-3.5656,-3.5414,-3.5051,-3.4221,-3.3582,-3.3051,-3.2554,-3.2107,-3.1829,-3.1793,-3.1761,-3.1629,-3.1439,-3.135,-3.1261,-3.105,-3.1005,-3.0972,-3.0939,-3.0894,-3.0883,-3.0838,-3.0691,-3.0499,-3.0318,-3.0193,-2.9988,-2.9772,-2.9623,-2.8947,-2.8065,-2.7301,-2.6977,-2.6956,-2.6783,-2.6621,-2.6466,-2.654,-2.6551,-2.6726,-2.6783,-2.6881,-2.6924,-2.7122,-2.7243,-2.7263,-2.7383,-2.7428,-2.7377,-2.7575,-2.7632,-2.7722,-2.7778,-2.7745,-2.7667,-2.7366,-2.711,-2.663,-2.6436,-2.6338,-2.6368,-2.6303,-2.6264,-2.6191,-2.6095,-2.5935,-2.5594,-2.5328,-2.5349,-2.5168,-2.5126,-2.5052,-2.5031,-2.5073,-2.5115,-2.5158,-2.52,-2.52,-2.5211,-2.4988,-2.4733,-2.4487,-2.4315,-2.4186,-2.4057,-2.3927,-2.3894,-2.3851,-2.3711,-2.358,-2.345,-2.3319,-2.3295,-3.468,-3.4593,-3.3533,-3.3124,-3.3124,-3.3124,-3.3124,-3.3124,-3.3124,-3.3124,-3.3199,-3.3646,-3.4161,-3.4726,-3.5245,-3.5843,-3.6292,-3.6405,-3.6358,-3.6275,-3.6146,-3.5968,-3.592,-3.5752,-3.5487,-3.5144,-3.4424,-3.3665,-3.3069,-3.2551,-3.2286,-3.2237,-3.2081,-3.1906,-3.1849,-3.1717,-3.1528,-3.1362,-3.1261,-3.1184,-3.1118,-3.1074,-3.1074,-3.1074,-3.1017,-3.0916,-3.0883,-3.0849,-3.0804,-3.0703,-3.0318,-2.9977,-2.9545,-2.888,-2.832,-2.7906,-2.7609,-2.7355,-2.7065,-2.6856,-2.6847,-2.6938,-2.7258,-2.7666,-2.7997,-2.8309,-2.8386,-2.872,-2.8865,-2.8966,-2.9056,-2.8957,-2.9057,-2.9103,-2.9081,-2.9081,-2.9104,-2.8946,-2.843,-2.7654,-2.7301,-2.7079,-2.7275,-2.7273,-2.7167,-2.7038,-2.694,-2.6767,-2.653,-2.6195,-2.5947,-2.569,-2.5391,-2.5264,-2.5158,-2.5242,-2.5285,-2.5369,-2.5411,-2.5411,-2.5369,-2.5242,-2.5031,-2.4914,-2.4786,-2.4615,-2.4487,-2.4272,-2.4186,-2.4186,-2.4013,-2.3754,-2.3741,-2.3684,-2.3646,-3.468,-3.4613,-3.3533,-3.3124,-3.3124,-3.3124,-3.3124,-3.3124,-3.3124,-3.3124,-3.3199,-3.3426,-3.3784,-3.4324,-3.4818,-3.5542,-3.6241,-3.6417,-3.6417,-3.637,-3.6288,-3.6193,-3.6193,-3.6038,-3.6038,-3.5767,-3.5158,-3.4317,-3.3617,-3.3088,-3.2714,-3.2425,-3.2257,-3.2225,-3.2169,-3.1937,-3.1805,-3.1661,-3.1572,-3.1439,-3.1374,-3.1362,-3.1374,-3.1374,-3.1374,-3.1273,-3.1184,-3.1151,-3.1107,-3.0984,-3.0736,-3.0646,-3.0486,-3.019,-2.959,-2.8935,-2.8565,-2.8409,-2.8194,-2.817,-2.8238,-2.8295,-2.8409,-2.861,-2.8878,-2.907,-2.9341,-2.9601,-2.9737,-2.9817,-2.9988,-3.0034,-3.0136,-3.0227,-3.0239,-3.0239,-3.0239,-3.0239,-2.9568,-2.8746,-2.8599,-2.8497,-2.8383,-2.8316,-2.8072,-2.794,-2.7786,-2.761,-2.7424,-2.7129,-2.6846,-2.6628,-2.6389,-2.615,-2.602,-2.5945,-2.5858,-2.5857,-2.5824,-2.5813,-2.579,-2.579,-2.5664,-2.5506,-2.5338,-2.5211,-2.4903,-2.469,-2.4615,-2.455,-2.4323,-2.4128,-2.4061,-2.4015,-2.4112,-3.4562,-3.4474,-3.3483,-3.3124,-3.3124,-3.3124,-3.3124,-3.3124,-3.3124,-3.3124,-3.3124,-3.3174,-3.342,-3.3985,-3.4675,-3.5454,-3.638,-3.6417,-3.6417,-3.6417,-3.637,-3.6405,-3.6405,-3.6417,-3.6358,-3.6248,-3.5887,-3.5135,-3.4198,-3.3608,-3.3081,-3.271,-3.2531,-3.2487,-3.2388,-3.2201,-3.2113,-3.2025,-3.1937,-3.1849,-3.1849,-3.1849,-3.1849,-3.1849,-3.1849,-3.1749,-3.1629,-3.1496,-3.1407,-3.1285,-3.1151,-3.105,-3.1062,-3.1029,-3.0601,-2.9943,-2.9715,-2.9623,-2.9452,-2.9372,-2.9191,-2.9215,-2.9532,-2.96,-2.9681,-2.9772,-2.9932,-3.0068,-3.0159,-3.025,-3.0544,-3.0634,-3.0736,-3.0838,-3.0939,-3.0984,-3.0894,-3.0838,-3.0691,-3.0213,-3.0045,-2.9738,-2.9409,-2.9181,-2.8946,-2.8856,-2.8699,-2.8542,-2.8376,-2.8166,-2.7921,-2.7743,-2.753,-2.7218,-2.703,-2.6943,-2.679,-2.6572,-2.6559,-2.6526,-2.6465,-2.6437,-2.6326,-2.6196,-2.6125,-2.5967,-2.5562,-2.5168,-2.5051,-2.4922,-2.4664,-2.4679,-2.4936,-2.4883,-2.4862,-3.3997,-3.3947,-3.3388,-3.3124,-3.3124,-3.3124,-3.3124,-3.3124,-3.3124,-3.3124,-3.3124,-3.3149,-3.3382,-3.401,-3.4893,-3.5717,-3.6182,-3.6417,-3.6417,-3.6417,-3.6417,-3.6417,-3.6417,-3.6417,-3.6417,-3.6405,-3.6317,-3.5667,-3.4777,-3.407,-3.3539,-3.3127,-3.2816,-3.268,-3.268,-3.2463,-3.2356,-3.2344,-3.23,-3.23,-3.2257,-3.2257,-3.2257,-3.2257,-3.2257,-3.2213,-3.2125,-3.1981,-3.1862,-3.1817,-3.1451,-3.1306,-3.1217,-3.1107,-3.1029,-3.0703,-3.0363,-2.9943,-2.9715,-2.9669,-2.9669,-2.976,-2.9954,-3.0068,-3.0216,-3.0465,-3.0658,-3.0849,-3.0849,-3.0883,-3.0972,-3.0972,-3.1029,-3.1017,-3.1107,-3.1062,-3.1062,-3.1196,-3.1095,-3.105,-3.0724,-3.0499,-3.0192,-3.0011,-2.9806,-2.9726,-2.9579,-2.9443,-2.9364,-2.9183,-2.8865,-2.8648,-2.8544,-2.8259,-2.7986,-2.7898,-2.7765,-2.7457,-2.74,-2.7321,-2.7368,-2.7353,-2.7144,-2.6992,-2.6932,-2.6655,-2.6151,-2.5819,-2.5551,-2.5486,-2.5492,-2.5742,-2.6033,-2.5882,-2.5667,-3.3608,-3.3847,-3.3307,-3.3124,-3.3124,-3.3124,-3.3124,-3.3124,-3.3124,-3.3124,-3.3124,-3.3124,-3.3382,-3.3997,-3.4718,-3.5366,-3.5868,-3.6254,-3.6417,-3.6417,-3.6417,-3.6417,-3.6417,-3.6417,-3.6417,-3.6417,-3.6342,-3.5968,-3.5215,-3.4638,-3.4085,-3.3558,-3.3158,-3.2939,-3.2896,-3.268,-3.2593,-3.2506,-3.2487,-3.24,-3.24,-3.24,-3.24,-3.24,-3.2444,-3.2444,-3.2388,-3.23,-3.2213,-3.2169,-3.1893,-3.1705,-3.1673,-3.1508,-3.1362,-3.1139,-3.0994,-3.0679,-3.042,-3.0329,-3.0284,-3.0318,-3.051,-3.0646,-3.0691,-3.0883,-3.1074,-3.1139,-3.1184,-3.1241,-3.1374,-3.1407,-3.1407,-3.1407,-3.1362,-3.1419,-3.1407,-3.1407,-3.1451,-3.1407,-3.1407,-3.1172,-3.0949,-3.0781,-3.0556,-3.0397,-3.034,-3.0294,-3.0305,-3.0302,-2.9908,-2.9503,-2.9398,-2.9271,-2.8981,-2.8796,-2.8785,-2.8626,-2.8603,-2.8534,-2.8441,-2.8353,-2.8076,-2.8017,-2.8057,-2.7613,-2.6908,-2.6649,-2.6552,-2.6497,-2.646,-2.6617,-2.6706,-2.6785,-2.663,-3.3363,-3.3646,-3.3257,-3.3124,-3.3124,-3.3124,-3.3124,-3.3124,-3.3124,-3.3124,-3.3124,-3.3149,-3.3382,-3.3859,-3.4361,-3.4901,-3.5533,-3.5981,-3.6279,-3.6367,-3.6417,-3.6417,-3.6417,-3.6417,-3.6417,-3.6417,-3.6417,-3.6166,-3.5742,-3.5177,-3.4587,-3.3922,-3.3489,-3.3232,-3.3063,-3.2939,-3.281,-3.2797,-3.268,-3.2649,-3.2618,-3.2605,-3.2618,-3.2618,-3.2562,-3.2562,-3.2562,-3.2463,-3.2475,-3.2431,-3.2257,-3.2081,-3.2038,-3.1937,-3.1805,-3.1673,-3.1572,-3.1451,-3.1196,-3.1062,-3.1029,-3.1029,-3.1074,-3.1062,-3.1196,-3.1208,-3.1297,-3.1496,-3.1617,-3.1705,-3.1793,-3.1849,-3.1893,-3.1893,-3.1849,-3.1849,-3.1862,-3.1862,-3.1849,-3.1862,-3.1849,-3.1893,-3.1673,-3.1508,-3.133,-3.1107,-3.1062,-3.1029,-3.1017,-3.105,-3.0749,-3.0238,-3.0182,-3.0124,-3.0015,-2.9812,-2.975,-2.9694,-2.9683,-2.9456,-2.923,-2.9176,-2.9048,-2.9024,-2.9112,-2.912,-2.8748,-2.8142,-2.7602,-2.7546,-2.7445,-2.7284,-2.7321,-2.7422,-2.7455,-3.3136,-3.3131,-3.3136,-3.3124,-3.3124,-3.3124,-3.3124,-3.3124,-3.3124,-3.3124,-3.3124,-3.3149,-3.337,-3.3796,-3.4022,-3.4562,-3.5445,-3.5533,-3.5893,-3.6241,-3.6417,-3.6417,-3.6417,-3.6417,-3.6417,-3.6417,-3.6417,-3.638,-3.6182,-3.573,-3.4901,-3.4022,-3.3834,-3.3508,-3.3257,-3.3088,-3.3038,-3.3025,-3.2952,-3.2995,-3.2995,-3.2995,-3.2995,-3.2995,-3.3038,-3.3038,-3.3025,-3.281,-3.268,-3.2692,-3.2475,-3.2356,-3.2344,-3.2257,-3.2169,-3.2169,-3.2125,-3.2038,-3.1817,-3.1419,-3.1074,-3.1074,-3.1241,-3.1451,-3.1629,-3.1817,-3.1906,-3.1906,-3.2038,-3.2169,-3.2257,-3.23,-3.2257,-3.2213,-3.2169,-3.2169,-3.2181,-3.2225,-3.2225,-3.2313,-3.23,-3.2213,-3.2169,-3.195,-3.1817,-3.1584,-3.1463,-3.1419,-3.133,-3.133,-3.1241,-3.0986,-3.0965,-3.0965,-3.0944,-3.0832,-3.0767,-3.0632,-3.056,-3.0138,-2.9749,-2.9742,-3.0083,-2.9961,-3.0062,-3.0343,-3.0395,-2.946,-2.8811,-2.8589,-2.8443,-2.8192,-2.8074,-2.812,-2.8054,-3.3124,-3.3124,-3.3124,-3.3124,-3.3124,-3.3124,-3.3124,-3.3124,-3.3124,-3.3124,-3.3124,-3.3136,-3.3237,-3.3432,-3.3796,-3.4085,-3.4625,-3.527,-3.5571,-3.5918,-3.6144,-3.638,-3.6417,-3.6417,-3.6417,-3.6417,-3.6417,-3.6417,-3.6355,-3.6081,-3.5667,-3.4977,-3.4324,-3.3872,-3.3571,-3.3244,-3.3136,-3.3124,-3.3124,-3.3124,-3.3124,-3.3124,-3.3124,-3.3124,-3.3124,-3.3124,-3.3081,-3.2995,-3.2939,-3.2896,-3.2723,-3.2649,-3.2562,-3.2475,-3.2431,-3.2444,-3.2444,-3.2356,-3.2257,-3.1862,-3.1641,-3.1685,-3.1805,-3.1981,-3.2081,-3.2213,-3.2257,-3.2313,-3.2356,-3.2444,-3.24,-3.24,-3.2356,-3.24,-3.2444,-3.2444,-3.2487,-3.2487,-3.2487,-3.2519,-3.2444,-3.2356,-3.2356,-3.2356,-3.2213,-3.2081,-3.195,-3.1817,-3.1729,-3.1685,-3.1641,-3.1596,-3.1596,-3.1641,-3.1653,-3.1693,-3.1733,-3.1544,-3.1387,-3.1028,-3.0702,-3.1052,-3.1276,-3.1085,-3.0829,-3.0903,-3.077,-3.0306,-2.9937,-2.959,-2.9297,-2.9068,-2.8925,-2.8792,-2.8606,-3.3124,-3.3124,-3.3124,-3.3124,-3.3124,-3.3124,-3.3124,-3.3124,-3.3124,-3.3124,-3.3124,-3.3124,-3.3124,-3.3206,-3.3432,-3.3784,-3.4161,-3.4781,-3.5257,-3.5658,-3.6081,-3.6367,-3.6417,-3.6417,-3.6417,-3.6417,-3.6417,-3.6417,-3.6417,-3.6417,-3.6081,-3.5567,-3.4856,-3.4399,-3.3746,-3.3395,-3.3136,-3.3124,-3.3124,-3.3124,-3.3124,-3.3124,-3.3124,-3.3124,-3.3124,-3.3124,-3.3124,-3.3081,-3.3081,-3.3025,-3.2939,-3.284,-3.2766,-3.268,-3.2605,-3.2605,-3.2605,-3.2562,-3.2431,-3.2257,-3.2125,-3.2081,-3.2213,-3.2313,-3.24,-3.2431,-3.2475,-3.2506,-3.2562,-3.2605,-3.2618,-3.2661,-3.2705,-3.2736,-3.2736,-3.2736,-3.2748,-3.2748,-3.2692,-3.2692,-3.2661,-3.2661,-3.2705,-3.2705,-3.2475,-3.2344,-3.2213,-3.2138,-3.2138,-3.2138,-3.2181,-3.2181,-3.2181,-3.2269,-3.2356,-3.2232,-3.2077,-3.2064,-3.1911,-3.2003,-3.1899,-3.2125,-3.2081,-3.1784,-3.1553,-3.1484,-3.1247,-3.0927,-3.0674,-3.0464,-3.0102,-2.9647,-2.9303,-2.9117,-2.9071,-3.3124,-3.3124,-3.3124,-3.3124,-3.3124,-3.3124,-3.3124,-3.3124,-3.3124,-3.3124,-3.3124,-3.3124,-3.3124,-3.3136,-3.3206,-3.342,-3.3834,-3.4437,-3.4931,-3.5408,-3.5931,-3.6292,-3.6417,-3.6417,-3.6417,-3.6417,-3.6417,-3.6417,-3.6417,-3.6417,-3.6342,-3.6132,-3.5529,-3.4756,-3.3935,-3.337,-3.3149,-3.3124,-3.3124,-3.3124,-3.3124,-3.3124,-3.3124,-3.3124,-3.3124,-3.3124,-3.3124,-3.3124,-3.3124,-3.3081,-3.3068,-3.3025,-3.3038,-3.3038,-3.2995,-3.2995,-3.3038,-3.2939,-3.2711,-3.2506,-3.2431,-3.2388,-3.2475,-3.2519,-3.2531,-3.2562,-3.2723,-3.2723,-3.2853,-3.2995,-3.3038,-3.3038,-3.2995,-3.2995,-3.2952,-3.2952,-3.2952,-3.2909,-3.2909,-3.2865,-3.2995,-3.3081,-3.3081,-3.2995,-3.2779,-3.2605,-3.2444,-3.2444,-3.2487,-3.2531,-3.2574,-3.2618,-3.2618,-3.2618,-3.2618,-3.2531,-3.2431,-3.2444,-3.2444,-3.2475,-3.2419,-3.2376,-3.2344,-3.2257,-3.2125,-3.1862,-3.1717,-3.156,-3.1273,-3.0916,-3.0544,-3.0114,-2.976,-2.9531,-2.9485,-3.3124,-3.3124,-3.3124,-3.3124,-3.3124,-3.3124,-3.3124,-3.3124,-3.3124,-3.3124,-3.3124,-3.3124,-3.3124,-3.3124,-3.3136,-3.325,-3.3432,-3.3922,-3.443,-3.4994,-3.5617,-3.6031,-3.6292,-3.6417,-3.6417,-3.6417,-3.6417,-3.6417,-3.6417,-3.6417,-3.6417,-3.6279,-3.5843,-3.4906,-3.4161,-3.3633,-3.3495,-3.3199,-3.3124,-3.3124,-3.3124,-3.3124,-3.3124,-3.3124,-3.3124,-3.3124,-3.3124,-3.3124,-3.3124,-3.3124,-3.3124,-3.3124,-3.3124,-3.3124,-3.3124,-3.3124,-3.3124,-3.3068,-3.2982,-3.2853,-3.2779,-3.2692,-3.2736,-3.2822,-3.2865,-3.2909,-3.2939,-3.2939,-3.3025,-3.3124,-3.3081,-3.3081,-3.3081,-3.3081,-3.3081,-3.3081,-3.3038,-3.3081,-3.3038,-3.3038,-3.3124,-3.3124,-3.3124,-3.3124,-3.2952,-3.2909,-3.2779,-3.2791,-3.2822,-3.2865,-3.2952,-3.2952,-3.2952,-3.2909,-3.2865,-3.2779,-3.2736,-3.2779,-3.2779,-3.281,-3.2723,-3.2636,-3.2562,-3.2475,-3.2344,-3.2257,-3.2081,-3.1893,-3.1584,-3.1261,-3.0949,-3.0691,-3.042,-3.0182,-2.9988,-3.3124,-3.3124,-3.3124,-3.3124,-3.3124,-3.3124,-3.3124,-3.3124,-3.3124,-3.3124,-3.3124,-3.3124,-3.3124,-3.3124,-3.3124,-3.3124,-3.3187,-3.3658,-3.4198,-3.4705,-3.5257,-3.5843,-3.6267,-3.6417,-3.6417,-3.6417,-3.6417,-3.6417,-3.6417,-3.6417,-3.6417,-3.6317,-3.6006,-3.5416,-3.4663,-3.4173,-3.3721,-3.3407,-3.3294,-3.3124,-3.3124,-3.3124,-3.3124,-3.3124,-3.3124,-3.3124,-3.3124,-3.3124,-3.3124,-3.3124,-3.3124,-3.3124,-3.3124,-3.3124,-3.3124,-3.3124,-3.3124,-3.3068,-3.3081,-3.3081,-3.2952,-3.2853,-3.3038,-3.3081,-3.3124,-3.3081,-3.3081,-3.3081,-3.3124,-3.3124,-3.3124,-3.3124,-3.3124,-3.3124,-3.3124,-3.3124,-3.3124,-3.3124,-3.3174,-3.3174,-3.3224,-3.3199,-3.3199,-3.3124,-3.3081,-3.3081,-3.3081,-3.3162,-3.3187,-3.3136,-3.3136,-3.3081,-3.3081,-3.3038,-3.3038,-3.3038,-3.3038,-3.3081,-3.3081,-3.2982,-3.2982,-3.2853,-3.2736,-3.2661,-3.2574,-3.2487,-3.2356,-3.2181,-3.2034,-3.1834,-3.154,-3.133,-3.1074,-3.0793,-3.0454,-3.3124,-3.3124,-3.3124,-3.3124,-3.3124,-3.3124,-3.3124,-3.3124,-3.3124,-3.3124,-3.3124,-3.3124,-3.3124,-3.3124,-3.3124,-3.3124,-3.3174,-3.3596,-3.4148,-3.4675,-3.5119,-3.5755,-3.6216,-3.6417,-3.6417,-3.6417,-3.6417,-3.6417,-3.6417,-3.6417,-3.6417,-3.6417,-3.6329,-3.5868,-3.5303,-3.47,-3.4135,-3.3759,-3.3307,-3.3174,-3.3124,-3.3124,-3.3124,-3.3124,-3.3124,-3.3124,-3.3124,-3.3124,-3.3124,-3.3124,-3.3124,-3.3124,-3.3124,-3.3124,-3.3124,-3.3124,-3.3124,-3.3124,-3.3124,-3.3124,-3.3124,-3.3038,-3.3081,-3.3124,-3.3124,-3.3124,-3.3124,-3.3124,-3.3124,-3.3124,-3.3124,-3.3124,-3.3124,-3.3124,-3.3124,-3.3124,-3.3093,-3.3131,-3.3237,-3.33,-3.3357,-3.3395,-3.3483,-3.342,-3.3508,-3.3571,-3.3633,-3.3596,-3.3533,-3.3174,-3.3162,-3.3124,-3.3124,-3.3124,-3.3136,-3.3174,-3.3124,-3.3124,-3.3124,-3.3081,-3.3038,-3.305,-3.2952,-3.2878,-3.2847,-3.2816,-3.3007,-3.2906,-3.2671,-3.247,-3.2394,-3.1837,-3.1618,-3.1187,-3.0871,-3.3124,-3.3124,-3.3124,-3.3124,-3.3124,-3.3124,-3.3124,-3.3124,-3.3124,-3.3124,-3.3124,-3.3124,-3.3124,-3.3124,-3.3124,-3.3124,-3.3187,-3.3388,-3.396,-3.4487,-3.4906,-3.5592,-3.6116,-3.6417,-3.6417,-3.6417,-3.6417,-3.6417,-3.6417,-3.6417,-3.6417,-3.6417,-3.6417,-3.6254,-3.5906,-3.5357,-3.47,-3.4022,-3.347,-3.3181,-3.3136,-3.3124,-3.3124,-3.3124,-3.3124,-3.3124,-3.3124,-3.3124,-3.3124,-3.3124,-3.3124,-3.3124,-3.3124,-3.3124,-3.3124,-3.3124,-3.3124,-3.3124,-3.3124,-3.3124,-3.3124,-3.3124,-3.3124,-3.3124,-3.3124,-3.3124,-3.3124,-3.3124,-3.3124,-3.3124,-3.3124,-3.3124,-3.3187,-3.3262,-3.3275,-3.3282,-3.3345,-3.3545,-3.3608,-3.3709,-3.3796,-3.3935,-3.3985,-3.4073,-3.4161,-3.4211,-3.4198,-3.4135,-3.3985,-3.3596,-3.3407,-3.3395,-3.3413,-3.3445,-3.3287,-3.3262,-3.3187,-3.3124,-3.3262,-3.3307,-3.3282,-3.3282,-3.3144,-3.3188,-3.3364,-3.3607,-3.3883,-3.3714,-3.3454,-3.351,-3.3395,-3.2739,-3.2107,-3.1827,-3.1589,-3.3124,-3.3124,-3.3124,-3.3124,-3.3124,-3.3124,-3.3124,-3.3124,-3.3124,-3.3124,-3.3124,-3.3124,-3.3124,-3.3124,-3.3124,-3.3124,-3.3124,-3.3199,-3.3696,-3.4525,-3.468,-3.5491,-3.6078,-3.6405,-3.6417,-3.6417,-3.6417,-3.6417,-3.6417,-3.6417,-3.6417,-3.6417,-3.6417,-3.6417,-3.6204,-3.5717,-3.5182,-3.4537,-3.3909,-3.3395,-3.3169,-3.3136,-3.3124,-3.3124,-3.3124,-3.3124,-3.3124,-3.3124,-3.3124,-3.3124,-3.3124,-3.3124,-3.3124,-3.3124,-3.3124,-3.3124,-3.3124,-3.3124,-3.3124,-3.3124,-3.3124,-3.3124,-3.3124,-3.3124,-3.3124,-3.3124,-3.3124,-3.3124,-3.3124,-3.3124,-3.3124,-3.3149,-3.33,-3.3395,-3.3458,-3.3533,-3.3771,-3.4048,-3.4161,-3.4261,-3.4399,-3.4517,-3.463,-3.4705,-3.4668,-3.4542,-3.448,-3.4467,-3.4424,-3.4223,-3.4073,-3.4035,-3.396,-3.3909,-3.3696,-3.3583,-3.3696,-3.3784,-3.3922,-3.3935,-3.3721,-3.3746,-3.3872,-3.3947,-3.4035,-3.4265,-3.4512,-3.4449,-3.428,-3.4355,-3.4325,-3.3761,-3.3293,-3.2982,-3.2729,-3.3124,-3.3124,-3.3124,-3.3124,-3.3124,-3.3124,-3.3124,-3.3124,-3.3124,-3.3124,-3.3124,-3.3124,-3.3124,-3.3124,-3.3124,-3.3124,-3.3124,-3.3162,-3.3558,-3.4618,-3.4726,-3.529,-3.5943,-3.6392,-3.6405,-3.6417,-3.6417,-3.6417,-3.6417,-3.6417,-3.6417,-3.6417,-3.6417,-3.6417,-3.6329,-3.5968,-3.5567,-3.5119,-3.4424,-3.3784,-3.3319,-3.3199,-3.3124,-3.3124,-3.3124,-3.3124,-3.3124,-3.3124,-3.3124,-3.3124,-3.3124,-3.3124,-3.3124,-3.3124,-3.3124,-3.3124,-3.3124,-3.3124,-3.3124,-3.3124,-3.3124,-3.3124,-3.3124,-3.3124,-3.3124,-3.3124,-3.3124,-3.3199,-3.3224,-3.3363,-3.3413,-3.3596,-3.3784,-3.3897,-3.3985,-3.4085,-3.4261,-3.4575,-3.4851,-3.4964,-3.514,-3.5278,-3.5278,-3.5341,-3.5378,-3.509,-3.5027,-3.5064,-3.4989,-3.4889,-3.4688,-3.4613,-3.4424,-3.4336,-3.4361,-3.4311,-3.4474,-3.4542,-3.46,-3.4467,-3.4261,-3.4424,-3.4655,-3.47,-3.47,-3.4826,-3.4981,-3.5069,-3.5111,-3.5053,-3.4961,-3.474,-3.4442,-3.4197,-3.3743,-3.3124,-3.3124,-3.3124,-3.3124,-3.3124,-3.3124,-3.3124,-3.3124,-3.3124,-3.3124,-3.3124,-3.3124,-3.3124,-3.3124,-3.3124,-3.3124,-3.3124,-3.3162,-3.3508,-3.4135,-3.4512,-3.509,-3.5768,-3.6254,-3.6367,-3.6417,-3.6417,-3.6417,-3.6417,-3.6417,-3.6417,-3.6417,-3.6417,-3.6417,-3.6405,-3.6107,-3.5943,-3.5583,-3.4919,-3.4299,-3.3859,-3.3332,-3.3124,-3.3124,-3.3124,-3.3124,-3.3124,-3.3124,-3.3124,-3.3124,-3.3124,-3.3124,-3.3124,-3.3124,-3.3124,-3.3124,-3.3124,-3.3124,-3.3124,-3.3136,-3.3162,-3.3162,-3.3162,-3.3136,-3.3124,-3.3124,-3.3187,-3.3257,-3.3407,-3.3583,-3.3771,-3.406,-3.4311,-3.4424,-3.4537,-3.4663,-3.4776,-3.514,-3.5458,-3.568,-3.5855,-3.5881,-3.5855,-3.5893,-3.5956,-3.5981,-3.5994,-3.5994,-3.5906,-3.5768,-3.5265,-3.509,-3.4788,-3.4713,-3.4851,-3.4964,-3.509,-3.5002,-3.4926,-3.4851,-3.4768,-3.4964,-3.5165,-3.5245,-3.532,-3.5441,-3.5617,-3.5931,-3.5981,-3.5768,-3.5671,-3.5465,-3.5624,-3.5472,-3.4851,-3.2328,-3.2365,-3.2604,-3.2692,-3.2742,-3.2955,-3.3124,-3.3124,-3.3124,-3.3124,-3.3124,-3.3124,-3.3124,-3.3124,-3.3124,-3.3124,-3.3124,-3.3124,-3.3458,-3.3935,-3.4462,-3.4969,-3.5554,-3.6069,-3.6329,-3.6417,-3.6417,-3.6417,-3.6417,-3.6417,-3.6417,-3.6417,-3.6417,-3.6417,-3.6417,-3.638,-3.6267,-3.5906,-3.5328,-3.4856,-3.4412,-3.3759,-3.3199,-3.3124,-3.3124,-3.3124,-3.3124,-3.3124,-3.3124,-3.3124,-3.3124,-3.3124,-3.3124,-3.3124,-3.3124,-3.3124,-3.3124,-3.3124,-3.3162,-3.3212,-3.3257,-3.3357,-3.3445,-3.352,-3.3935,-3.396,-3.3734,-3.3847,-3.4073,-3.4261,-3.4274,-3.4487,-3.4731,-3.4919,-3.5102,-3.5228,-3.5479,-3.5805,-3.5994,-3.6069,-3.6216,-3.6216,-3.6191,-3.6191,-3.6254,-3.6241,-3.6367,-3.638,-3.6405,-3.6417,-3.5918,-3.5617,-3.5328,-3.5366,-3.5629,-3.5667,-3.5655,-3.5516,-3.5316,-3.5491,-3.5592,-3.5542,-3.5592,-3.573,-3.5855,-3.5981,-3.6254,-3.6392,-3.6417,-3.6144,-3.6229,-3.6257,-3.6417,-3.6417,-3.5803,-3.1424,-3.1461,-3.1901,-3.2114,-3.2177,-3.2616,-3.2923,-3.2943,-3.2943,-3.3048,-3.3124,-3.3124,-3.3124,-3.3124,-3.3124,-3.3124,-3.3124,-3.3124,-3.342,-3.3809,-3.4437,-3.4818,-3.5416,-3.6006,-3.6304,-3.6417,-3.6417,-3.6417,-3.6417,-3.6417,-3.6417,-3.6417,-3.6417,-3.6417,-3.6417,-3.6417,-3.6329,-3.6119,-3.578,-3.5483,-3.4818,-3.4073,-3.3495,-3.3262,-3.3149,-3.3136,-3.3124,-3.3124,-3.3124,-3.3199,-3.3262,-3.3407,-3.3483,-3.3545,-3.3495,-3.352,-3.3558,-3.352,-3.3458,-3.352,-3.3696,-3.3859,-3.396,-3.4198,-3.4587,-3.4663,-3.4437,-3.4512,-3.4738,-3.4826,-3.4839,-3.5002,-3.5303,-3.5491,-3.5642,-3.5742,-3.6044,-3.6342,-3.638,-3.6417,-3.6417,-3.6417,-3.6417,-3.6417,-3.6417,-3.6417,-3.6417,-3.6417,-3.6417,-3.6417,-3.6216,-3.6103,-3.599,-3.6128,-3.6292,-3.6204,-3.6065,-3.6091,-3.5952,-3.6229,-3.6355,-3.6116,-3.5994,-3.6216,-3.6342,-3.6329,-3.6342,-3.6405,-3.6417,-3.6417,-3.6417,-3.6417,-3.6417,-3.6417,-3.6417,-3.1386,-3.1411,-3.1512,-3.1549,-3.1574,-3.17,-3.1951,-3.234,-3.2403,-3.2616,-3.3036,-3.3124,-3.3124,-3.3124,-3.3124,-3.3124,-3.3124,-3.3124,-3.3124,-3.3332,-3.4299,-3.47,-3.5177,-3.5931,-3.6317,-3.6417,-3.6417,-3.6417,-3.6417,-3.6417,-3.6417,-3.6417,-3.6417,-3.6417,-3.6417,-3.6417,-3.6392,-3.6207,-3.5956,-3.5596,-3.5257,-3.4587,-3.3935,-3.3583,-3.3307,-3.3212,-3.3124,-3.3124,-3.3124,-3.3237,-3.3508,-3.3897,-3.4098,-3.4198,-3.4186,-3.4123,-3.4161,-3.4173,-3.4148,-3.4148,-3.4336,-3.4487,-3.453,-3.4638,-3.4944,-3.5219,-3.5165,-3.524,-3.5345,-3.5345,-3.5454,-3.5755,-3.6031,-3.6044,-3.6191,-3.6191,-3.6342,-3.6392,-3.6405,-3.6417,-3.6417,-3.6465,-3.6452,-3.6452,-3.6499,-3.6499,-3.6499,-3.6499,-3.6512,-3.6465,-3.6417,-3.6417,-3.6465,-3.6417,-3.638,-3.6367,-3.6292,-3.638,-3.6417,-3.6417,-3.6417,-3.6417,-3.6417,-3.6417,-3.6417,-3.6392,-3.6417,-3.6417,-3.6417,-3.6417,-3.6417,-3.6417,-3.6417,-3.6417,-3.6417]},{"header":{"parameterUnit":"m.s-1","parameterCategory":1,"la1":31.0,"la2":29.5877,"lo1":-88.7671,"lo2":-86.6584,"dy":0.0162,"dx":0.0185,"nx":115,"ny":88,"refTime":"2024-03-11T06:00:00:Z","depth":0,"parameterNumber":3,"parameterNumberName":"V-component_of_WINDS"},"data":[0.0,0.0,0.0,0.0,0.0,0.0,0.0,0.0,0.0,0.0,0.0,0.0,0.0,0.0,0.0,0.0,0.0,0.0,0.0,0.0,0.0,0.0,0.0,0.0,0.0,0.0,0.0,0.0,0.0,0.0,0.0,0.0,0.0,0.0,0.0,0.0,0.0,0.0,0.0,0.0,0.0,0.0,0.0,0.0,0.0,0.0,0.0,0.0,0.0,0.0,0.0,0.0,0.0,0.0,0.0,0.0,0.0,0.0,0.0,0.0,0.0,0.0,0.0,0.0,0.0,0.0,0.0,0.0,0.0,0.0,0.0,0.0,0.0,0.0,0.0,0.0,0.0,0.0,0.0,0.0,0.0,0.0,0.0,0.0,0.0,0.0,0.0,0.0,0.0,0.0,0.0,0.0,0.0,0.0,0.0,0.0,0.0,0.0,0.0,0.0,0.0,0.0,0.0,0.0,0.0,0.0,0.0,0.0,0.0,0.0,0.0,0.0,0.0,0.0,0.0,0.0,0.0,0.0,0.0,0.0,0.0,0.0,0.0,0.0,0.0,0.0,0.0,0.0,0.0,0.0,0.0,0.0,0.0,0.0,0.0,0.0,0.0,0.0,0.0,0.0,0.0,0.0,0.0,0.0,0.0,0.0,0.0,0.0,0.0,0.0,0.0,0.0,0.0,0.0,0.0,0.0,0.0,0.0,0.0,0.0,0.0,0.0,0.0,0.0,0.0,0.0,0.0,0.0,0.0,0.0,0.0,0.0,0.0,0.0,0.0,0.0,0.0,0.0,0.0,0.0,0.0,0.0,0.0,0.0,0.0,0.0,0.0,0.0,0.0,0.0,0.0,0.0,0.0,0.0,0.0,0.0,0.0,0.0,0.0,0.0,0.0,0.0,0.0,0.0,0.0,0.0,0.0,0.0,0.0,0.0,0.0,0.0,0.0,0.0,0.0,0.0,0.0,0.0,0.0,0.0,0.0,0.0,0.0,0.0,0.0,0.0,0.0,0.0,0.0,0.0,0.0,0.0,0.0,0.0,0.0,0.0,0.0,0.0,0.0,0.0,0.0,0.0,0.0,0.0,0.0,0.0,0.0,0.0,0.0,0.0,0.0,0.0,0.0,0.0,0.0,0.0,0.0,0.0,0.0,0.0,0.0,0.0,0.0,0.0,0.0,0.0,0.0,0.0,0.0,0.0,0.0,0.0,0.0,0.0,0.0,0.0,0.0,0.0,0.0,0.0,0.0,0.0,0.0,0.0,0.0,0.0,0.0,0.0,0.0,0.0,0.0,0.0,0.0,0.0,0.0,0.0,0.0,0.0,0.0,0.0,0.0,0.0,0.0,0.0,0.0,0.0,0.0,0.0,0.0,0.0,0.0,0.0,0.0,0.0,0.0,0.0,0.0,0.0,0.0,0.0,0.0,0.0,0.0,0.0,0.0,0.0,0.0,0.0,0.0,0.0,0.0,0.0,0.0,0.0,0.0,0.0,0.0,0.0,0.0,0.0,0.0,0.0,0.0,0.0,0.0,0.0,0.0,0.0,0.0,0.0,0.0,0.0,0.0,0.0,0.0,0.0,0.0,0.0,0.0,0.0,0.0,0.0,0.0,0.0,0.0,0.0,0.0,0.0,0.0,0.0,0.0,0.0,0.0,0.0,0.0,0.0,0.0,0.0,0.0,0.0,0.0,0.0,0.0,0.0,0.0,0.0,0.0,0.0,0.0,0.0,0.0,0.0,0.0,0.0,0.0,0.0,0.0,0.0,0.0,0.0,0.0,0.0,0.0,0.0,0.0,0.0,0.0,0.0,0.0,0.0,0.0,0.0,0.0,0.0,0.0,0.0,0.0,0.0,0.0,0.0,0.0,0.0,0.0,0.0,0.0,0.0,0.0,0.0,0.0,0.0,0.0,0.0,0.0,0.0,0.0,0.0,0.0,0.0,0.0,0.0,0.0,0.0,0.0,0.0,0.0,0.0,0.0,0.0,0.0,0.0,0.0,0.0,0.0,0.0,0.0,0.0,0.0,0.0,0.0,0.0,0.0,0.0,0.0,0.0,0.0,0.0,0.0,0.0,0.0,0.0,0.0,0.0,0.0,0.0,0.0,0.0,0.0,0.0,0.0,0.0,0.0,0.0,0.0,0.0,0.0,0.0,0.0,0.0,0.0,0.0,0.0,0.0,0.0,0.0,0.0,0.0,0.0,0.0,0.0,0.0,0.0,0.0,0.0,0.0,0.0,0.0,0.0,0.0,0.0,0.0,0.0,0.0,0.0,0.0,0.0,0.0,0.0,0.0,0.0,0.0,0.0,0.0,0.0,0.0,0.0,0.0,0.0,0.0,0.0,0.0,0.0,0.0,0.0,0.0,0.0,0.0,0.0,0.0,0.0,0.0,0.0,0.0,0.0,0.0,0.0,0.0,0.0,0.0,0.0,0.0,0.0,0.0,0.0,0.0,0.0,0.0,0.0,0.0,0.0,0.0,0.0,0.0,0.0,0.0,0.0,0.0,0.0,0.0,0.0,0.0,0.0,0.0,0.0,0.0,0.0,0.0,0.0,0.0,0.0,0.0,0.0,0.0,0.0,0.0,0.0,0.0,0.0,0.0,0.0,0.0,0.0,0.0,0.0,0.0,0.0,0.0,0.0,0.0,0.0,0.0,0.0,0.0,0.0,0.0,0.0,0.0,0.0,0.0,0.0,0.0,0.0,0.0,0.0,0.0,0.0,0.0,0.0,0.0,0.0,0.0,0.0,0.0,0.0,0.0,0.0,0.0,0.0,0.0,0.0,0.0,0.0,0.0,0.0,0.0,0.0,0.0,0.0,0.0,0.0,0.0,0.0,0.0,0.0,0.0,0.0,0.0,0.0,0.0,0.0,0.0,0.0,0.0,0.0,0.0,0.0,0.0,0.0,0.0,0.0,0.0,0.0,0.0,0.0,0.0,0.0,0.0,0.0,0.0,0.0,0.0,0.0,0.0,0.0,0.0,0.0,0.0,0.0,0.0,0.0,0.0,0.0,0.0,0.0,0.0,0.0,0.0,0.0,0.0,0.0,0.0,0.0,0.0,0.0,0.0,0.0,0.0,0.0,0.0,0.0,0.0,0.0,0.0,0.0,0.0,0.0,0.0,0.0,0.0,0.0,0.0,0.0,0.0,0.0,0.0,0.0,0.0,0.0,0.0,0.0,0.0,0.0,0.0,0.0,0.0,0.0,0.0,0.0,0.0,0.0,0.0,0.0,0.0,0.0,0.0,0.0,0.0,0.0,0.0,0.0,0.0,0.0,0.0,0.0,0.0,0.0,0.0,0.0,0.0,0.0,0.0,0.0,0.0,0.0,0.0,0.0,0.0,0.0,0.0,0.0,0.0,0.0,0.0,0.0,0.0,0.0,0.0,0.0,0.0,0.0,0.0,0.0,0.0,0.0,0.0,0.0,0.0,0.0,0.0,0.0,0.0,0.0,0.0,0.0,0.0,0.0,0.0,0.0,0.0,0.0,0.0,0.0,0.0,0.0,0.0,0.0,0.0,0.0,0.0,0.0,0.0,0.0,0.0,0.0,0.0,0.0,0.0,0.0,0.0,0.0,0.0,0.0,0.0,0.0,0.0,0.0,0.0,0.0,0.0,0.0,0.0,0.0,0.0,0.0,0.0,0.0,0.0,0.0,0.0,0.0,0.0,0.0,0.0,0.0,0.0,0.0,0.0,0.0,0.0,0.0,0.0,0.0,0.0,0.0,0.0,0.0,0.0,0.0,0.0,0.0,0.0,0.0,0.0,0.0,0.0,0.0,0.0,0.0,0.0,0.0,0.0,0.0,0.0,0.0,0.0,0.0,0.0,0.0,0.0,0.0,0.0,0.0,0.0,0.0,0.0,0.0,0.0,0.0,0.0,0.0,0.0,0.0,0.0,0.0,0.0,0.0,0.0,0.0,0.0,0.0,0.0,0.0,0.0,0.0,0.0,0.0,0.0,0.0,0.0,0.0,0.0,0.0,0.0,0.0,0.0,0.0,0.0,0.0,0.0,0.0,0.0,0.0,0.0,0.0,0.0,0.0,0.0,0.0,0.0,0.0,0.0,0.0,0.0,0.0,0.0,0.0,0.0,0.0,0.0,0.0,0.0,0.0,0.0,0.0,0.0,0.0,0.0,0.0,0.0,0.0,0.0,0.0,0.0,0.0,0.0,0.0,0.0,0.0,0.0,0.0,0.0,0.0,0.0,0.0,0.0,0.0,0.0,0.0,0.0,0.0,0.0,0.0,0.0,0.0,0.0,0.0,0.0,1.5433,0.0,0.0,0.0,0.0,0.0,0.0,0.0,0.0,0.0,0.0,0.0,0.0,0.0,0.0,0.0,0.0,0.0,0.0,0.0,0.0,0.0,0.0,0.0,0.0,0.0,0.0,0.0,0.0,0.0,0.0,0.0,0.0,0.0,0.0,0.0,0.0,0.0,0.0,0.0,0.0,0.0,0.0,0.0,0.0,0.0,0.0,0.0,0.0,0.0,0.0,0.0,0.0,0.0,0.0,0.0,0.0,0.0,0.0,0.0,0.0,0.0,0.0,0.0,0.0,0.0,0.0,0.0,0.0,0.0,0.0,0.0,0.0,0.0,0.0,0.0,0.0,0.0,0.0,0.0,0.0,0.0,0.0,0.0,0.0,0.0,0.0,0.0,0.0,0.0,0.0,0.0,0.0,0.0,0.0,0.0,0.0,0.0,0.0,0.0,0.0,0.0,0.0,0.0,0.0,0.0,0.0,0.0,0.0,0.0,0.0,1.7052,1.6771,1.6775,1.661,1.6231,0.0,0.0,0.0,0.0,0.0,0.0,0.0,0.0,0.0,0.0,0.0,0.0,0.0,0.0,0.0,0.0,0.0,0.0,0.0,0.0,0.0,0.0,0.0,0.0,0.0,0.0,0.0,0.0,0.0,0.0,0.0,0.0,0.0,0.0,0.0,0.0,0.0,0.0,0.0,0.0,0.0,0.0,0.0,0.0,0.0,0.0,0.0,0.0,0.0,0.0,0.0,0.0,0.0,0.0,0.0,0.0,0.0,0.0,0.0,0.0,0.0,0.0,0.0,0.0,0.0,0.0,0.0,0.0,0.0,0.0,0.0,0.0,0.0,0.0,0.0,0.0,0.0,0.0,0.0,0.0,0.0,0.0,0.0,0.0,0.0,0.0,0.0,0.0,0.0,0.0,0.0,0.0,0.0,0.0,0.0,0.0,0.0,0.0,0.0,0.0,0.0,0.0,0.0,0.0,0.0,0.0,0.0,0.0,0.0,0.0,0.0,0.0,1.7789,1.754,1.6987,0.0,0.0,0.0,0.0,0.0,0.0,0.0,0.0,0.0,0.0,0.0,0.0,0.0,0.0,0.0,0.0,0.0,0.0,0.0,0.0,0.0,0.0,0.0,0.0,0.0,0.0,0.0,0.0,0.0,0.0,0.0,0.0,0.0,0.0,0.0,0.0,0.0,0.0,0.0,0.0,0.0,0.0,0.0,0.0,0.0,0.0,0.0,0.0,0.0,0.0,0.0,0.0,0.0,0.0,0.0,0.0,0.0,0.0,0.0,0.0,0.0,0.0,0.0,0.0,0.0,0.0,0.0,0.0,0.0,0.0,0.0,0.0,0.0,0.0,0.0,0.0,0.0,0.0,0.0,0.0,0.0,0.0,0.0,0.0,0.0,0.0,0.0,0.0,0.0,0.0,0.0,0.0,0.0,0.0,0.0,0.0,0.0,0.0,0.0,0.0,0.0,0.0,0.0,0.0,0.0,0.0,0.0,0.0,0.0,0.0,1.7789,1.7789,1.7789,0.0,1.7665,0.0,0.0,0.0,0.0,0.0,0.0,0.0,0.0,0.0,0.0,0.0,0.0,0.0,0.0,0.0,0.0,0.0,0.0,0.0,0.0,0.0,0.0,0.0,0.0,0.0,0.0,0.0,0.0,0.0,0.0,0.0,0.0,0.0,0.0,0.0,0.0,0.0,0.0,0.0,0.0,0.0,0.0,0.0,0.0,0.0,0.0,0.0,0.0,0.0,0.0,0.0,0.0,0.0,0.0,0.0,0.0,0.0,0.0,0.0,0.0,0.0,0.0,0.0,0.0,0.0,0.0,0.0,0.0,0.0,0.0,0.0,0.0,0.0,0.0,0.0,0.0,0.0,0.0,0.0,0.0,0.0,0.0,0.0,0.0,0.0,0.0,0.0,0.0,0.0,0.0,0.0,0.0,0.0,0.0,0.0,0.0,0.0,0.0,0.0,0.0,0.0,0.0,0.0,0.0,0.0,0.0,0.0,0.0,0.0,0.0,1.7789,1.7789,1.7789,1.7789,0.0,0.0,0.0,0.0,0.0,0.0,0.0,0.0,0.0,0.0,0.0,0.0,0.0,0.0,0.0,0.0,0.0,0.0,0.0,0.0,0.0,0.0,0.0,0.0,0.0,0.0,0.0,0.0,0.0,0.0,0.0,0.0,0.0,0.0,0.0,0.0,0.0,0.0,0.0,0.0,0.0,0.0,0.0,0.0,0.0,0.0,0.0,0.0,0.0,0.0,0.0,0.0,0.0,0.0,0.0,0.0,0.0,0.0,0.0,0.0,0.0,0.0,0.0,0.0,0.0,0.0,0.0,0.0,0.0,0.0,0.0,0.0,0.0,0.0,0.0,0.0,0.0,0.0,0.0,0.0,0.0,0.0,0.0,0.0,0.0,0.0,0.0,0.0,0.0,0.0,0.0,0.0,0.0,0.0,0.0,0.0,0.0,0.0,0.0,0.0,0.0,0.0,0.0,0.0,0.0,0.0,0.0,0.0,0.0,0.0,1.7986,1.8087,1.8087,1.8099,1.8003,1.7811,0.0,0.0,0.0,0.0,0.0,0.0,0.0,0.0,0.0,0.0,0.0,0.0,0.0,0.0,0.0,0.0,0.0,0.0,0.0,0.0,0.0,0.0,0.0,0.0,0.0,0.0,0.0,0.0,0.0,0.0,0.0,0.0,0.0,0.0,0.0,0.0,0.0,0.0,0.0,0.0,0.0,0.0,0.0,0.0,0.0,0.0,0.0,0.0,0.0,0.0,0.0,0.0,0.0,0.0,0.0,0.0,0.0,0.0,0.0,0.0,0.0,0.0,0.0,0.0,0.0,0.0,0.0,0.0,0.0,0.0,0.0,0.0,0.0,0.0,0.0,0.0,0.0,0.0,0.0,0.0,0.0,0.0,0.0,0.0,0.0,0.0,0.0,0.0,0.0,0.0,0.0,0.0,0.0,0.0,0.0,0.0,0.0,0.0,0.0,0.0,0.0,0.0,0.0,0.0,0.0,0.0,0.0,0.0,1.7822,1.8488,1.8855,1.886,1.8843,1.8521,0.0,0.0,0.0,0.0,0.0,0.0,0.0,0.0,0.0,0.0,0.0,0.0,0.0,0.0,0.0,0.0,0.0,0.0,0.0,0.0,0.0,0.0,0.0,0.0,0.0,0.0,0.0,0.0,0.0,0.0,0.0,0.0,0.0,0.0,0.0,0.0,0.0,0.0,0.0,0.0,0.0,0.0,0.0,0.0,0.0,0.0,0.0,0.0,0.0,0.0,0.0,0.0,0.0,0.0,0.0,0.0,0.0,0.0,0.0,0.0,0.0,0.0,0.0,0.0,0.0,0.0,0.0,0.0,0.0,0.0,0.0,0.0,0.0,0.0,0.0,0.0,0.0,0.0,0.0,0.0,0.0,0.0,0.0,0.0,0.0,0.0,0.0,0.0,0.0,0.0,0.0,0.0,0.0,0.0,0.0,0.0,0.0,0.0,0.0,0.0,0.0,0.0,0.0,0.0,0.0,0.0,0.0,0.0,0.0,1.8504,1.9232,1.9608,1.9592,1.9147,1.8758,0.0,0.0,0.0,0.0,0.0,0.0,0.0,0.0,0.0,0.0,0.0,0.0,0.0,0.0,0.0,0.0,0.0,0.0,0.0,0.0,0.0,0.0,0.0,0.0,0.0,0.0,0.0,0.0,0.0,0.0,0.0,0.0,0.0,0.0,0.0,0.0,0.0,0.0,0.0,0.0,0.0,0.0,0.0,0.0,0.0,0.0,0.0,0.0,0.0,0.0,0.0,0.0,0.0,0.0,0.0,0.0,0.0,0.0,0.0,0.0,0.0,0.0,0.0,0.0,0.0,0.0,0.0,0.0,0.0,0.0,0.0,0.0,0.0,0.0,0.0,0.0,0.0,0.0,0.0,0.0,0.0,0.0,0.0,0.0,0.0,0.0,0.0,0.0,0.0,0.0,0.0,0.0,0.0,0.0,0.0,0.0,0.0,0.0,0.0,0.0,0.0,0.0,0.0,0.0,0.0,0.0,0.0,0.0,0.0,1.9232,0.0,2.0386,2.0352,1.9672,1.9147,0.0,0.0,0.0,0.0,0.0,0.0,0.0,0.0,0.0,0.0,0.0,0.0,0.0,0.0,0.0,0.0,0.0,0.0,0.0,0.0,0.0,0.0,0.0,0.0,0.0,0.0,0.0,0.0,0.0,0.0,0.0,0.0,0.0,0.0,0.0,0.0,0.0,0.0,0.0,0.0,0.0,0.0,0.0,0.0,0.0,0.0,0.0,0.0,0.0,0.0,0.0,0.0,0.0,0.0,0.0,0.0,0.0,0.0,0.0,0.0,0.0,0.0,0.0,0.0,0.0,0.0,0.0,0.0,0.0,0.0,0.0,0.0,0.0,0.0,0.0,0.0,0.0,0.0,0.0,0.0,0.0,0.0,0.0,0.0,0.0,0.0,0.0,0.0,0.0,0.0,0.0,0.0,0.0,0.0,0.0,0.0,0.0,0.0,0.0,0.0,0.0,0.0,0.0,0.0,0.0,0.0,0.0,0.0,1.8577,1.998,2.0788,2.119,2.1173,2.0433,1.9688,0.0,0.0,0.0,0.0,0.0,0.0,0.0,0.0,0.0,0.0,0.0,0.0,0.0,0.0,0.0,0.0,0.0,0.0,0.0,0.0,0.0,0.0,0.0,0.0,0.0,0.0,0.0,0.0,0.0,0.0,0.0,0.0,0.0,0.0,0.0,0.0,0.0,0.0,0.0,0.0,0.0,0.0,0.0,0.0,0.0,0.0,0.0,0.0,0.0,0.0,0.0,0.0,0.0,0.0,0.0,0.0,0.0,0.0,0.0,0.0,0.0,0.0,0.0,0.0,0.0,0.0,0.0,0.0,0.0,0.0,0.0,0.0,0.0,0.0,0.0,0.0,0.0,0.0,0.0,0.0,0.0,0.0,0.0,0.0,0.0,0.0,0.0,0.0,0.0,0.0,0.0,0.0,0.0,0.0,0.0,0.0,0.0,0.0,0.0,0.0,0.0,0.0,0.0,0.0,0.0,0.0,0.0,0.0,0.0,2.0822,2.1637,2.2024,2.2007,2.1343,2.0602,0.0,0.0,0.0,0.0,0.0,0.0,0.0,0.0,0.0,0.0,0.0,0.0,0.0,0.0,0.0,0.0,0.0,0.0,0.0,0.0,0.0,0.0,0.0,0.0,0.0,0.0,0.0,0.0,0.0,0.0,0.0,0.0,0.0,0.0,0.0,0.0,0.0,0.0,0.0,0.0,0.0,0.0,0.0,0.0,0.0,0.0,0.0,0.0,0.0,0.0,0.0,0.0,0.0,0.0,0.0,0.0,0.0,0.0,0.0,0.0,0.0,0.0,0.0,0.0,0.0,0.0,0.0,0.0,0.0,0.0,0.0,0.0,0.0,0.0,0.0,0.0,0.0,0.0,0.0,0.0,0.0,0.0,0.0,0.0,0.0,0.0,0.0,0.0,0.0,0.0,0.0,0.0,0.0,0.0,0.0,0.0,0.0,0.0,0.0,0.0,0.0,0.0,0.0,0.0,0.0,0.0,0.0,0.0,0.0,2.2061,2.2547,2.2813,2.2841,2.216,2.131,2.0226,0.0,0.0,0.0,0.0,0.0,0.0,0.0,0.0,0.0,0.0,0.0,0.0,0.0,0.0,0.0,0.0,0.0,0.0,0.0,0.0,0.0,0.0,0.0,0.0,0.0,0.0,0.0,0.0,0.0,0.0,0.0,0.0,0.0,0.0,0.0,0.0,0.0,0.0,0.0,0.0,0.0,0.0,0.0,0.0,0.0,0.0,0.0,0.0,0.0,0.0,0.0,0.0,0.0,0.0,0.0,0.0,0.0,0.0,0.0,0.0,0.0,0.0,0.0,0.0,0.0,0.0,0.0,0.0,0.0,0.0,0.0,0.0,0.0,0.0,0.0,0.0,0.0,0.0,0.0,0.0,0.0,0.0,0.0,0.0,0.0,0.0,0.0,0.0,0.0,0.0,0.0,0.0,0.0,0.0,0.0,0.0,0.0,0.0,0.0,0.0,0.0,0.0,0.0,0.0,0.0,0.0,0.0,0.0,2.3694,2.3711,2.3689,2.3659,2.2952,2.1871,0.0,0.0,0.0,0.0,0.0,0.0,0.0,0.0,0.0,0.0,0.0,0.0,0.0,0.0,0.0,0.0,0.0,0.0,0.0,0.0,0.0,0.0,0.0,0.0,0.0,0.0,0.0,0.0,0.0,0.0,0.0,0.0,0.0,0.0,0.0,0.0,0.0,0.0,0.0,0.0,0.0,0.0,0.0,0.0,0.0,0.0,0.0,0.0,0.0,0.0,0.0,0.0,0.0,0.0,0.0,0.0,0.0,0.0,0.0,0.0,0.0,0.0,0.0,0.0,0.0,0.0,0.0,0.0,0.0,0.0,0.0,0.0,0.0,0.0,0.0,0.0,0.0,0.0,0.0,0.0,0.0,0.0,0.0,0.0,0.0,0.0,0.0,0.0,0.0,0.0,0.0,0.0,0.0,0.0,0.0,0.0,0.0,0.0,0.0,0.0,0.0,0.0,0.0,0.0,0.0,0.0,0.0,0.0,0.0,2.6062,2.6163,2.5649,2.4616,2.3852,2.3007,0.0,0.0,0.0,0.0,0.0,0.0,0.0,0.0,0.0,0.0,0.0,0.0,0.0,0.0,0.0,0.0,0.0,0.0,0.0,0.0,0.0,0.0,0.0,0.0,0.0,0.0,0.0,0.0,0.0,0.0,0.0,0.0,0.0,0.0,0.0,0.0,0.0,0.0,0.0,0.0,0.0,0.0,0.0,0.0,0.0,0.0,0.0,0.0,0.0,0.0,0.0,0.0,0.0,0.0,0.0,0.0,0.0,0.0,0.0,0.0,0.0,0.0,0.0,0.0,0.0,0.0,0.0,0.0,0.0,0.0,0.0,0.0,0.0,0.0,0.0,0.0,0.0,0.0,0.0,0.0,0.0,0.0,0.0,0.0,0.0,0.0,0.0,0.0,0.0,0.0,0.0,0.0,0.0,0.0,0.0,0.0,0.0,0.0,0.0,0.0,0.0,0.0,0.0,0.0,0.0,0.0,0.0,0.0,2.5409,2.7068,2.7819,2.7782,2.6937,2.588,2.4527,0.0,0.0,0.0,0.0,0.0,0.0,0.0,0.0,0.0,0.0,0.0,0.0,0.0,0.0,0.0,0.0,0.0,0.0,0.0,0.0,0.0,0.0,0.0,0.0,0.0,0.0,0.0,0.0,0.0,0.0,0.0,0.0,0.0,0.0,0.0,0.0,0.0,0.0,0.0,0.0,0.0,0.0,0.0,0.0,0.0,0.0,0.0,0.0,0.0,0.0,0.0,0.0,0.0,0.0,0.0,0.0,0.0,0.0,0.0,0.0,0.0,0.0,0.0,0.0,0.0,0.0,0.0,0.0,0.0,0.0,0.0,0.0,0.0,0.0,0.0,0.0,0.0,0.0,0.0,0.0,0.0,0.0,0.0,0.0,0.0,0.0,0.0,0.0,0.0,0.0,0.0,0.0,0.0,0.0,0.0,0.0,0.0,0.0,0.0,0.0,0.0,0.0,0.0,0.0,0.0,0.0,0.0,0.0,2.6432,2.7359,2.8969,2.9832,2.978,2.8255,2.6117,0.0,0.0,0.0,0.0,0.0,0.0,0.0,0.0,0.0,0.0,0.0,0.0,0.0,0.0,0.0,0.0,0.0,0.0,0.0,0.0,0.0,0.0,0.0,0.0,0.0,0.0,0.0,0.0,0.0,0.0,0.0,0.0,0.0,0.0,0.0,0.0,0.0,0.0,0.0,0.0,0.0,0.0,0.0,0.0,0.0,0.0,0.0,0.0,0.0,0.0,0.0,0.0,0.0,0.0,0.0,0.0,0.0,0.0,0.0,0.0,0.0,0.0,0.0,0.0,0.0,0.0,0.0,0.0,0.0,0.0,0.0,0.0,0.0,0.0,0.0,0.0,0.0,0.0,0.0,0.0,0.0,0.0,0.0,0.0,0.0,0.0,0.0,0.0,0.0,0.0,0.0,0.0,0.0,0.0,0.0,0.0,0.0,0.0,0.0,0.0,0.0,0.0,0.0,0.0,0.0,0.0,0.0,0.0,2.7026,2.8938,3.0006,3.0595,3.0646,2.8595,2.6907,0.0,0.0,0.0,0.0,0.0,0.0,0.0,0.0,0.0,0.0,0.0,0.0,0.0,0.0,0.0,0.0,0.0,0.0,0.0,0.0,0.0,0.0,0.0,0.0,0.0,0.0,0.0,0.0,0.0,0.0,0.0,0.0,0.0,0.0,0.0,0.0,0.0,0.0,0.0,0.0,0.0,0.0,0.0,0.0,0.0,0.0,0.0,0.0,1.7,0.0,0.0,0.0,0.0,0.0,0.0,0.0,0.0,0.0,0.0,0.0,0.0,0.0,0.0,0.0,0.0,0.0,0.0,0.0,0.0,0.0,0.0,0.0,0.0,0.0,0.0,0.0,0.0,0.0,0.0,0.0,0.0,0.0,0.0,0.0,0.0,0.0,0.0,0.0,0.0,0.0,0.0,0.0,0.0,0.0,0.0,0.0,0.0,0.0,0.0,0.0,0.0,0.0,0.0,0.0,0.0,0.0,0.0,0.0,2.7954,2.9472,3.0698,3.1376,3.1394,2.9633,2.7956,0.0,0.0,0.0,0.0,0.0,0.0,0.0,0.0,0.0,0.0,0.0,0.0,0.0,0.0,0.0,0.0,0.0,0.0,0.0,0.0,0.0,0.0,0.0,0.0,0.0,0.0,0.0,0.0,0.0,0.0,0.0,0.0,0.0,0.0,0.0,0.0,0.0,0.0,0.0,0.0,0.0,0.0,0.0,0.0,0.0,0.0,0.0,0.0,0.0,0.0,0.0,0.0,0.0,0.0,0.0,0.0,0.0,0.0,0.0,0.0,0.0,0.0,0.0,0.0,0.0,0.0,0.0,0.0,0.0,0.0,0.0,0.0,0.0,0.0,0.0,0.0,0.0,0.0,0.0,0.0,0.0,0.0,0.0,0.0,0.0,0.0,0.0,0.0,0.0,0.0,0.0,0.0,0.0,0.0,0.0,0.0,0.0,0.0,0.0,0.0,0.0,0.0,0.0,0.0,0.0,0.0,0.0,2.7215,2.8765,2.9523,3.1061,3.1983,3.2073,3.0677,2.8907,2.6841,0.0,0.0,0.0,0.0,0.0,0.0,0.0,0.0,0.0,0.0,0.0,0.0,0.0,0.0,0.0,0.0,0.0,0.0,0.0,0.0,0.0,0.0,0.0,0.0,0.0,0.0,0.0,0.0,0.0,0.0,0.0,0.0,0.0,0.0,0.0,0.0,0.0,0.0,1.6029,1.8115,0.0,0.0,0.0,0.0,0.0,0.0,0.0,0.0,2.0694,0.0,0.0,0.0,0.0,0.0,0.0,0.0,0.0,0.0,0.0,0.0,0.0,0.0,0.0,0.0,0.0,0.0,0.0,0.0,0.0,0.0,0.0,0.0,0.0,0.0,0.0,0.0,0.0,0.0,0.0,0.0,0.0,0.0,0.0,0.0,0.0,0.0,0.0,0.0,0.0,0.0,0.0,0.0,0.0,0.0,0.0,0.0,0.0,0.0,0.0,0.0,0.0,0.0,0.0,0.0,0.0,2.4974,2.7214,2.8765,2.9506,3.1061,3.1983,3.2056,3.0677,2.9166,2.7581,0.0,0.0,0.0,0.0,0.0,0.0,0.0,0.0,0.0,0.0,0.0,0.0,0.0,0.0,0.0,0.0,0.0,0.0,0.0,0.0,0.0,0.0,0.0,0.0,0.0,0.0,0.0,0.0,0.0,0.0,0.0,0.0,0.0,0.0,0.0,0.0,0.0,0.0,0.0,1.9638,2.0658,0.0,0.0,0.0,0.0,0.0,0.0,0.0,0.0,2.1464,0.0,0.0,0.0,0.0,0.0,0.0,0.0,0.0,0.0,0.0,0.0,0.0,0.0,0.0,0.0,0.0,0.0,0.0,0.0,0.0,0.0,0.0,0.0,0.0,0.0,0.0,0.0,0.0,0.0,0.0,0.0,0.0,0.0,0.0,0.0,0.0,0.0,0.0,0.0,0.0,0.0,0.0,0.0,0.0,0.0,0.0,0.0,0.0,0.0,0.0,0.0,0.0,0.0,0.0,0.0,2.4964,2.7593,2.9144,2.9541,3.1043,3.1929,3.2073,3.0627,2.9204,0.0,0.0,0.0,0.0,0.0,0.0,0.0,0.0,0.0,0.0,0.0,0.0,0.0,0.0,0.0,0.0,0.0,0.0,0.0,0.0,0.0,0.0,0.0,0.0,0.0,0.0,0.0,0.0,0.0,0.0,0.0,0.0,0.0,0.0,0.0,0.0,0.0,0.0,0.0,0.0,2.1363,2.2721,2.3538,0.0,0.0,0.0,0.0,0.0,0.0,2.33,2.2914,0.0,0.0,0.0,0.0,0.0,0.0,0.0,0.0,0.0,0.0,0.0,0.0,0.0,0.0,0.0,0.0,0.0,0.0,0.0,0.0,0.0,0.0,0.0,0.0,0.0,0.0,0.0,0.0,0.0,0.0,0.0,0.0,0.0,0.0,0.0,0.0,0.0,0.0,0.0,0.0,0.0,0.0,0.0,0.0,0.0,0.0,0.0,0.0,0.0,0.0,0.0,0.0,0.0,0.0,0.0,2.4908,2.7873,2.9455,2.9541,3.0971,3.1856,3.202,3.0594,2.919,0.0,0.0,0.0,0.0,0.0,0.0,0.0,0.0,0.0,0.0,0.0,0.0,0.0,0.0,0.0,0.0,0.0,0.0,0.0,0.0,0.0,0.0,0.0,0.0,0.0,0.0,0.0,0.0,0.0,0.0,0.0,0.0,0.0,0.0,0.0,0.0,0.0,0.0,0.0,0.0,0.0,2.4566,2.5503,2.619,0.0,0.0,0.0,0.0,2.5723,2.5089,0.0,0.0,0.0,0.0,0.0,0.0,0.0,0.0,0.0,0.0,0.0,0.0,0.0,0.0,0.0,0.0,0.0,0.0,0.0,0.0,0.0,0.0,0.0,0.0,0.0,0.0,0.0,0.0,0.0,0.0,0.0,0.0,0.0,0.0,0.0,0.0,0.0,0.0,0.0,0.0,0.0,0.0,0.0,0.0,0.0,0.0,0.0,0.0,0.0,0.0,0.0,0.0,0.0,0.0,0.0,0.0,2.4767,2.769,2.9281,2.9472,3.0863,3.171,3.1895,3.0542,2.9176,0.0,0.0,0.0,0.0,0.0,0.0,0.0,0.0,0.0,0.0,0.0,0.0,0.0,0.0,0.0,0.0,0.0,0.0,0.0,0.0,0.0,0.0,0.0,0.0,0.0,0.0,0.0,0.0,0.0,0.0,0.0,0.0,0.0,0.0,0.0,0.0,0.0,0.0,0.0,0.0,0.0,2.474,2.6264,2.6539,2.6602,0.0,0.0,2.6565,2.6484,2.6382,0.0,0.0,0.0,0.0,0.0,0.0,0.0,0.0,0.0,0.0,0.0,0.0,0.0,0.0,0.0,0.0,0.0,0.0,0.0,0.0,0.0,0.0,0.0,0.0,0.0,0.0,0.0,0.0,0.0,0.0,0.0,0.0,0.0,0.0,0.0,0.0,0.0,0.0,0.0,0.0,0.0,0.0,0.0,0.0,0.0,0.0,0.0,0.0,0.0,0.0,0.0,0.0,0.0,0.0,0.0,2.3366,2.5258,2.7862,2.9468,2.9965,3.1048,3.1673,3.182,3.0508,2.916,0.0,0.0,0.0,0.0,0.0,0.0,0.0,0.0,0.0,0.0,0.0,0.0,0.0,0.0,0.0,0.0,0.0,0.0,0.0,0.0,0.0,0.0,0.0,0.0,0.0,0.0,0.0,0.0,0.0,0.0,0.0,0.0,0.0,0.0,0.0,0.0,0.0,0.0,0.0,0.0,0.0,0.0,2.7739,2.8345,0.0,0.0,0.0,2.9329,2.931,0.0,0.0,0.0,0.0,0.0,0.0,0.0,0.0,0.0,0.0,0.0,0.0,0.0,0.0,0.0,0.0,0.0,0.0,0.0,0.0,0.0,0.0,0.0,0.0,0.0,0.0,0.0,0.0,0.0,0.0,0.0,0.0,0.0,0.0,0.0,0.0,0.0,0.0,0.0,0.0,0.0,0.0,0.0,0.0,0.0,0.0,0.0,0.0,0.0,0.0,0.0,0.0,0.0,0.0,0.0,0.0,0.0,2.5672,2.7964,2.9532,3.0334,3.1126,3.1579,3.1728,3.0474,0.0,0.0,0.0,0.0,0.0,0.0,0.0,0.0,0.0,0.0,0.0,0.0,0.0,0.0,0.0,0.0,0.0,0.0,0.0,0.0,0.0,0.0,0.0,0.0,0.0,0.0,0.0,1.2724,0.0,0.0,0.0,0.0,0.0,0.0,0.0,0.0,0.0,0.0,0.0,0.0,0.0,0.0,2.7703,2.9115,2.9989,3.0723,0.0,0.0,3.1403,3.1403,3.0393,2.9519,0.0,0.0,0.0,0.0,0.0,0.0,0.0,0.0,0.0,0.0,0.0,0.0,0.0,0.0,0.0,0.0,0.0,0.0,0.0,0.0,0.0,0.0,0.0,0.0,0.0,0.0,0.0,0.0,0.0,0.0,0.0,0.0,0.0,0.0,0.0,0.0,0.0,0.0,0.0,0.0,0.0,0.0,0.0,0.0,0.0,0.0,0.0,0.0,0.0,0.0,0.0,0.0,0.0,0.0,0.0,2.5625,2.7842,2.9403,3.019,3.094,3.1411,3.1564,3.0317,2.8981,0.0,0.0,0.0,0.0,0.0,0.0,0.0,0.0,0.0,0.0,0.0,0.0,0.0,0.0,0.0,0.0,0.0,0.0,0.0,0.0,0.0,0.0,0.0,0.0,0.0,0.0,0.0,0.0,0.0,0.0,0.0,0.0,0.0,0.0,0.0,0.0,0.0,0.0,0.0,0.0,0.0,2.9152,3.0008,3.0815,3.136,0.0,0.0,3.1403,3.1403,3.1323,3.0993,3.0246,0.0,0.0,0.0,0.0,0.0,0.0,0.0,0.0,0.0,0.0,0.0,0.0,0.0,0.0,0.0,0.0,0.0,0.0,0.0,0.0,0.0,0.0,0.0,0.0,0.0,0.0,0.0,0.0,0.0,0.0,0.0,0.0,0.0,0.0,0.0,0.0,0.0,0.0,0.0,0.0,0.0,0.0,0.0,0.0,0.0,0.0,0.0,0.0,0.0,0.0,0.0,0.0,0.0,2.434,2.6268,2.8079,2.9604,3.0775,3.114,3.137,3.1538,3.0676,2.9591,0.0,0.0,0.0,0.0,0.0,0.0,0.0,0.0,0.0,0.0,0.0,0.0,0.0,0.0,0.0,0.0,0.0,0.0,0.0,0.0,0.0,0.0,0.0,0.0,0.0,0.0,0.0,0.0,1.5686,1.6101,1.642,0.0,0.0,0.0,0.0,0.0,0.0,0.0,0.0,0.0,0.0,2.9812,3.2087,3.2669,0.0,0.0,3.4426,3.4229,3.3683,3.3201,3.2614,3.1794,3.1005,0.0,0.0,0.0,0.0,0.0,0.0,0.0,0.0,0.0,0.0,0.0,0.0,0.0,0.0,0.0,0.0,0.0,0.0,0.0,0.0,0.0,0.0,0.0,0.0,0.0,0.0,0.0,0.0,0.0,0.0,0.0,0.0,0.0,0.0,0.0,0.0,0.0,0.0,0.0,0.0,0.0,0.0,0.0,0.0,0.0,0.0,0.0,0.0,0.0,0.0,0.0,0.0,2.4812,2.7012,2.835,2.9839,3.1498,3.1574,3.1672,3.1805,3.1221,3.0179,0.0,0.0,0.0,0.0,0.0,0.0,0.0,0.0,0.0,0.0,0.0,0.0,0.0,0.0,0.0,0.0,0.0,0.0,0.0,0.0,0.0,0.0,0.0,0.0,0.0,0.0,0.0,0.0,1.6762,1.7257,1.7264,0.0,0.0,0.0,0.0,0.0,0.0,0.0,0.0,0.0,0.0,3.1243,3.3476,3.4211,3.4963,3.6138,3.6285,3.6083,3.5481,3.4692,3.388,3.3091,0.0,0.0,0.0,0.0,0.0,0.0,0.0,0.0,0.0,0.0,0.0,0.0,0.0,0.0,0.0,0.0,0.0,0.0,0.0,0.0,0.0,0.0,0.0,0.0,0.0,0.0,0.0,0.0,0.0,0.0,1.5554,0.0,0.0,0.0,0.0,0.0,0.0,0.0,0.0,0.0,0.0,0.0,0.0,0.0,0.0,0.0,0.0,0.0,0.0,0.0,0.0,0.0,0.0,2.5575,2.7739,2.8619,3.0093,3.2175,3.2276,3.2394,3.2556,3.1933,3.0659,2.865,0.0,0.0,0.0,0.0,0.0,0.0,0.0,0.0,0.0,0.0,0.0,0.0,0.0,0.0,0.0,0.0,0.0,0.0,0.0,0.0,0.0,0.0,0.0,0.0,0.0,0.0,1.6835,1.7612,1.8108,0.0,0.0,0.0,0.0,0.0,0.0,0.0,0.0,0.0,0.0,3.1702,3.3715,3.3844,3.5202,3.6233,3.634,3.6321,3.6303,3.6285,3.5555,3.4711,0.0,0.0,0.0,0.0,0.0,0.0,0.0,0.0,0.0,0.0,0.0,0.0,0.0,0.0,0.0,0.0,0.0,0.0,0.0,0.0,0.0,0.0,0.0,0.0,0.0,0.0,0.0,1.9396,1.8848,0.0,0.0,0.0,0.0,0.0,0.0,0.0,0.0,0.0,0.0,0.0,2.5592,2.5828,0.0,0.0,0.0,0.0,0.0,0.0,0.0,0.0,0.0,0.0,0.0,0.0,2.6556,2.7824,2.9567,3.1075,3.2259,3.2763,3.3121,3.3308,3.2647,3.1158,2.8792,0.0,0.0,0.0,0.0,0.0,0.0,0.0,0.0,0.0,0.0,0.0,0.0,0.0,0.0,0.0,0.0,0.0,0.0,0.0,0.0,0.0,0.0,0.0,0.0,0.0,1.7619,0.0,0.0,0.0,0.0,0.0,0.0,0.0,0.0,0.0,0.0,0.0,2.8906,2.9684,3.2067,3.4115,3.5172,3.6226,3.7074,0.0,0.0,0.0,0.0,0.0,0.0,0.0,0.0,0.0,0.0,0.0,0.0,0.0,0.0,3.0594,2.9071,2.8804,2.8804,2.8773,0.0,0.0,0.0,0.0,0.0,0.0,0.0,0.0,0.0,0.0,0.0,0.0,0.0,0.0,2.2429,0.0,2.0893,0.0,0.0,0.0,0.0,0.0,0.0,0.0,0.0,2.6556,2.73,2.8265,2.8264,2.8264,0.0,2.801,2.6759,0.0,0.0,0.0,0.0,0.0,0.0,0.0,0.0,2.7452,2.8956,3.0446,3.1799,3.3021,3.3525,3.3863,3.4014,3.2903,3.1557,3.0028,2.7715,2.5829,0.0,0.0,0.0,0.0,0.0,0.0,0.0,0.0,0.0,0.0,0.0,0.0,0.0,0.0,0.0,0.0,0.0,0.0,0.0,0.0,0.0,0.0,0.0,1.9601,0.0,0.0,0.0,0.0,0.0,0.0,0.0,0.0,0.0,2.586,2.79,2.9886,3.1242,3.3191,3.4994,3.6306,0.0,0.0,0.0,0.0,0.0,0.0,0.0,3.7127,3.689,3.6586,3.6464,3.6658,3.618,3.5609,3.5085,0.0,0.0,3.1569,3.1125,3.1111,3.1084,3.2154,3.3042,3.3002,3.3617,3.4163,0.0,0.0,0.0,0.0,0.0,0.0,0.0,0.0,2.6099,2.5761,0.0,2.4205,0.0,0.0,0.0,0.0,0.0,2.5439,0.0,0.0,2.9128,2.9907,3.1224,3.1309,3.1326,3.1258,3.0581,2.982,2.8976,2.6877,0.0,0.0,0.0,0.0,0.0,0.0,2.8282,3.1038,3.1292,3.2357,3.437,3.4506,3.4583,3.464,3.2809,3.1908,3.2057,2.9451,2.7331,2.591,2.3813,0.0,0.0,0.0,0.0,0.0,0.0,0.0,0.0,0.0,0.0,0.0,0.0,0.0,0.0,0.0,0.0,0.0,0.0,0.0,0.0,2.0876,0.0,0.0,0.0,0.0,0.0,0.0,0.0,0.0,0.0,0.0,2.911,2.9789,3.1057,3.336,0.0,0.0,0.0,0.0,3.8437,3.8437,3.8455,3.8492,3.8476,3.782,3.7585,3.8332,0.0,0.0,3.7948,3.7952,3.7864,3.7864,3.781,3.6929,3.4022,3.3475,3.3373,3.3317,3.4,3.4431,3.4503,3.5272,3.5777,3.2547,0.0,0.0,0.0,0.0,2.9905,2.9905,2.9888,2.9702,2.9313,2.8755,2.7824,0.0,0.0,0.0,0.0,0.0,0.0,2.9736,3.1362,3.1884,3.2645,3.3558,3.4078,3.4083,3.3541,3.3339,3.2577,3.1362,3.0702,2.8907,2.6133,0.0,0.0,0.0,0.0,3.0345,3.1224,3.2747,3.3846,3.4472,3.5013,3.5152,3.4874,3.3865,3.2945,3.2073,3.0341,2.8755,2.7414,2.5277,0.0,0.0,0.0,0.0,0.0,0.0,0.0,0.0,0.0,0.0,0.0,0.0,0.0,0.0,0.0,0.0,0.0,0.0,0.0,2.173,2.2391,2.2868,0.0,0.0,0.0,0.0,0.0,0.0,0.0,0.0,0.0,3.2041,3.2461,3.2849,0.0,0.0,3.6882,3.7085,3.8289,3.911,3.911,3.9513,0.0,0.0,3.9553,3.9427,3.9662,3.9481,3.9374,3.9535,3.9535,3.9498,3.9498,3.9498,3.9175,3.8349,3.72,3.6534,3.6517,3.7091,3.763,3.7702,3.8295,3.8798,3.635,3.3945,3.3178,3.287,3.2849,3.2929,3.2949,3.2949,3.2949,3.2527,3.1799,3.1072,3.0311,2.955,2.8805,0.0,0.0,0.0,3.2205,3.3626,3.4387,3.5131,3.5842,3.6315,3.6282,3.5825,3.556,3.495,3.407,3.3461,3.2056,2.9837,0.0,0.0,2.9599,3.0937,3.1918,3.2527,3.3833,3.4641,3.4928,3.5363,3.5508,3.5262,3.4662,3.3864,3.283,3.1551,3.0229,2.8832,2.7081,2.5273,0.0,0.0,0.0,0.0,0.0,0.0,0.0,0.0,0.0,0.0,0.0,1.6316,0.0,0.0,0.0,0.0,2.0631,2.1943,2.3748,2.4158,0.0,0.0,0.0,0.0,0.0,0.0,0.0,3.0059,3.0896,3.2042,3.376,3.4512,3.4894,3.4987,3.6196,3.7261,3.7845,0.0,3.9408,3.9679,4.0059,4.0328,4.0328,4.0237,4.0289,4.0631,4.0916,4.1094,4.1094,4.1075,4.1036,4.1018,4.0979,4.0958,4.0897,4.0094,3.9238,3.8759,3.9029,3.9315,3.9333,3.9764,4.0068,3.9626,3.8349,3.659,3.5742,3.5587,3.5701,3.5746,3.5763,3.5746,3.5357,3.4704,3.3938,3.3233,3.251,3.185,0.0,3.2682,3.3372,3.4416,3.5802,3.6603,3.733,3.7973,3.8041,3.8058,3.7973,3.728,3.6948,3.6795,3.5436,3.4759,3.4709,3.273,3.1972,3.2378,3.2446,3.3139,3.4472,3.4556,3.4928,3.5583,3.5616,3.5684,3.5778,3.5211,3.4572,3.3987,3.287,3.1585,3.0144,2.8921,2.7286,2.5105,0.0,0.0,0.0,0.0,0.0,0.0,0.0,0.0,0.0,0.0,0.0,0.0,0.0,0.0,0.0,2.3005,0.0,2.5591,2.6286,0.0,0.0,0.0,2.847,2.9999,3.0205,3.0815,3.2286,0.0,0.0,3.4682,3.5959,3.688,3.7132,3.7172,3.7653,3.8995,3.9301,3.9608,4.0236,4.0361,4.0396,4.0559,4.0485,4.068,4.1326,4.2022,4.2335,4.2353,4.2274,4.2249,4.216,4.2148,4.2047,4.2065,4.1877,4.1587,4.0281,4.0089,4.0089,4.0143,4.0178,4.0214,4.0512,4.0339,3.9979,3.874,3.6999,3.7047,3.7071,3.7047,3.7055,3.6954,3.6736,3.5981,3.5272,3.4678,3.4575,3.4996,3.5746,3.5893,3.6485,3.7398,3.8125,3.8565,3.8751,3.9317,3.9276,3.8751,3.8565,3.8193,3.7652,3.728,3.7094,3.7077,3.6569,3.525,3.3237,3.3694,3.4134,3.4489,3.5064,3.5414,3.56,3.5616,3.5684,3.5795,3.5125,3.4503,3.3957,3.3164,3.2139,3.0816,2.9563,2.8411,2.7393,2.4884,0.0,0.0,0.0,0.0,0.0,0.0,0.0,0.0,0.0,1.9345,2.0737,0.0,2.2603,0.0,2.571,2.7358,2.8737,2.9041,0.0,0.0,3.0223,3.0568,3.1504,3.2029,3.2724,3.3715,3.4526,3.5319,3.6113,3.6512,3.6962,3.7626,3.8221,3.8725,3.9122,4.0165,4.0938,4.1098,4.1541,4.1932,4.1879,4.1774,4.1652,4.1837,4.2008,4.2111,4.2111,4.2111,4.2072,4.2072,4.2051,4.2009,4.203,4.2026,4.1899,4.1573,4.1502,4.1502,4.1484,4.1487,4.1484,4.1334,4.1149,4.137,4.0475,3.8943,3.9225,3.933,3.9296,3.9057,3.8781,3.843,3.7326,3.6647,3.6357,3.6421,3.6727,3.7209,3.7547,3.8111,3.8886,3.9631,4.0138,4.0485,4.0544,4.0375,3.9969,3.9631,3.9283,3.887,3.8548,3.8396,3.8396,3.8058,3.7077,3.5487,3.5808,3.6011,3.6011,3.6096,3.596,3.5633,3.5616,3.5644,3.5711,3.5382,3.4891,3.4267,3.3682,3.2909,3.188,3.069,2.9735,2.9042,2.6929,2.5422,0.0,0.0,0.0,0.0,0.0,0.0,0.0,0.0,0.0,0.0,0.0,2.5246,2.7175,2.8124,2.927,3.083,3.0962,3.1342,3.2412,3.2495,3.2757,3.352,3.3941,3.4485,3.5276,3.5761,3.6318,3.7039,3.7129,3.7363,3.8114,3.8846,3.9364,3.9548,4.0517,4.1355,4.1631,4.2035,4.2279,4.2279,4.2157,4.2034,4.2005,4.2005,4.2005,4.2005,4.2005,4.2005,4.2005,4.1945,4.1923,4.1902,4.1858,4.1837,4.1797,4.1754,4.1815,4.1945,4.2005,4.2005,4.19,4.1385,4.1711,4.1446,4.0951,4.1478,4.1619,4.1488,4.1027,4.0491,3.9807,3.8563,3.8012,3.8037,3.8062,3.8137,3.8277,3.8908,3.9615,4.0392,4.1026,4.1668,4.2252,4.1644,4.1339,4.1305,4.0688,4.0316,4.0231,3.9605,3.9225,3.9106,3.8497,3.8193,3.8193,3.8193,3.8091,3.7905,3.7161,3.6451,3.5769,3.565,3.5616,3.56,3.5728,3.5433,3.4725,3.4319,3.3758,3.3059,3.1916,3.1022,3.0382,2.906,2.7718,0.0,2.5619,0.0,0.0,0.0,0.0,0.0,0.0,0.0,0.0,2.659,2.807,3.0374,3.0503,3.1066,3.2502,3.2585,3.3049,3.4285,3.4451,3.4722,3.5494,3.5585,3.5873,3.6698,3.677,3.7022,3.7524,3.7595,3.7807,3.846,3.9146,3.966,4.001,4.0729,4.1454,4.1956,4.2005,4.2048,4.2005,4.1966,4.1945,4.1962,4.1941,4.1945,4.1941,4.1923,4.1923,4.1902,4.1797,4.1736,4.1736,4.1626,4.156,4.156,4.1471,4.1533,4.1815,4.1858,4.1902,4.1624,4.1789,4.1869,4.1869,4.1868,4.2136,4.1824,4.1087,4.1013,4.0951,4.0915,4.0729,4.074,4.0911,4.1003,4.1084,4.1111,4.1245,4.146,4.1738,4.1873,4.2061,4.2286,4.2151,4.21,4.2066,4.1974,4.1576,4.1001,4.0865,4.0493,3.991,3.9757,3.9665,3.969,0.0,0.0,0.0,3.7161,3.6728,3.6575,3.5943,3.5616,3.5616,3.5622,0.0,3.4759,3.4636,3.4322,3.3798,3.2498,0.0,0.0,0.0,0.0,0.0,0.0,0.0,0.0,0.0,0.0,0.0,2.9349,2.9035,2.8835,3.0053,3.1593,3.3286,3.3484,3.3864,3.4767,3.4859,3.4968,3.5222,3.5124,3.5345,3.6113,3.6096,3.6308,3.709,3.7179,3.7213,3.7373,3.7372,3.7653,3.8483,3.9155,3.9805,4.04,4.1226,4.1853,4.1987,4.1945,4.1945,4.1862,4.1819,4.1776,4.1732,4.167,4.1688,4.1688,4.1688,4.1626,4.1538,4.1493,4.1448,4.1363,4.1277,4.13,4.1277,4.1255,4.1277,4.1488,4.1448,4.1363,4.1321,0.0,4.1587,4.1637,0.0,4.2029,4.1869,4.1459,4.142,4.1285,4.1087,4.1173,4.1288,4.1475,4.1515,4.1655,4.1799,4.1799,4.2094,4.2534,4.2534,4.2801,4.3276,4.2922,4.278,4.2828,4.2472,4.21,4.1745,4.1745,4.1356,4.0671,4.0646,4.0468,4.0113,4.0113,3.9546,3.8447,3.8082,3.7702,3.7313,3.6586,3.618,3.618,0.0,0.0,0.0,0.0,0.0,0.0,0.0,0.0,0.0,0.0,0.0,3.119,3.0534,3.0127,3.0192,3.0221,3.0745,3.1978,3.2488,3.2491,3.1966,3.2649,3.3586,3.4754,3.483,3.5121,3.5859,3.5879,3.5988,3.6345,3.6292,3.6416,3.6753,3.6768,3.6872,3.719,3.7297,3.7382,3.7674,3.769,3.8159,3.9111,3.9599,4.0087,4.0784,4.1468,4.1858,4.1732,4.1626,4.1565,4.1538,4.1498,4.1498,4.1408,4.1408,4.1408,4.1408,4.1408,4.1368,4.1318,4.1318,4.1277,4.1232,4.1209,4.1209,4.1209,4.1163,4.1175,4.1238,4.1226,4.1209,4.1075,4.1,4.1122,4.1223,4.1305,4.162,4.1767,4.1785,0.0,0.0,0.0,4.1292,4.1364,4.1551,4.1551,4.1696,4.1986,4.1986,4.2399,4.3148,4.3165,4.3568,4.4202,4.3648,4.3401,4.3506,4.2926,4.2598,4.2479,4.2489,4.2117,4.1457,4.1271,4.0832,4.0163,4.0113,3.9808,3.9233,3.9056,3.87,3.8108,3.7364,3.6998,3.7015,3.6231,3.5785,3.5802,3.5198,3.489,3.4878,3.4418,3.4134,3.4174,3.368,3.3395,3.3415,3.293,3.2634,3.2634,3.2704,3.3108,3.3899,3.4887,3.5226,3.4676,3.4621,3.4944,3.5732,3.5718,3.5917,3.6506,3.6469,3.6626,3.7226,3.7278,3.7222,3.7239,3.7342,3.7392,3.7411,3.7533,3.7739,3.8175,3.8222,3.8706,3.9769,4.0043,4.0369,4.104,4.1458,4.1604,4.1408,4.1323,4.1232,4.1209,4.1232,4.1209,4.1232,4.1232,4.1209,4.1209,4.1209,4.1186,4.1203,4.118,4.118,4.114,4.1117,4.114,4.114,4.1082,4.1023,4.1023,4.1059,4.1088,4.0977,4.0593,4.0799,4.0984,4.1135,4.1169,4.1303,4.1407,4.1885,4.2156,4.2373,4.2373,4.2543,4.2848,4.2832,4.2939,4.3165,4.3165,4.338,4.376,4.376,4.3898,4.4126,4.4026,4.3975,4.3987,4.4012,4.3682,4.3143,4.3185,4.2878,4.2151,4.1525,4.0832,4.0163,4.0113,4.0045,3.9943,3.9351,3.8937,3.8836,3.8125,3.7753,3.7719,3.7026,3.6643,3.6626,3.5876,3.5514,3.5625,3.4972,3.4669,3.484,3.4194,3.3842,3.3906,3.3934,3.3923,3.3923,3.4053,3.4498,3.5381,3.6792,3.714,3.5988,3.5846,3.6183,3.6946,3.6964,3.7052,3.7175,3.7156,3.7171,3.7313,3.7179,3.7046,3.7134,3.7501,3.7763,3.7763,3.8279,3.8645,3.8763,3.8794,3.9125,3.9882,4.0162,4.0381,4.0954,4.1255,4.1277,4.1232,4.1209,4.1209,4.1186,4.1209,4.1186,4.1209,4.1186,4.1186,4.1186,4.1186,4.114,4.1123,4.1117,4.1076,4.0965,4.0942,4.0942,4.0942,4.084,4.0769,4.0786,4.0704,4.0686,4.0964,4.0746,4.0484,4.047,4.0677,4.0848,4.1018,4.1221,4.1439,4.1801,4.2206,4.2286,4.2492,4.2805,4.2836,4.3007,4.3251,4.3235,4.3372,4.3645,4.3645,4.3763,4.3969,4.4015,4.4027,4.4097,4.4155,4.4028,4.3726,4.3765,4.3407,4.2694,4.2008,4.1293,4.0644,4.0671,4.051,4.0113,3.9774,3.9605,3.9588,3.887,3.8497,3.8481,3.7787,3.7398,3.7381,3.7043,3.6694,3.6356,3.6061,3.5754,3.5416,3.5177,3.5052,3.5077,3.5156,3.5177,3.5177,3.5739,3.6457,3.737,3.8112,3.8297,3.7679,3.742,3.7291,3.7295,3.7201,3.7302,3.767,3.7622,3.7737,3.812,3.809,3.8031,3.8046,3.8227,3.8386,3.8421,3.8681,3.9042,3.9411,3.9463,3.9695,4.04,4.0487,4.0596,4.0873,4.0877,4.0907,4.1082,4.1082,4.1041,4.1059,4.1041,4.1041,4.1041,4.1041,4.1041,4.1041,4.1041,4.1012,4.1006,4.1,4.0935,4.0817,4.0793,4.0769,4.068,4.0631,4.0583,4.0583,4.0534,4.0558,4.1273,4.1092,4.0476,4.0203,4.0277,4.0574,4.078,4.0948,4.1,4.127,4.1669,4.1866,4.2158,4.2445,4.2476,4.268,4.2943,4.2974,4.3113,4.3312,4.3342,4.3492,4.3763,4.3793,4.3852,4.3998,4.4056,4.4039,4.4056,4.4068,4.3712,4.3037,4.2517,4.1933,4.1211,4.1148,4.0839,4.035,4.013,4.0087,4.0079,3.9537,3.9266,3.9191,3.8548,3.8159,3.8142,3.8007,3.7635,3.7077,3.7102,3.6876,3.6327,3.6372,3.6422,3.6422,3.6444,3.6466,3.6527,3.7212,3.7974,3.872,3.895,3.8989,3.8886,3.8751,3.838,3.7756,3.7587,3.7714,3.8167,3.8147,3.8281,3.8838,3.8864,3.8795,3.8864,3.8981,3.9081,3.9037,3.9193,3.9529,3.9911,4.0038,4.0198,4.061,4.0704,4.0673,4.0631,4.0558,4.0655,4.084,4.0888,4.0817,4.0817,4.0817,4.0799,4.0799,4.0799,4.0799,4.0799,4.0799,4.0799,4.0799,4.0799,4.0769,4.0673,4.0648,4.0607,4.0541,4.0485,4.0419,4.0412,4.0412,4.0419,4.2123,4.1587,4.107,4.0542,4.0076,4.0277,4.0381,4.0416,4.0696,4.0848,4.0969,4.1423,4.1768,4.1963,4.2093,4.2333,4.2618,4.2665,4.2805,4.3113,4.3143,4.3235,4.3449,4.3449,4.3492,4.3658,4.3822,4.391,4.391,4.4027,4.3729,4.3087,4.2937,4.2551,4.182,4.1178,4.0889,4.091,4.0263,3.9986,4.0096,4.0045,4.0011,3.9994,3.93,3.8886,3.8886,3.8244,3.7889,3.7804,3.7821,3.777,3.7692,3.7692,3.7709,3.7699,3.7753,3.7846,3.7985,3.806,3.8254,3.8448,3.9129,3.9307,3.8958,3.9383,3.9467,3.8894,3.8742,3.869,3.8825,3.8803,3.8847,3.9016,3.8989,3.8789,3.894,3.9289,3.9595,3.9456,4.0012,4.0491,4.0408,4.0401,4.0446,4.0531,4.0541,4.051,4.051,4.0468,4.0468,4.0534,4.0534,4.0558,4.0558,4.0534,4.0583,4.0541,4.0541,4.0583,4.0583,4.0583,4.0534,4.0607,4.0583,4.0558,4.0534,4.051,4.051,4.0444,4.0387,4.0288,4.0188,4.0163,4.0221,4.2361,4.2076,4.149,4.0924,4.0429,4.0198,4.0137,4.0137,4.0416,4.0505,4.0574,4.0953,4.1339,4.1719,4.1785,4.198,4.2302,4.2445,4.2586,4.2805,4.2914,4.3068,4.3204,4.3235,4.3312,4.3462,4.3568,4.3628,4.3734,4.3776,4.3639,4.3402,4.3444,4.3134,4.2417,4.2211,4.1915,4.1523,4.1231,4.0932,4.0635,4.0282,4.0113,4.0079,3.9825,3.9656,3.9639,3.9326,3.8988,3.8599,3.8548,3.8362,3.7898,3.7898,3.7898,3.7905,3.7912,3.8194,3.8738,3.8795,3.903,3.96,3.9908,3.999,3.9845,4.0092,4.0133,3.9835,3.9242,3.8994,3.9406,3.943,3.9536,3.9842,3.9934,3.9893,3.9817,4.001,4.0134,4.0138,4.0377,4.0558,4.051,4.051,4.051,4.0468,4.0419,4.0404,4.0387,4.0313,4.0246,4.0263,4.0263,4.032,4.0461,4.051,4.0493,4.0493,4.051,4.051,4.0485,4.051,4.051,4.051,4.0485,4.0461,4.0404,4.0387,4.0362,4.0296,4.0246,4.0146,4.0096,4.0113,4.0146,4.2626,4.2521,4.1946,4.1273,4.0609,4.0323,4.0092,3.996,4.0137,4.0207,4.0242,4.0539,4.0885,4.129,4.1456,4.1687,4.1948,4.2174,4.2318,4.246,4.2665,4.2821,4.2959,4.3021,4.316,4.3295,4.3312,4.3372,4.3462,4.3539,4.3539,4.3568,4.3734,4.351,4.3024,4.2939,4.2612,4.2156,4.1955,4.1636,4.1251,4.0828,4.0459,4.0163,4.0113,4.0113,4.0113,4.0113,3.9876,3.9326,3.9292,3.9056,3.8548,3.8497,3.8514,3.8514,3.8497,3.8783,3.9399,3.9457,3.9727,4.0351,4.0419,4.0461,4.0485,4.051,4.051,4.0414,3.9737,3.9549,3.9928,3.9979,4.0143,4.0604,4.0648,4.0607,4.05,4.051,4.0451,4.0444,4.0427,4.0419,4.0412,4.0387,4.0387,4.0362,4.0313,4.0238,4.0238,4.0163,4.0113,4.0113,4.0096,4.0188,4.0362,4.037,4.0395,4.0395,4.0387,4.0362,4.0387,4.0387,4.0387,4.0337,4.0387,4.0387,4.0288,4.0238,4.0238,4.0163,4.0096,4.0096,4.0096,4.0113,4.0113,4.326,4.314,4.2566,4.1572,4.0434,4.0528,4.029,3.9732,3.9925,4.0046,4.0092,4.0288,4.0416,4.072,4.1229,4.1439,4.1621,4.185,4.2028,4.2158,4.2349,4.2508,4.2634,4.2821,4.2992,4.3113,4.3113,4.3143,4.3157,4.3312,4.3402,4.3419,4.3522,4.3582,4.34,4.2883,4.2605,4.262,4.2121,4.1772,4.1843,4.1831,4.1234,4.0333,4.013,4.0121,4.0113,4.0113,4.0062,4.0045,4.0011,3.9994,3.996,3.9943,3.991,3.9926,3.9943,3.996,3.9994,4.0019,4.0095,4.0288,4.033,4.0362,4.0444,4.0444,4.0461,4.0485,4.0339,4.0312,4.038,4.0353,4.0397,4.0476,4.051,4.051,4.0468,4.0461,4.0419,4.0337,4.033,4.0263,4.0163,4.0121,4.0163,4.0163,4.0121,4.0121,4.0138,4.0113,4.0113,4.0113,4.0113,4.0113,4.0121,4.0171,4.0171,4.0171,4.0213,4.0163,4.0138,4.0113,4.0138,4.0163,4.0188,4.0171,4.0121,4.0121,4.0121,4.0113,4.0113,4.0096,4.0113,4.0113,4.0113,4.3305,4.32,4.2177,4.1444,4.0965,4.0216,3.9727,3.9517,3.9717,4.006,4.0429,4.0669,4.1092,4.1669,4.1959,4.1813,4.1486,4.1604,4.1801,4.198,4.2125,4.2318,4.2476,4.2539,4.2728,4.2945,4.2976,4.3021,4.3113,4.3174,4.3204,4.3204,4.3235,4.3281,4.3246,4.3138,4.3112,4.3122,4.2949,4.2762,4.2455,4.2405,4.2033,4.1285,4.0869,4.0518,4.0113,4.0113,4.0113,4.0113,4.0113,4.0113,4.0113,4.0113,4.0113,4.0113,4.0113,4.0113,4.0113,4.0113,4.0121,4.0163,4.0188,4.0171,4.0221,4.0246,4.0221,4.0246,4.0246,4.0246,4.0271,4.0395,4.0461,4.0387,4.0379,4.0355,4.0263,4.0246,4.0221,4.0188,4.018,4.0138,4.0138,4.0113,4.0113,4.0113,4.0113,4.0113,4.0113,4.0113,4.0113,4.0113,4.0113,4.0113,4.0113,4.0096,4.0113,4.0096,4.0113,4.0138,4.0113,4.0113,4.0138,4.0138,4.0113,4.0096,4.0096,4.0096,4.0113,4.0113,4.0113,4.0113,4.0113,4.0113,4.0113,4.3155,4.2895,4.2073,4.1482,4.098,4.0113,3.9619,3.9469,3.9778,4.0197,4.0624,4.1042,4.1589,4.2145,4.2389,4.2237,4.1841,4.2066,4.225,4.2368,4.2377,4.2413,4.2526,4.2446,4.2524,4.2713,4.2775,4.2852,4.2929,4.299,4.3021,4.3037,4.3082,4.3096,4.3127,4.3235,4.3312,4.3342,4.3462,4.3317,4.2958,4.2983,4.2703,4.2222,4.1753,4.1177,4.0417,4.0172,4.0045,4.0113,4.0113,4.0113,4.0113,4.0113,4.0113,4.0113,4.0113,4.0113,4.0113,4.0113,4.0113,4.0113,4.0113,4.0113,4.0113,4.0113,4.0113,4.0113,4.0113,4.0113,4.0121,4.0246,4.0337,4.0238,4.0238,4.0188,4.0096,4.0096,4.0113,4.0113,4.0113,4.0113,4.0113,4.0113,4.0113,4.0113,4.0113,4.0113,4.0113,4.0113,4.0113,4.0113,4.0113,4.0113,4.0113,4.0113,4.0113,4.0113,4.0113,4.0113,4.0113,4.0113,4.0079,4.0079,4.0079,4.0096,4.0096,4.0096,4.0096,4.0096,4.0113,4.0113,4.0113,4.0113,4.0113,4.297,4.247,4.2381,4.1572,4.0531,4.0292,3.9963,3.9559,4.0083,4.0404,4.0665,4.1355,4.1889,4.2121,4.245,4.2544,4.286,4.32,4.3301,4.323,4.3002,4.2884,4.2855,4.2607,4.2414,4.2413,4.2523,4.2602,4.2602,4.2759,4.2837,4.2899,4.2959,4.3005,4.3066,4.3082,4.3113,4.3143,4.3295,4.3386,4.3386,4.3439,4.3256,4.2758,4.2615,4.2089,4.1059,4.0346,4.0019,4.0062,4.0087,4.0113,4.0113,4.0113,4.0113,4.0113,4.0113,4.0113,4.0113,4.0113,4.0113,4.0113,4.0113,4.0113,4.0113,4.0113,4.0113,4.0113,4.0113,4.0113,4.0113,4.0138,4.0138,4.0113,4.0138,4.0096,4.0096,4.0113,4.0113,4.0113,4.0113,4.0113,4.0113,4.0113,4.0113,4.0113,4.0113,4.0113,4.0113,4.0113,4.0113,4.0113,4.0113,4.0113,4.0113,4.0113,4.0113,4.0113,4.0113,4.0113,4.0113,4.0096,3.9926,3.9876,3.9469,3.9486,3.974,3.9774,3.996,3.9994,4.0045,4.0113,4.0113,4.0113,4.0113,4.2955,4.2366,4.1901,4.1205,4.0382,3.9918,3.9589,3.9463,4.0113,4.0651,4.1183,4.185,4.2543,4.3113,4.3365,4.3602,4.3866,4.4208,4.407,4.3506,4.328,4.3139,4.2914,4.281,4.2541,4.2254,4.2238,4.2238,4.227,4.2349,4.2333,4.2365,4.2523,4.2618,4.2649,4.2852,4.2945,4.2976,4.3113,4.3174,4.3204,4.3372,4.3376,4.3158,4.2783,4.2397,4.2144,4.11,4.0309,3.9883,3.9926,4.0011,4.007,4.0113,4.0113,4.0113,4.0113,4.0113,4.0113,4.0096,4.0096,4.0113,4.0113,4.0113,4.0113,4.0087,4.0087,4.0113,4.0113,4.0113,4.0113,4.0113,4.007,4.0113,4.0113,4.0113,4.0113,4.0113,4.0113,4.0113,4.0113,4.0113,4.0113,4.0113,4.0113,4.0113,4.0113,4.0113,4.0113,4.0113,4.0113,4.0113,4.0113,4.0113,4.0113,4.0113,4.0113,4.0113,4.0113,4.0113,4.0113,4.0079,3.9893,3.9503,3.9073,3.8988,3.9259,3.9462,3.9656,3.9943,4.0079,4.0113,4.0113,4.0113,4.0113,4.2581,4.1976,4.1294,4.0636,4.0023,3.9574,3.9388,3.9529,4.0113,4.0771,4.1452,4.2111,4.2887,4.3585,4.3832,4.4065,4.432,4.4572,4.4425,4.3945,4.3709,4.3591,4.3379,4.3024,4.2617,4.2189,4.2077,4.2077,4.2077,4.2077,4.2077,4.2109,4.2222,4.227,4.2318,4.2587,4.2713,4.2744,4.2914,4.3021,4.3052,4.319,4.3312,4.3246,4.2927,4.2637,4.2423,4.172,4.0971,4.0247,3.9949,3.9875,3.9918,3.9961,3.9961,3.9961,3.9995,4.0028,4.0037,4.0011,4.002,4.0011,3.9986,3.9961,3.9944,3.9944,3.9961,3.9944,3.9961,3.9961,3.9961,3.9961,3.9961,3.9961,4.0062,4.0087,4.0113,4.0113,4.0113,4.0113,4.0113,4.0113,4.0113,4.0113,4.0113,4.0113,4.0113,4.0113,4.0113,4.0113,4.0113,4.0113,4.0113,4.0113,4.0113,4.0113,4.0113,4.0113,4.0113,4.0113,4.0113,4.0079,3.996,3.9249,3.8734,3.8717,3.8937,3.9089,3.9259,3.9639,4.0096,4.0113,4.0113,4.0113,4.0113,4.2021,4.1324,4.0681,4.0068,3.9478,3.9403,3.9388,3.9493,4.0113,4.0771,4.1429,4.2111,4.2848,4.353,4.3729,4.391,4.4243,4.432,4.4503,4.4527,4.434,4.4117,4.4071,4.325,4.2565,4.2187,4.2061,4.2045,4.2013,4.2013,4.2077,4.2045,4.2061,4.2077,4.2125,4.227,4.2413,4.2445,4.2696,4.2852,4.2852,4.3037,4.3082,4.3113,4.3078,4.2783,4.2351,4.2111,4.1695,4.0836,4.0062,3.9703,3.9703,3.9703,3.9729,3.9755,3.9833,3.9875,3.9884,3.9884,3.9884,3.9884,3.9807,3.9703,3.9729,3.9755,3.9755,3.9755,3.9755,3.9729,3.9729,3.9729,3.9729,3.9729,3.991,4.002,4.0045,4.0045,4.0037,4.0045,4.007,4.007,4.002,4.0037,4.0062,4.0062,4.0037,4.0037,4.0037,4.0011,4.0062,4.0062,4.0011,3.9986,3.9961,3.9961,3.9961,3.9961,3.9986,4.002,3.9986,3.9943,3.9808,3.9089,3.8497,3.8514,3.8684,3.8903,3.9292,3.9842,4.0079,4.0096,4.0113,4.0113,4.0113,4.2021,4.1339,4.0666,4.0023,3.9433,3.9388,3.9388,3.9463,4.0098,4.0726,4.1437,4.2111,4.2725,4.3379,4.3596,4.3769,4.391,4.4166,4.432,4.4442,4.4509,4.4322,4.4008,4.3066,4.2482,4.2282,4.1972,4.172,4.1753,4.172,4.1736,4.1737,4.185,4.1915,4.198,4.2093,4.2174,4.2222,4.2397,4.2539,4.2571,4.2806,4.2961,4.2961,4.3021,4.2968,4.2752,4.2324,4.1638,4.0717,3.9937,3.959,3.9651,3.9677,3.9677,3.9677,3.9729,3.9755,3.9755,3.9755,3.9755,3.9755,3.9703,3.9703,3.9703,3.9703,3.9703,3.9703,3.9703,3.9703,3.9703,3.9677,3.9677,3.9703,3.9755,3.9816,3.9833,3.9807,3.979,3.9807,3.9816,3.9816,3.9833,3.9833,3.9833,3.9833,3.9833,3.9833,3.9858,3.9858,3.9884,3.9833,3.9781,3.9807,3.9781,3.9781,3.9781,3.9781,3.9833,3.9893,3.9767,3.9589,3.9394,3.8954,3.8338,3.8145,3.8633,3.8988,3.952,3.996,4.0079,4.0113,4.0113,4.0113,4.0113,4.1767,4.1294,4.0382,3.9768,3.9403,3.9388,3.9388,3.9448,3.9813,4.0352,4.101,4.1707,4.2336,4.291,4.3343,4.3581,4.3729,4.3934,4.4104,4.4205,4.4366,4.4247,4.3899,4.3274,4.2833,4.2257,4.1967,4.1655,4.1435,4.1388,4.1388,4.1388,4.1503,4.1603,4.1653,4.1785,4.1916,4.2029,4.2174,4.2286,4.2286,4.2445,4.2539,4.2571,4.2649,4.2743,4.2769,4.2258,4.1435,4.0491,3.9924,3.964,3.9432,3.9494,3.952,3.9537,3.9573,3.9616,3.9599,3.9599,3.9616,3.9616,3.959,3.9537,3.9537,3.9537,3.952,3.952,3.952,3.952,3.952,3.952,3.952,3.952,3.952,3.959,3.9694,3.9703,3.9703,3.9703,3.9703,3.9703,3.9703,3.9703,3.9703,3.9703,3.9729,3.9729,3.9729,3.9703,3.9677,3.9651,3.9677,3.9703,3.9703,3.9703,3.9703,3.9677,3.9677,3.9738,3.9631,3.9421,3.9176,3.8839,3.8215,3.8036,3.8652,3.9132,3.9411,3.9774,3.996,4.0113,4.0113,4.0113,4.0113,4.1422,4.1265,3.9978,3.9388,3.9388,3.9388,3.9388,3.9388,3.9433,3.9843,4.0502,4.1115,4.1871,4.244,4.3075,4.3423,4.3651,4.3714,4.3871,4.4011,4.4212,4.4188,4.3936,4.3868,4.3245,4.2412,4.2178,4.1713,4.1291,4.1151,4.1117,4.1151,4.1151,4.1203,4.1355,4.1456,4.1653,4.1801,4.1948,4.2045,4.2093,4.2142,4.2206,4.2206,4.2206,4.2333,4.2394,4.2064,4.1339,4.0099,4.0123,3.9934,3.9402,3.9423,3.9377,3.9415,3.9452,3.9432,3.9501,3.9484,3.9475,3.9448,3.9325,3.9328,3.9394,3.9477,3.9543,3.9742,3.9493,3.9675,3.9675,3.9576,3.9659,3.9714,3.9626,3.9644,3.9747,3.9726,3.9651,3.9677,3.9651,3.9651,3.9651,3.9668,3.9651,3.9547,3.9573,3.9573,3.9547,3.9547,3.9547,3.959,3.9599,3.9625,3.9625,3.9625,3.9599,3.9599,3.9573,3.9582,3.9542,3.9335,3.9076,3.8765,3.8681,3.8731,3.9,3.9328,3.9513,3.9707,4.0011,4.0087,4.0113,4.0113,4.0113,4.1422,4.1302,3.9963,3.9388,3.9388,3.9388,3.9388,3.9388,3.9388,3.9768,4.0427,4.1085,4.1752,4.2396,4.2955,4.3329,4.3409,4.3596,4.3808,4.4026,4.422,4.4274,4.4104,4.3997,4.3417,4.2729,4.2264,4.1772,4.127,4.1096,4.1083,4.1068,4.1049,4.1102,4.1135,4.1187,4.1288,4.1439,4.1621,4.1768,4.1915,4.1996,4.2013,4.2045,4.2045,4.2109,4.2158,4.2093,4.1627,4.1058,4.0804,4.068,4.0361,4.002,3.9857,3.9825,3.944,3.9241,3.9348,3.9458,3.9305,3.9297,3.9308,3.9287,3.9736,3.9785,4.0081,4.0446,4.066,4.0524,4.0463,4.0594,4.0496,4.043,4.0479,4.0529,4.056,3.9913,3.9551,3.9478,3.9495,3.9412,3.9428,3.9545,3.9511,3.9412,3.9412,3.9422,3.9362,3.9362,3.9362,3.9362,3.9362,3.9345,3.9345,3.9362,3.9362,3.9362,3.9362,3.9362,3.9322,3.9368,3.9146,3.925,3.9444,3.9479,3.9387,3.9547,3.975,3.991,4.0028,4.0037,4.0045,4.0087,4.0113,4.1422,4.1235,3.9963,3.9388,3.9388,3.9388,3.9388,3.9388,3.9388,3.9619,4.0023,4.0636,4.128,4.1976,4.2566,4.3015,4.3299,4.3423,4.3636,4.3832,4.3988,4.405,4.4135,4.3975,4.3605,4.3112,4.2607,4.1976,4.1434,4.1,4.0796,4.0814,4.0814,4.0848,4.095,4.095,4.1052,4.1187,4.1321,4.1437,4.1537,4.1587,4.1637,4.1637,4.1687,4.1753,4.1851,4.1964,4.1837,4.1645,4.1526,4.1237,4.0864,4.054,4.0459,4.0402,4.0217,3.9982,4.0083,4.0094,4.0099,3.9916,3.9905,4.0106,4.0328,4.0443,4.059,4.0872,4.0971,4.0974,4.087,4.0838,4.0825,4.072,4.0736,4.0736,4.0665,4.034,4.0094,4.0077,4.0193,4.016,4.0094,3.9952,3.9776,3.9853,3.9693,3.9655,3.9067,3.9067,3.905,3.905,3.905,3.905,3.905,3.905,3.905,3.905,3.905,3.9067,3.9034,3.9169,3.9269,3.9391,3.9506,3.9627,3.9595,3.9772,3.9824,3.9849,3.9884,3.9961,3.9995,4.0037,4.0062,4.1422,4.1265,3.9978,3.9388,3.9388,3.9388,3.9388,3.9388,3.9388,3.9418,3.9523,4.0113,4.0861,4.1482,4.2156,4.2731,4.318,4.3329,4.3463,4.3636,4.3729,4.3832,4.3934,4.3928,4.3869,4.3605,4.279,4.2114,4.1387,4.0819,4.0466,4.042,4.047,4.0574,4.0696,4.0765,4.0833,4.1018,4.1052,4.1102,4.1151,4.1185,4.1169,4.1203,4.1288,4.1406,4.1538,4.1653,4.1753,4.1931,4.2013,4.1533,4.1026,4.0859,4.105,4.1017,4.0851,4.07,4.0754,4.0869,4.0885,4.0958,4.0851,4.0903,4.0968,4.0978,4.1062,4.1189,4.1273,4.1244,4.0973,4.1075,4.0966,4.0811,4.0702,4.0653,4.073,4.0956,4.1056,4.0811,4.0611,4.0557,4.0701,4.0697,4.0443,4.0234,4.0087,3.9841,3.9317,3.9001,3.9127,3.9035,3.9062,3.8947,3.8914,3.8887,3.886,3.8832,3.8805,3.8805,3.8821,3.8942,3.9104,3.9282,3.9388,3.9468,3.9547,3.9625,3.9668,3.9694,3.9755,3.9833,3.991,3.9986,4.0045,4.1422,4.1317,3.9963,3.9388,3.9388,3.9388,3.9388,3.9388,3.9388,3.9388,3.9478,4.0098,4.0711,4.1384,4.2096,4.2716,4.3155,4.329,4.3329,4.3423,4.3557,4.3729,4.3769,4.3856,4.392,4.3594,4.2795,4.1852,4.1203,4.0467,4.0228,4.0167,4.0242,4.0381,4.0401,4.0505,4.0627,4.078,4.0833,4.0916,4.1016,4.1049,4.1049,4.1049,4.1068,4.112,4.1169,4.1218,4.1252,4.1303,4.1538,4.1545,4.1325,4.115,4.1206,4.1276,4.1029,4.094,4.1086,4.106,4.0949,4.0795,4.0794,4.092,4.112,4.119,4.1398,4.169,4.1803,4.1852,4.1885,4.1644,4.1789,4.1757,4.1629,4.1629,4.1661,4.1628,4.1463,4.0998,4.0859,4.0912,4.1111,4.1206,4.0948,4.0753,4.0606,4.044,4.0082,3.9764,3.967,3.9465,3.9193,3.8996,3.8832,3.8777,3.875,3.8694,3.8667,3.8667,3.8694,3.8777,3.8914,3.9013,3.9094,3.9202,3.9282,3.9415,3.9468,3.9468,3.9573,3.9729,3.9806,3.9908,4.0043,4.1422,4.125,3.9963,3.9388,3.9388,3.9388,3.9388,3.9388,3.9388,3.9388,3.9478,3.9747,4.0262,4.0905,4.1587,4.2357,4.3095,4.3305,4.3305,4.3344,4.3438,4.3518,4.3518,4.3621,4.3621,4.3389,4.265,4.2002,4.1513,4.0861,4.0309,4.0041,4.0101,4.0152,4.0172,4.0331,4.0436,4.0524,4.0593,4.0696,4.0796,4.078,4.0796,4.0796,4.0796,4.0848,4.0916,4.0966,4.1,4.1117,4.1254,4.1321,4.1294,4.1269,4.1293,4.1612,4.1465,4.1335,4.1505,4.1569,4.157,4.146,4.1335,4.1434,4.1628,4.1709,4.171,4.1885,4.198,4.1899,4.1656,4.172,4.167,4.1604,4.162,4.162,4.162,4.162,4.1357,4.1054,4.1322,4.1464,4.1589,4.1588,4.1423,4.1229,4.1098,4.0934,4.0753,4.041,4.0083,3.9758,3.9401,3.9044,3.8849,3.8829,3.8699,3.8606,3.8557,3.8541,3.8415,3.8415,3.85,3.8628,3.8738,3.9007,3.8996,3.9131,3.9202,3.9288,3.9498,3.9664,3.975,3.9869,4.0129,4.119,4.1085,3.9903,3.9388,3.9388,3.9388,3.9388,3.9388,3.9388,3.9388,3.9388,3.9448,3.9828,4.0502,4.1324,4.2252,4.326,4.3305,4.3305,4.3305,4.3344,4.329,4.329,4.3305,4.3329,4.3294,4.2959,4.234,4.167,4.1042,4.0489,4.0035,3.9905,3.994,3.9996,4.0121,4.0191,4.0261,4.0331,4.0401,4.0401,4.0401,4.0401,4.0401,4.0401,4.0455,4.0574,4.0677,4.0746,4.0864,4.0966,4.1018,4.1034,4.1083,4.1355,4.1785,4.1948,4.2013,4.2061,4.2046,4.1981,4.1917,4.1981,4.1981,4.19,4.1739,4.1769,4.1767,4.1702,4.1636,4.1372,4.1305,4.1254,4.1203,4.1151,4.1117,4.1185,4.1203,4.1288,4.13,4.1736,4.1788,4.1709,4.1869,4.1628,4.1596,4.1467,4.1433,4.1191,4.0696,4.0342,3.9991,3.9592,3.9143,3.8964,3.8929,3.8798,3.8663,3.8554,3.8505,3.8239,3.802,3.8216,3.8565,3.8732,3.8955,3.8895,3.8942,3.9133,3.9308,3.9471,3.9783,4.0198,4.0506,4.0771,4.0516,4.0457,3.9702,3.9388,3.9388,3.9388,3.9388,3.9388,3.9388,3.9388,3.9388,3.9418,3.9783,4.0531,4.1677,4.2566,4.312,4.3305,4.3305,4.3305,4.3305,4.3305,4.3305,4.3305,4.3305,4.329,4.3185,4.2506,4.1723,4.0965,4.0237,3.9742,3.9721,3.9732,3.9732,3.991,4.0046,4.0031,4.0066,4.0066,4.0101,4.0101,4.0101,4.0101,4.0101,4.0137,4.0207,4.0296,4.0416,4.0451,4.0712,4.0799,4.0867,4.1,4.1083,4.1303,4.1505,4.1785,4.1948,4.198,4.198,4.1916,4.1801,4.1671,4.1588,4.1454,4.1337,4.1218,4.1218,4.1169,4.1102,4.1102,4.1083,4.1068,4.1,4.1034,4.1034,4.0932,4.0984,4.1018,4.1239,4.1406,4.1461,4.1688,4.1883,4.1868,4.1853,4.1757,4.155,4.1008,4.0467,4.007,3.9833,3.9436,3.9055,3.9022,3.8925,3.876,3.8681,3.8569,3.8368,3.8259,3.8408,3.8729,3.8913,3.9056,3.9137,3.9194,3.9252,3.9527,3.9918,4.0407,4.0962,4.122,4.1377,4.0053,4.0337,3.9694,3.9388,3.9388,3.9388,3.9388,3.9388,3.9388,3.9388,3.9388,3.9388,3.9783,4.0516,4.1467,4.2147,4.2746,4.311,4.3305,4.3305,4.3305,4.3305,4.3305,4.3305,4.3305,4.3305,4.3215,4.2865,4.1968,4.128,4.0621,3.9993,3.9691,3.9517,3.9553,3.9732,3.9803,3.9874,3.994,4.0011,4.0011,4.0011,4.0011,4.0011,3.9975,3.9975,3.9996,4.0066,4.0137,4.0172,4.0366,4.0489,4.0539,4.0693,4.078,4.095,4.1037,4.1272,4.1488,4.1554,4.1587,4.1538,4.1421,4.1321,4.1288,4.1169,4.1049,4.095,4.0916,4.0898,4.0796,4.0746,4.0746,4.0746,4.078,4.0761,4.0746,4.0746,4.0712,4.0746,4.0746,4.0901,4.107,4.1221,4.1388,4.1456,4.1474,4.1411,4.133,4.1138,4.0604,4.0053,3.9912,3.9739,3.9345,3.9094,3.9078,3.8952,3.8921,3.8826,3.87,3.8668,3.8821,3.9008,3.9244,3.9344,3.9427,3.9603,3.9832,4.0127,4.0455,4.0889,4.132,4.1641,4.1902,3.9672,4.0098,3.9634,3.9388,3.9388,3.9388,3.9388,3.9388,3.9388,3.9388,3.9388,3.9418,3.9783,4.0352,4.095,4.1594,4.244,4.288,4.314,4.3245,4.3305,4.3305,4.3305,4.3305,4.3305,4.3305,4.3305,4.3006,4.2596,4.1923,4.122,4.0427,3.9999,3.9604,3.949,3.9517,3.9625,3.961,3.9732,3.9783,3.9833,3.9818,3.9833,3.9833,3.9854,3.9854,3.9854,3.991,3.9925,3.996,4.0101,4.0242,4.0277,4.0331,4.0436,4.0539,4.0593,4.0712,4.0932,4.1034,4.1083,4.1083,4.1049,4.1034,4.0932,4.0948,4.0879,4.0677,4.0558,4.0489,4.042,4.0401,4.0366,4.0366,4.0401,4.0401,4.0416,4.0416,4.0401,4.0416,4.0401,4.0366,4.0539,4.0693,4.083,4.1,4.1034,4.1083,4.1068,4.1018,4.0805,4.031,4.0327,4.0249,4.0013,3.9652,3.9479,3.9227,3.9212,3.9089,3.8966,3.8982,3.9078,3.9314,3.9613,3.9897,4.0118,4.0284,4.0444,4.0647,4.088,4.1222,4.1572,4.1926,4.2277,3.9403,3.9484,3.9403,3.9388,3.9388,3.9388,3.9388,3.9388,3.9388,3.9388,3.9388,3.9418,3.9768,4.0277,4.0546,4.119,4.2336,4.244,4.2776,4.3095,4.3305,4.3305,4.3305,4.3305,4.3305,4.3305,4.3305,4.326,4.312,4.2581,4.1594,4.0546,4.0322,3.9933,3.9634,3.952,3.946,3.9445,3.9532,3.9496,3.9496,3.9496,3.9496,3.9496,3.946,3.946,3.9445,3.9625,3.9732,3.9747,3.9925,4.0046,4.0031,4.0101,4.0172,4.0172,4.0207,4.0277,4.0451,4.0761,4.1049,4.1049,4.0898,4.0712,4.0574,4.0451,4.0381,4.0381,4.0277,4.0172,4.0101,4.0066,4.0101,4.0137,4.0172,4.0172,4.0187,4.0152,4.0152,4.0081,4.0066,4.0137,4.0172,4.0347,4.0451,4.0608,4.0727,4.0761,4.083,4.083,4.0898,4.0748,4.0813,4.0813,4.0878,4.0546,4.0006,3.974,3.9647,3.9455,3.9211,3.929,3.9472,3.976,4.0075,4.045,4.0704,4.0641,4.0673,4.102,4.1288,4.1601,4.1916,4.2284,4.2586,3.9388,3.9388,3.9388,3.9388,3.9388,3.9388,3.9388,3.9388,3.9388,3.9388,3.9388,3.9403,3.9523,3.9843,4.0277,4.0621,4.1265,4.2126,4.2485,4.2806,4.3075,4.326,4.3305,4.3305,4.3305,4.3305,4.3305,4.3305,4.323,4.3,4.2506,4.1683,4.0905,4.0367,4.0008,3.9619,3.9403,3.9388,3.9388,3.9388,3.9388,3.9388,3.9388,3.9388,3.9388,3.9388,3.9424,3.9496,3.9517,3.9553,3.9696,3.9783,3.9854,3.9925,3.996,3.9975,3.9975,4.0046,4.0101,4.0416,4.0589,4.0555,4.0436,4.0296,4.0242,4.0137,4.0101,4.0081,4.0046,3.9975,4.0011,4.0011,4.0046,4.0011,3.9975,3.9975,3.994,3.994,3.994,3.9889,3.9975,4.0046,4.0046,4.0046,4.0137,4.0242,4.0347,4.0451,4.052,4.0555,4.0589,4.0624,4.0624,4.0589,4.0605,4.0474,4.0343,4.0194,3.9994,3.9804,3.9563,3.9835,4.0031,4.0328,4.045,4.064,4.074,4.077,4.0922,4.1197,4.155,4.1901,4.2283,4.2586,4.2711,3.9388,3.9388,3.9388,3.9388,3.9388,3.9388,3.9388,3.9388,3.9388,3.9388,3.9388,3.9388,3.9388,3.9574,3.9843,4.0262,4.0711,4.1542,4.2111,4.259,4.3,4.3245,4.3305,4.3305,4.3305,4.3305,4.3305,4.3305,4.3305,4.3305,4.3,4.2387,4.1632,4.0995,4.0217,3.9798,3.9403,3.9388,3.9388,3.9388,3.9388,3.9388,3.9388,3.9388,3.9388,3.9388,3.9388,3.9424,3.9424,3.9445,3.9517,3.9574,3.9661,3.9732,3.9818,3.9818,3.9818,3.9854,3.996,4.0101,4.0207,4.0242,4.0137,4.0081,4.0011,3.996,3.9925,3.9874,3.9854,3.9818,3.9833,3.9798,3.9762,3.9711,3.9711,3.9711,3.9727,3.9727,3.9747,3.9747,3.9798,3.9798,3.9762,3.9762,3.9925,4.0031,4.0137,4.0222,4.0222,4.0222,4.0187,4.0187,4.0187,4.0117,4.0046,4.0071,4.0146,4.013,4.0028,4.0054,4.0013,4.0207,4.0242,4.0228,4.0385,4.0662,4.0721,4.0671,4.0984,4.1358,4.1623,4.1852,4.2142,4.2365,4.2397,3.9388,3.9388,3.9388,3.9388,3.9388,3.9388,3.9388,3.9388,3.9388,3.9388,3.9388,3.9388,3.9388,3.9403,3.9574,3.9828,4.0322,4.104,4.1722,4.2291,4.2821,4.3155,4.3305,4.3305,4.3305,4.3305,4.3305,4.3305,4.3305,4.3305,4.3215,4.306,4.2342,4.1512,4.0442,3.9768,3.9418,3.9388,3.9388,3.9388,3.9388,3.9388,3.9388,3.9388,3.9388,3.9388,3.9388,3.9388,3.9388,3.9424,3.9409,3.9445,3.946,3.946,3.9496,3.9496,3.946,3.9517,3.9681,3.9874,3.996,3.9996,3.9925,3.9889,3.9905,3.9854,3.9696,3.9696,3.9589,3.9496,3.946,3.946,3.9496,3.9496,3.9532,3.9532,3.9532,3.9568,3.9568,3.9604,3.9496,3.9424,3.9424,3.9496,3.9676,3.9818,3.9975,3.9975,3.994,3.9905,3.9869,3.9833,3.9833,3.9833,3.9833,3.9905,3.996,3.9975,3.9975,3.9925,3.9945,3.998,4.0031,4.0101,4.0207,4.0416,4.0505,4.0578,4.0848,4.112,4.1372,4.1638,4.1916,4.2077,4.2109,3.9388,3.9388,3.9388,3.9388,3.9388,3.9388,3.9388,3.9388,3.9388,3.9388,3.9388,3.9388,3.9388,3.9388,3.9403,3.9538,3.9843,4.0427,4.1123,4.1796,4.2447,4.294,4.3155,4.3305,4.3305,4.3305,4.3305,4.3305,4.3305,4.3305,4.3305,4.314,4.2716,4.1692,4.0711,4.0083,3.9918,3.9478,3.9388,3.9388,3.9388,3.9388,3.9388,3.9388,3.9388,3.9388,3.9388,3.9388,3.9388,3.9388,3.9388,3.9388,3.9388,3.9388,3.9388,3.9388,3.9388,3.9409,3.9481,3.9589,3.9676,3.9747,3.9711,3.964,3.9604,3.9568,3.9517,3.9517,3.9445,3.9388,3.9424,3.9424,3.9424,3.9424,3.9424,3.9424,3.946,3.9424,3.946,3.946,3.9388,3.9388,3.9388,3.9388,3.9532,3.9568,3.9676,3.9691,3.964,3.9604,3.9532,3.9532,3.9532,3.9568,3.9604,3.9676,3.9711,3.9676,3.9676,3.9625,3.9696,3.9768,3.9854,3.9925,4.0031,4.0101,4.0242,4.0366,4.0608,4.0833,4.107,4.1288,4.1488,4.1637,4.1753,3.9388,3.9388,3.9388,3.9388,3.9388,3.9388,3.9388,3.9388,3.9388,3.9388,3.9388,3.9388,3.9388,3.9388,3.9388,3.9388,3.9463,4.0113,4.0756,4.1452,4.2111,4.2716,4.3125,4.3305,4.3305,4.3305,4.3305,4.3305,4.3305,4.3305,4.3305,4.3185,4.291,4.2207,4.1309,4.0726,4.0187,3.9813,3.9679,3.9388,3.9388,3.9388,3.9388,3.9388,3.9388,3.9388,3.9388,3.9388,3.9388,3.9388,3.9388,3.9388,3.9388,3.9388,3.9388,3.9388,3.9388,3.9409,3.9424,3.9424,3.9532,3.9589,3.946,3.9424,3.9388,3.9424,3.9424,3.9424,3.9388,3.9388,3.9388,3.9388,3.9388,3.9388,3.9388,3.9388,3.9388,3.9388,3.9448,3.9448,3.9508,3.9478,3.9478,3.9388,3.9424,3.9424,3.9424,3.9433,3.9463,3.9403,3.9403,3.9424,3.9424,3.946,3.946,3.946,3.946,3.9424,3.9424,3.9481,3.9481,3.9589,3.9711,3.9798,3.9869,3.994,4.0046,4.0187,4.0454,4.0562,4.0643,4.083,4.1049,4.1236,4.1439,3.9388,3.9388,3.9388,3.9388,3.9388,3.9388,3.9388,3.9388,3.9388,3.9388,3.9388,3.9388,3.9388,3.9388,3.9388,3.9388,3.9448,4.0038,4.0696,4.1324,4.1946,4.2611,4.3065,4.3305,4.3305,4.3305,4.3305,4.3305,4.3305,4.3305,4.3305,4.3305,4.32,4.2746,4.2073,4.1354,4.0681,4.0232,3.9694,3.9448,3.9388,3.9388,3.9388,3.9388,3.9388,3.9388,3.9388,3.9388,3.9388,3.9388,3.9388,3.9388,3.9388,3.9388,3.9388,3.9388,3.9388,3.9388,3.9388,3.9388,3.9388,3.946,3.9424,3.9388,3.9388,3.9388,3.9388,3.9388,3.9388,3.9388,3.9388,3.9388,3.9388,3.9388,3.9388,3.9388,3.9439,3.9484,3.9523,3.9597,3.9753,3.9798,3.9903,3.9828,3.9933,4.0008,4.0083,4.0038,3.9963,3.9448,3.9433,3.9388,3.9388,3.9388,3.9403,3.9448,3.9388,3.9388,3.9388,3.9424,3.946,3.9475,3.9532,3.9619,3.967,3.9898,4.0398,4.0455,4.0345,4.0456,4.0816,4.0659,4.0928,4.1013,4.1153,3.9388,3.9388,3.9388,3.9388,3.9388,3.9388,3.9388,3.9388,3.9388,3.9388,3.9388,3.9388,3.9388,3.9388,3.9388,3.9388,3.9463,3.9702,4.0472,4.11,4.1692,4.2417,4.2946,4.3305,4.3305,4.3305,4.3305,4.3305,4.3305,4.3305,4.3305,4.3305,4.3305,4.311,4.2791,4.2231,4.1354,4.0546,3.9888,3.9544,3.9403,3.9388,3.9388,3.9388,3.9388,3.9388,3.9388,3.9388,3.9388,3.9388,3.9388,3.9388,3.9388,3.9388,3.9388,3.9388,3.9388,3.9388,3.9388,3.9388,3.9388,3.9388,3.9388,3.9388,3.9388,3.9388,3.9388,3.9388,3.9388,3.9388,3.9388,3.9388,3.9463,3.9553,3.9568,3.9664,3.9738,3.9978,4.0053,4.0172,4.0277,4.0442,4.0502,4.0606,4.0711,4.0771,4.0756,4.0681,4.0502,4.0038,3.9813,3.9798,3.9732,3.9858,3.9582,3.9553,3.9463,3.9388,3.9553,3.9694,3.9664,3.9664,3.9499,3.964,4.0027,4.0588,4.1195,4.1081,4.0764,4.1198,4.1517,4.1066,4.0819,4.1013,4.1074,3.9388,3.9388,3.9388,3.9388,3.9388,3.9388,3.9388,3.9388,3.9388,3.9388,3.9388,3.9388,3.9388,3.9388,3.9388,3.9388,3.9388,3.9478,4.0157,4.1145,4.1422,4.2297,4.2901,4.329,4.3305,4.3305,4.3305,4.3305,4.3305,4.3305,4.3305,4.3305,4.3305,4.3305,4.305,4.2566,4.2021,4.116,4.0412,3.9798,3.9529,3.9403,3.9388,3.9388,3.9388,3.9388,3.9388,3.9388,3.9388,3.9388,3.9388,3.9388,3.9388,3.9388,3.9388,3.9388,3.9388,3.9388,3.9388,3.9388,3.9388,3.9388,3.9388,3.9388,3.9388,3.9388,3.9388,3.9388,3.9388,3.9388,3.9388,3.9418,3.9597,3.9798,3.9873,3.9963,4.0247,4.0576,4.0711,4.0831,4.0995,4.1227,4.1362,4.1452,4.1407,4.1257,4.1183,4.1168,4.1025,4.0786,4.0606,4.0561,4.0472,4.0412,4.0157,4.0023,4.0157,4.0262,4.0427,4.0442,4.0187,4.0217,4.0367,4.0457,4.0561,4.1108,4.1588,4.1513,4.14,4.1768,4.1919,4.1598,4.1298,4.1372,4.1423,3.9388,3.9388,3.9388,3.9388,3.9388,3.9388,3.9388,3.9388,3.9388,3.9388,3.9388,3.9388,3.9388,3.9388,3.9388,3.9388,3.9388,3.9433,3.9993,4.1347,4.1384,4.2058,4.2836,4.3275,4.329,4.3305,4.3305,4.3305,4.3305,4.3305,4.3305,4.3305,4.3305,4.3305,4.32,4.2865,4.2387,4.1946,4.1025,4.0262,3.9709,3.9478,3.9388,3.9388,3.9388,3.9388,3.9388,3.9388,3.9388,3.9388,3.9388,3.9388,3.9388,3.9388,3.9388,3.9388,3.9388,3.9388,3.9388,3.9388,3.9388,3.9388,3.9388,3.9388,3.9388,3.9388,3.9388,3.9478,3.9508,3.9672,3.9732,4.0038,4.0262,4.0397,4.0502,4.0621,4.0831,4.1205,4.1534,4.1669,4.1878,4.2043,4.2043,4.2117,4.2162,4.1818,4.1743,4.1788,4.1698,4.1579,4.1339,4.125,4.1025,4.092,4.095,4.0891,4.1085,4.1257,4.1235,4.1168,4.0831,4.1025,4.1392,4.1354,4.1354,4.1504,4.1782,4.1886,4.203,4.2053,4.2129,4.1957,4.1874,4.1948,4.1763,3.9388,3.9388,3.9388,3.9388,3.9388,3.9388,3.9388,3.9388,3.9388,3.9388,3.9388,3.9388,3.9388,3.9388,3.9388,3.9388,3.9388,3.9433,3.9933,4.0681,4.113,4.1818,4.2626,4.311,4.3245,4.3305,4.3305,4.3305,4.3305,4.3305,4.3305,4.3305,4.3305,4.3305,4.329,4.303,4.2836,4.25,4.1707,4.0876,4.0352,3.9723,3.9388,3.9388,3.9388,3.9388,3.9388,3.9388,3.9388,3.9388,3.9388,3.9388,3.9388,3.9388,3.9388,3.9388,3.9388,3.9388,3.9388,3.9403,3.9433,3.9433,3.9433,3.9403,3.9388,3.9388,3.9463,3.9634,3.9813,4.0023,4.0247,4.0591,4.0891,4.1025,4.116,4.1309,4.1444,4.1878,4.2351,4.2521,4.2731,4.2761,4.2731,4.2776,4.2851,4.288,4.2895,4.2895,4.2791,4.2626,4.2028,4.1818,4.1459,4.1369,4.1534,4.1669,4.1818,4.1713,4.1624,4.1534,4.1527,4.1669,4.1908,4.2096,4.2186,4.2237,4.2447,4.2821,4.288,4.2626,4.2605,4.2548,4.2644,4.2745,4.2372,3.8527,3.8571,3.8856,3.896,3.902,3.9275,3.9388,3.9388,3.9388,3.9388,3.9388,3.9388,3.9388,3.9388,3.9388,3.9388,3.9388,3.9388,3.9873,4.0442,4.107,4.1767,4.2372,4.2985,4.32,4.3305,4.3305,4.3305,4.3305,4.3305,4.3305,4.3305,4.3305,4.3305,4.3305,4.326,4.3125,4.2791,4.2102,4.1632,4.101,4.0232,3.9478,3.9388,3.9388,3.9388,3.9388,3.9388,3.9388,3.9388,3.9388,3.9388,3.9388,3.9388,3.9388,3.9388,3.9388,3.9388,3.9433,3.9493,3.9634,3.9753,3.9858,3.9948,4.0442,4.0472,4.0202,4.0337,4.0606,4.0831,4.0846,4.11,4.1482,4.1707,4.1833,4.1983,4.2282,4.2671,4.2895,4.2985,4.3065,4.3065,4.3035,4.3035,4.311,4.3095,4.3245,4.326,4.329,4.3305,4.2806,4.2447,4.2102,4.2147,4.2462,4.2506,4.2491,4.2327,4.2087,4.2297,4.2417,4.2357,4.2417,4.2581,4.2731,4.288,4.311,4.3275,4.3305,4.3075,4.308,4.321,4.3305,4.3305,4.2953,3.7449,3.7494,3.8018,3.8272,3.8347,3.8871,3.9149,3.926,3.926,3.9298,3.9388,3.9388,3.9388,3.9388,3.9388,3.9388,3.9388,3.9388,3.9828,4.0292,4.104,4.1587,4.2207,4.291,4.317,4.3305,4.3305,4.3305,4.3305,4.3305,4.3305,4.3305,4.3305,4.3305,4.3305,4.3305,4.32,4.3045,4.2641,4.2381,4.1587,4.0606,3.9918,3.9553,3.9418,3.9403,3.9388,3.9388,3.9388,3.9478,3.9553,3.9813,3.9903,3.9978,3.9918,3.9948,3.9993,3.9948,3.9873,3.9948,4.0157,4.0352,4.0472,4.0756,4.122,4.1309,4.104,4.113,4.1399,4.1504,4.1519,4.1713,4.2073,4.2297,4.2476,4.2596,4.2955,4.3215,4.326,4.3305,4.3305,4.3305,4.3305,4.3305,4.3305,4.3305,4.3305,4.3305,4.3305,4.3305,4.3065,4.2931,4.2796,4.2961,4.3155,4.305,4.2886,4.2916,4.2751,4.308,4.323,4.2946,4.2895,4.3065,4.3215,4.32,4.3215,4.329,4.3305,4.3305,4.3305,4.3305,4.3305,4.3305,4.3305,3.7404,3.7434,3.7554,3.7599,3.7629,3.7778,3.8078,3.8542,3.8616,3.8871,3.9284,3.9388,3.9388,3.9388,3.9388,3.9388,3.9388,3.9388,3.9388,3.9723,4.0876,4.1354,4.1923,4.2821,4.3185,4.3305,4.3305,4.3305,4.3305,4.3305,4.3305,4.3305,4.3305,4.3305,4.3305,4.3305,4.3275,4.315,4.2851,4.2515,4.2111,4.122,4.0442,4.0023,3.9694,3.9493,3.9388,3.9388,3.9388,3.9523,3.9933,4.0397,4.0636,4.0756,4.0741,4.0666,4.0711,4.0726,4.0696,4.0696,4.092,4.11,4.1242,4.128,4.1737,4.2066,4.1908,4.1998,4.2216,4.2216,4.2252,4.2611,4.294,4.2955,4.3035,4.3035,4.3215,4.3275,4.329,4.3305,4.3305,4.3265,4.325,4.325,4.321,4.321,4.321,4.321,4.3225,4.3265,4.3305,4.3305,4.3265,4.3305,4.326,4.3245,4.3155,4.326,4.3305,4.3305,4.3305,4.3305,4.3305,4.3305,4.3305,4.3275,4.3305,4.3305,4.3305,4.3305,4.3305,4.3305,4.3305,4.3305,4.3305]}]]